[[{"header":{"parameterUnit":"m.s-1","parameterCategory":1,"la1":31.0,"la2":29.5877,"lo1":-88.7671,"lo2":-86.6584,"dx":0.0162,"dy":0.0185,"nx":115,"ny":88,"refTime":"2023-02-06T06:00:00:Z","depth":0,"parameterNumber":2,"parameterNumberName":"U-component_of_WINDS"},"data":[0.0,0.0,0.0,0.0,0.0,0.0,0.0,0.0,0.0,0.0,0.0,0.0,0.0,0.0,0.0,0.0,0.0,0.0,0.0,0.0,0.0,0.0,0.0,0.0,0.0,0.0,0.0,0.0,0.0,0.0,0.0,0.0,0.0,0.0,0.0,0.0,0.0,0.0,0.0,0.0,0.0,0.0,0.0,0.0,0.0,0.0,0.0,0.0,0.0,0.0,0.0,0.0,0.0,0.0,0.0,0.0,0.0,0.0,0.0,0.0,0.0,0.0,0.0,0.0,0.0,0.0,0.0,0.0,0.0,0.0,0.0,0.0,0.0,0.0,0.0,0.0,0.0,0.0,0.0,0.0,0.0,0.0,0.0,0.0,0.0,0.0,0.0,0.0,0.0,0.0,0.0,0.0,0.0,0.0,0.0,0.0,0.0,0.0,0.0,0.0,0.0,0.0,0.0,0.0,0.0,0.0,0.0,0.0,0.0,0.0,0.0,0.0,0.0,0.0,0.0,0.0,0.0,0.0,0.0,0.0,0.0,0.0,0.0,0.0,0.0,0.0,0.0,0.0,0.0,0.0,0.0,0.0,0.0,0.0,0.0,0.0,0.0,0.0,0.0,0.0,0.0,0.0,0.0,0.0,0.0,0.0,0.0,0.0,0.0,0.0,0.0,0.0,0.0,0.0,0.0,0.0,0.0,0.0,0.0,0.0,0.0,0.0,0.0,0.0,0.0,0.0,0.0,0.0,0.0,0.0,0.0,0.0,0.0,0.0,0.0,0.0,0.0,0.0,0.0,0.0,0.0,0.0,0.0,0.0,0.0,0.0,0.0,0.0,0.0,0.0,0.0,0.0,0.0,0.0,0.0,0.0,0.0,0.0,0.0,0.0,0.0,0.0,0.0,0.0,0.0,0.0,0.0,0.0,0.0,0.0,0.0,0.0,0.0,0.0,0.0,0.0,0.0,0.0,0.0,0.0,0.0,0.0,0.0,0.0,0.0,0.0,0.0,0.0,0.0,0.0,0.0,0.0,0.0,0.0,0.0,0.0,0.0,0.0,0.0,0.0,0.0,0.0,0.0,0.0,0.0,0.0,0.0,0.0,0.0,0.0,0.0,0.0,0.0,0.0,0.0,0.0,0.0,0.0,0.0,0.0,0.0,0.0,0.0,0.0,0.0,0.0,0.0,0.0,0.0,0.0,0.0,0.0,0.0,0.0,0.0,0.0,0.0,0.0,0.0,0.0,0.0,0.0,0.0,0.0,0.0,0.0,0.0,0.0,0.0,0.0,0.0,0.0,0.0,0.0,0.0,0.0,0.0,0.0,0.0,0.0,0.0,0.0,0.0,0.0,0.0,0.0,0.0,0.0,0.0,0.0,0.0,0.0,0.0,0.0,0.0,0.0,0.0,0.0,0.0,0.0,0.0,0.0,0.0,0.0,0.0,0.0,0.0,0.0,0.0,0.0,0.0,0.0,0.0,0.0,0.0,0.0,0.0,0.0,0.0,0.0,0.0,0.0,0.0,0.0,0.0,0.0,0.0,0.0,0.0,0.0,0.0,0.0,0.0,0.0,0.0,0.0,0.0,0.0,0.0,0.0,0.0,0.0,0.0,0.0,0.0,0.0,0.0,0.0,0.0,0.0,0.0,0.0,0.0,0.0,0.0,0.0,0.0,0.0,0.0,0.0,0.0,0.0,0.0,0.0,0.0,0.0,0.0,0.0,0.0,0.0,0.0,0.0,0.0,0.0,0.0,0.0,0.0,0.0,0.0,0.0,0.0,0.0,0.0,0.0,0.0,0.0,0.0,0.0,0.0,0.0,0.0,0.0,0.0,0.0,0.0,0.0,0.0,0.0,0.0,0.0,0.0,0.0,0.0,0.0,0.0,0.0,0.0,0.0,0.0,0.0,0.0,0.0,0.0,0.0,0.0,0.0,0.0,0.0,0.0,0.0,0.0,0.0,0.0,0.0,0.0,0.0,0.0,0.0,0.0,0.0,0.0,0.0,0.0,0.0,0.0,0.0,0.0,0.0,0.0,0.0,0.0,0.0,0.0,0.0,0.0,0.0,0.0,0.0,0.0,0.0,0.0,0.0,0.0,0.0,0.0,0.0,0.0,0.0,0.0,0.0,0.0,0.0,0.0,0.0,0.0,0.0,0.0,0.0,0.0,0.0,0.0,0.0,0.0,0.0,0.0,0.0,0.0,0.0,0.0,0.0,0.0,0.0,0.0,0.0,0.0,0.0,0.0,0.0,0.0,0.0,0.0,0.0,0.0,0.0,0.0,0.0,0.0,0.0,0.0,0.0,0.0,0.0,0.0,0.0,0.0,0.0,0.0,0.0,0.0,0.0,0.0,0.0,0.0,0.0,0.0,0.0,0.0,0.0,0.0,0.0,0.0,0.0,0.0,0.0,0.0,0.0,0.0,0.0,0.0,0.0,0.0,0.0,0.0,0.0,0.0,0.0,0.0,0.0,0.0,0.0,0.0,0.0,0.0,0.0,0.0,0.0,0.0,0.0,0.0,0.0,0.0,0.0,0.0,0.0,0.0,0.0,0.0,0.0,0.0,0.0,0.0,0.0,0.0,0.0,0.0,0.0,0.0,0.0,0.0,0.0,0.0,0.0,0.0,0.0,0.0,0.0,0.0,0.0,0.0,0.0,0.0,0.0,0.0,0.0,0.0,0.0,0.0,0.0,0.0,0.0,0.0,0.0,0.0,0.0,0.0,0.0,0.0,0.0,0.0,0.0,0.0,0.0,0.0,0.0,0.0,0.0,0.0,0.0,0.0,0.0,0.0,0.0,0.0,0.0,0.0,0.0,0.0,0.0,0.0,0.0,0.0,0.0,0.0,0.0,0.0,0.0,0.0,0.0,0.0,0.0,0.0,0.0,0.0,0.0,0.0,0.0,0.0,0.0,0.0,0.0,0.0,0.0,0.0,0.0,0.0,0.0,0.0,0.0,0.0,0.0,0.0,0.0,0.0,0.0,0.0,0.0,0.0,0.0,0.0,0.0,0.0,0.0,0.0,0.0,0.0,0.0,0.0,0.0,0.0,0.0,0.0,0.0,0.0,0.0,0.0,0.0,0.0,0.0,0.0,0.0,0.0,0.0,0.0,0.0,0.0,0.0,0.0,0.0,0.0,0.0,0.0,0.0,0.0,0.0,0.0,0.0,0.0,0.0,0.0,0.0,0.0,0.0,0.0,0.0,0.0,0.0,0.0,0.0,0.0,0.0,0.0,0.0,0.0,0.0,0.0,0.0,0.0,0.0,0.0,0.0,0.0,0.0,0.0,0.0,0.0,0.0,0.0,0.0,0.0,0.0,0.0,0.0,0.0,0.0,0.0,0.0,0.0,0.0,0.0,0.0,0.0,0.0,0.0,0.0,0.0,0.0,0.0,0.0,0.0,0.0,0.0,0.0,0.0,0.0,0.0,0.0,0.0,0.0,0.0,0.0,0.0,0.0,0.0,0.0,0.0,0.0,0.0,0.0,0.0,0.0,0.0,0.0,0.0,0.0,0.0,0.0,0.0,0.0,0.0,0.0,0.0,0.0,0.0,0.0,0.0,0.0,0.0,0.0,0.0,0.0,0.0,0.0,0.0,0.0,0.0,0.0,0.0,0.0,0.0,0.0,0.0,0.0,0.0,0.0,0.0,0.0,0.0,0.0,0.0,0.0,0.0,0.0,0.0,0.0,0.0,0.0,0.0,0.0,0.0,0.0,0.0,0.0,0.0,0.0,0.0,0.0,0.0,0.0,0.0,0.0,0.0,0.0,0.0,0.0,0.0,0.0,0.0,0.0,0.0,0.0,0.0,0.0,0.0,0.0,0.0,0.0,0.0,0.0,0.0,0.0,0.0,0.0,0.0,0.0,0.0,0.0,0.0,0.0,0.0,0.0,0.0,0.0,0.0,0.0,0.0,0.0,0.0,0.0,0.0,0.0,0.0,0.0,0.0,0.0,0.0,0.0,0.0,0.0,0.0,0.0,0.0,0.0,0.0,0.0,0.0,0.0,0.0,0.0,0.0,0.0,0.0,0.0,0.0,0.0,0.0,0.0,0.0,0.0,0.0,0.0,0.0,0.0,0.0,0.0,0.0,0.0,0.0,0.0,0.0,0.0,0.0,0.0,0.0,0.0,0.0,0.0,0.0,0.0,0.0,0.0,0.0,0.0,0.0,0.0,0.0,0.0,0.0,0.0,0.0,0.0,0.0,0.0,0.0,0.0,0.0,0.0,0.0,0.0,0.0,0.0,0.0,0.0,0.0,0.0,0.0,0.0,-8.1131,0.0,0.0,0.0,0.0,0.0,0.0,0.0,0.0,0.0,0.0,0.0,0.0,0.0,0.0,0.0,0.0,0.0,0.0,0.0,0.0,0.0,0.0,0.0,0.0,0.0,0.0,0.0,0.0,0.0,0.0,0.0,0.0,0.0,0.0,0.0,0.0,0.0,0.0,0.0,0.0,0.0,0.0,0.0,0.0,0.0,0.0,0.0,0.0,0.0,0.0,0.0,0.0,0.0,0.0,0.0,0.0,0.0,0.0,0.0,0.0,0.0,0.0,0.0,0.0,0.0,0.0,0.0,0.0,0.0,0.0,0.0,0.0,0.0,0.0,0.0,0.0,0.0,0.0,0.0,0.0,0.0,0.0,0.0,0.0,0.0,0.0,0.0,0.0,0.0,0.0,0.0,0.0,0.0,0.0,0.0,0.0,0.0,0.0,0.0,0.0,0.0,0.0,0.0,0.0,0.0,0.0,0.0,0.0,0.0,0.0,-8.4478,-8.3632,-8.2747,-8.1939,-8.1131,0.0,0.0,0.0,0.0,0.0,0.0,0.0,0.0,0.0,0.0,0.0,0.0,0.0,0.0,0.0,0.0,0.0,0.0,0.0,0.0,0.0,0.0,0.0,0.0,0.0,0.0,0.0,0.0,0.0,0.0,0.0,0.0,0.0,0.0,0.0,0.0,0.0,0.0,0.0,0.0,0.0,0.0,0.0,0.0,0.0,0.0,0.0,0.0,0.0,0.0,0.0,0.0,0.0,0.0,0.0,0.0,0.0,0.0,0.0,0.0,0.0,0.0,0.0,0.0,0.0,0.0,0.0,0.0,0.0,0.0,0.0,0.0,0.0,0.0,0.0,0.0,0.0,0.0,0.0,0.0,0.0,0.0,0.0,0.0,0.0,0.0,0.0,0.0,0.0,0.0,0.0,0.0,0.0,0.0,0.0,0.0,0.0,0.0,0.0,0.0,0.0,0.0,0.0,0.0,0.0,0.0,0.0,0.0,0.0,0.0,0.0,0.0,-8.2477,-8.1747,-8.1131,0.0,0.0,0.0,0.0,0.0,0.0,0.0,0.0,0.0,0.0,0.0,0.0,0.0,0.0,0.0,0.0,0.0,0.0,0.0,0.0,0.0,0.0,0.0,0.0,0.0,0.0,0.0,0.0,0.0,0.0,0.0,0.0,0.0,0.0,0.0,0.0,0.0,0.0,0.0,0.0,0.0,0.0,0.0,0.0,0.0,0.0,0.0,0.0,0.0,0.0,0.0,0.0,0.0,0.0,0.0,0.0,0.0,0.0,0.0,0.0,0.0,0.0,0.0,0.0,0.0,0.0,0.0,0.0,0.0,0.0,0.0,0.0,0.0,0.0,0.0,0.0,0.0,0.0,0.0,0.0,0.0,0.0,0.0,0.0,0.0,0.0,0.0,0.0,0.0,0.0,0.0,0.0,0.0,0.0,0.0,0.0,0.0,0.0,0.0,0.0,0.0,0.0,0.0,0.0,0.0,0.0,0.0,0.0,0.0,0.0,-8.3285,-8.2439,-8.1631,0.0,-8.1093,0.0,0.0,0.0,0.0,0.0,0.0,0.0,0.0,0.0,0.0,0.0,0.0,0.0,0.0,0.0,0.0,0.0,0.0,0.0,0.0,0.0,0.0,0.0,0.0,0.0,0.0,0.0,0.0,0.0,0.0,0.0,0.0,0.0,0.0,0.0,0.0,0.0,0.0,0.0,0.0,0.0,0.0,0.0,0.0,0.0,0.0,0.0,0.0,0.0,0.0,0.0,0.0,0.0,0.0,0.0,0.0,0.0,0.0,0.0,0.0,0.0,0.0,0.0,0.0,0.0,0.0,0.0,0.0,0.0,0.0,0.0,0.0,0.0,0.0,0.0,0.0,0.0,0.0,0.0,0.0,0.0,0.0,0.0,0.0,0.0,0.0,0.0,0.0,0.0,0.0,0.0,0.0,0.0,0.0,0.0,0.0,0.0,0.0,0.0,0.0,0.0,0.0,0.0,0.0,0.0,0.0,0.0,0.0,0.0,0.0,-8.267,-8.2324,-8.1516,-8.1093,0.0,0.0,0.0,0.0,0.0,0.0,0.0,0.0,0.0,0.0,0.0,0.0,0.0,0.0,0.0,0.0,0.0,0.0,0.0,0.0,0.0,0.0,0.0,0.0,0.0,0.0,0.0,0.0,0.0,0.0,0.0,0.0,0.0,0.0,0.0,0.0,0.0,0.0,0.0,0.0,0.0,0.0,0.0,0.0,0.0,0.0,0.0,0.0,0.0,0.0,0.0,0.0,0.0,0.0,0.0,0.0,0.0,0.0,0.0,0.0,0.0,0.0,0.0,0.0,0.0,0.0,0.0,0.0,0.0,0.0,0.0,0.0,0.0,0.0,0.0,0.0,0.0,0.0,0.0,0.0,0.0,0.0,0.0,0.0,0.0,0.0,0.0,0.0,0.0,0.0,0.0,0.0,0.0,0.0,0.0,0.0,0.0,0.0,0.0,0.0,0.0,0.0,0.0,0.0,0.0,0.0,0.0,0.0,0.0,0.0,-8.2939,-8.2208,-8.1977,-8.14,-8.1093,-8.1093,0.0,0.0,0.0,0.0,0.0,0.0,0.0,0.0,0.0,0.0,0.0,0.0,0.0,0.0,0.0,0.0,0.0,0.0,0.0,0.0,0.0,0.0,0.0,0.0,0.0,0.0,0.0,0.0,0.0,0.0,0.0,0.0,0.0,0.0,0.0,0.0,0.0,0.0,0.0,0.0,0.0,0.0,0.0,0.0,0.0,0.0,0.0,0.0,0.0,0.0,0.0,0.0,0.0,0.0,0.0,0.0,0.0,0.0,0.0,0.0,0.0,0.0,0.0,0.0,0.0,0.0,0.0,0.0,0.0,0.0,0.0,0.0,0.0,0.0,0.0,0.0,0.0,0.0,0.0,0.0,0.0,0.0,0.0,0.0,0.0,0.0,0.0,0.0,0.0,0.0,0.0,0.0,0.0,0.0,0.0,0.0,0.0,0.0,0.0,0.0,0.0,0.0,0.0,0.0,0.0,0.0,0.0,0.0,-8.2477,-8.2324,-8.1939,-8.1208,-8.1131,-8.1093,0.0,0.0,0.0,0.0,0.0,0.0,0.0,0.0,0.0,0.0,0.0,0.0,0.0,0.0,0.0,0.0,0.0,0.0,0.0,0.0,0.0,0.0,0.0,0.0,0.0,0.0,0.0,0.0,0.0,0.0,0.0,0.0,0.0,0.0,0.0,0.0,0.0,0.0,0.0,0.0,0.0,0.0,0.0,0.0,0.0,0.0,0.0,0.0,0.0,0.0,0.0,0.0,0.0,0.0,0.0,0.0,0.0,0.0,0.0,0.0,0.0,0.0,0.0,0.0,0.0,0.0,0.0,0.0,0.0,0.0,0.0,0.0,0.0,0.0,0.0,0.0,0.0,0.0,0.0,0.0,0.0,0.0,0.0,0.0,0.0,0.0,0.0,0.0,0.0,0.0,0.0,0.0,0.0,0.0,0.0,0.0,0.0,0.0,0.0,0.0,0.0,0.0,0.0,0.0,0.0,0.0,0.0,0.0,0.0,-8.2285,-8.1785,-8.14,-8.1093,-8.1093,-8.0823,0.0,0.0,0.0,0.0,0.0,0.0,0.0,0.0,0.0,0.0,0.0,0.0,0.0,0.0,0.0,0.0,0.0,0.0,0.0,0.0,0.0,0.0,0.0,0.0,0.0,0.0,0.0,0.0,0.0,0.0,0.0,0.0,0.0,0.0,0.0,0.0,0.0,0.0,0.0,0.0,0.0,0.0,0.0,0.0,0.0,0.0,0.0,0.0,0.0,0.0,0.0,0.0,0.0,0.0,0.0,0.0,0.0,0.0,0.0,0.0,0.0,0.0,0.0,0.0,0.0,0.0,0.0,0.0,0.0,0.0,0.0,0.0,0.0,0.0,0.0,0.0,0.0,0.0,0.0,0.0,0.0,0.0,0.0,0.0,0.0,0.0,0.0,0.0,0.0,0.0,0.0,0.0,0.0,0.0,0.0,0.0,0.0,0.0,0.0,0.0,0.0,0.0,0.0,0.0,0.0,0.0,0.0,0.0,0.0,-8.19,0.0,-8.1093,-8.1093,-8.1093,-8.0669,0.0,0.0,0.0,0.0,0.0,0.0,0.0,0.0,0.0,0.0,0.0,0.0,0.0,0.0,0.0,0.0,0.0,0.0,0.0,0.0,0.0,0.0,0.0,0.0,0.0,0.0,0.0,0.0,0.0,0.0,0.0,0.0,0.0,0.0,0.0,0.0,0.0,0.0,0.0,0.0,0.0,0.0,0.0,0.0,0.0,0.0,0.0,0.0,0.0,0.0,0.0,0.0,0.0,0.0,0.0,0.0,0.0,0.0,0.0,0.0,0.0,0.0,0.0,0.0,0.0,0.0,0.0,0.0,0.0,0.0,0.0,0.0,0.0,0.0,0.0,0.0,0.0,0.0,0.0,0.0,0.0,0.0,0.0,0.0,0.0,0.0,0.0,0.0,0.0,0.0,0.0,0.0,0.0,0.0,0.0,0.0,0.0,0.0,0.0,0.0,0.0,0.0,0.0,0.0,0.0,0.0,0.0,0.0,-8.1131,-8.1093,-8.1131,-8.1131,-8.1093,-8.1093,-8.0669,0.0,0.0,0.0,0.0,0.0,0.0,0.0,0.0,0.0,0.0,0.0,0.0,0.0,0.0,0.0,0.0,0.0,0.0,0.0,0.0,0.0,0.0,0.0,0.0,0.0,0.0,0.0,0.0,0.0,0.0,0.0,0.0,0.0,0.0,0.0,0.0,0.0,0.0,0.0,0.0,0.0,0.0,0.0,0.0,0.0,0.0,0.0,0.0,0.0,0.0,0.0,0.0,0.0,0.0,0.0,0.0,0.0,0.0,0.0,0.0,0.0,0.0,0.0,0.0,0.0,0.0,0.0,0.0,0.0,0.0,0.0,0.0,0.0,0.0,0.0,0.0,0.0,0.0,0.0,0.0,0.0,0.0,0.0,0.0,0.0,0.0,0.0,0.0,0.0,0.0,0.0,0.0,0.0,0.0,0.0,0.0,0.0,0.0,0.0,0.0,0.0,0.0,0.0,0.0,0.0,0.0,0.0,0.0,0.0,-8.1131,-8.1631,-8.167,-8.1131,-8.1093,-8.04,0.0,0.0,0.0,0.0,0.0,0.0,0.0,0.0,0.0,0.0,0.0,0.0,0.0,0.0,0.0,0.0,0.0,0.0,0.0,0.0,0.0,0.0,0.0,0.0,0.0,0.0,0.0,0.0,0.0,0.0,0.0,0.0,0.0,0.0,0.0,0.0,0.0,0.0,0.0,0.0,0.0,0.0,0.0,0.0,0.0,0.0,0.0,0.0,0.0,0.0,0.0,0.0,0.0,0.0,0.0,0.0,0.0,0.0,0.0,0.0,0.0,0.0,0.0,0.0,0.0,0.0,0.0,0.0,0.0,0.0,0.0,0.0,0.0,0.0,0.0,0.0,0.0,0.0,0.0,0.0,0.0,0.0,0.0,0.0,0.0,0.0,0.0,0.0,0.0,0.0,0.0,0.0,0.0,0.0,0.0,0.0,0.0,0.0,0.0,0.0,0.0,0.0,0.0,0.0,0.0,0.0,0.0,0.0,0.0,-8.2554,-8.2708,-8.2554,-8.2054,-8.1708,-8.09,-7.9515,0.0,0.0,0.0,0.0,0.0,0.0,0.0,0.0,0.0,0.0,0.0,0.0,0.0,0.0,0.0,0.0,0.0,0.0,0.0,0.0,0.0,0.0,0.0,0.0,0.0,0.0,0.0,0.0,0.0,0.0,0.0,0.0,0.0,0.0,0.0,0.0,0.0,0.0,0.0,0.0,0.0,0.0,0.0,0.0,0.0,0.0,0.0,0.0,0.0,0.0,0.0,0.0,0.0,0.0,0.0,0.0,0.0,0.0,0.0,0.0,0.0,0.0,0.0,0.0,0.0,0.0,0.0,0.0,0.0,0.0,0.0,0.0,0.0,0.0,0.0,0.0,0.0,0.0,0.0,0.0,0.0,0.0,0.0,0.0,0.0,0.0,0.0,0.0,0.0,0.0,0.0,0.0,0.0,0.0,0.0,0.0,0.0,0.0,0.0,0.0,0.0,0.0,0.0,0.0,0.0,0.0,0.0,0.0,-8.5132,-8.4362,-8.3901,-8.3632,-8.2862,-8.2016,0.0,0.0,0.0,0.0,0.0,0.0,0.0,0.0,0.0,0.0,0.0,0.0,0.0,0.0,0.0,0.0,0.0,0.0,0.0,0.0,0.0,0.0,0.0,0.0,0.0,0.0,0.0,0.0,0.0,0.0,0.0,0.0,0.0,0.0,0.0,0.0,0.0,0.0,0.0,0.0,0.0,0.0,0.0,0.0,0.0,0.0,0.0,0.0,0.0,0.0,0.0,0.0,0.0,0.0,0.0,0.0,0.0,0.0,0.0,0.0,0.0,0.0,0.0,0.0,0.0,0.0,0.0,0.0,0.0,0.0,0.0,0.0,0.0,0.0,0.0,0.0,0.0,0.0,0.0,0.0,0.0,0.0,0.0,0.0,0.0,0.0,0.0,0.0,0.0,0.0,0.0,0.0,0.0,0.0,0.0,0.0,0.0,0.0,0.0,0.0,0.0,0.0,0.0,0.0,0.0,0.0,0.0,0.0,0.0,-8.7632,-8.8055,-8.7055,-8.467,-8.4324,-8.3247,0.0,0.0,0.0,0.0,0.0,0.0,0.0,0.0,0.0,0.0,0.0,0.0,0.0,0.0,0.0,0.0,0.0,0.0,0.0,0.0,0.0,0.0,0.0,0.0,0.0,0.0,0.0,0.0,0.0,0.0,0.0,0.0,0.0,0.0,0.0,0.0,0.0,0.0,0.0,0.0,0.0,0.0,0.0,0.0,0.0,0.0,0.0,0.0,0.0,0.0,0.0,0.0,0.0,0.0,0.0,0.0,0.0,0.0,0.0,0.0,0.0,0.0,0.0,0.0,0.0,0.0,0.0,0.0,0.0,0.0,0.0,0.0,0.0,0.0,0.0,0.0,0.0,0.0,0.0,0.0,0.0,0.0,0.0,0.0,0.0,0.0,0.0,0.0,0.0,0.0,0.0,0.0,0.0,0.0,0.0,0.0,0.0,0.0,0.0,0.0,0.0,0.0,0.0,0.0,0.0,0.0,0.0,0.0,-8.8017,-8.971,-9.0902,-9.0402,-8.8171,-8.6709,-8.4939,0.0,0.0,0.0,0.0,0.0,0.0,0.0,0.0,0.0,0.0,0.0,0.0,0.0,0.0,0.0,0.0,0.0,0.0,0.0,0.0,0.0,0.0,0.0,0.0,0.0,0.0,0.0,0.0,0.0,0.0,0.0,0.0,0.0,0.0,0.0,0.0,0.0,0.0,0.0,0.0,0.0,0.0,0.0,0.0,0.0,0.0,0.0,0.0,0.0,0.0,0.0,0.0,0.0,0.0,0.0,0.0,0.0,0.0,0.0,0.0,0.0,0.0,0.0,0.0,0.0,0.0,0.0,0.0,0.0,0.0,0.0,0.0,0.0,0.0,0.0,0.0,0.0,0.0,0.0,0.0,0.0,0.0,0.0,0.0,0.0,0.0,0.0,0.0,0.0,0.0,0.0,0.0,0.0,0.0,0.0,0.0,0.0,0.0,0.0,0.0,0.0,0.0,0.0,0.0,0.0,0.0,0.0,0.0,-8.9671,-9.1441,-9.3095,-9.3595,-9.2826,-8.9594,-8.6978,0.0,0.0,0.0,0.0,0.0,0.0,0.0,0.0,0.0,0.0,0.0,0.0,0.0,0.0,0.0,0.0,0.0,0.0,0.0,0.0,0.0,0.0,0.0,0.0,0.0,0.0,0.0,0.0,0.0,0.0,0.0,0.0,0.0,0.0,0.0,0.0,0.0,0.0,0.0,0.0,0.0,0.0,0.0,0.0,0.0,0.0,0.0,0.0,0.0,0.0,0.0,0.0,0.0,0.0,0.0,0.0,0.0,0.0,0.0,0.0,0.0,0.0,0.0,0.0,0.0,0.0,0.0,0.0,0.0,0.0,0.0,0.0,0.0,0.0,0.0,0.0,0.0,0.0,0.0,0.0,0.0,0.0,0.0,0.0,0.0,0.0,0.0,0.0,0.0,0.0,0.0,0.0,0.0,0.0,0.0,0.0,0.0,0.0,0.0,0.0,0.0,0.0,0.0,0.0,0.0,0.0,0.0,0.0,-9.0787,-9.3133,-9.4864,-9.5672,-9.548,-9.2172,-8.9286,0.0,0.0,0.0,0.0,0.0,0.0,0.0,0.0,0.0,0.0,0.0,0.0,0.0,0.0,0.0,0.0,0.0,0.0,0.0,0.0,0.0,0.0,0.0,0.0,0.0,0.0,0.0,0.0,0.0,0.0,0.0,0.0,0.0,0.0,0.0,0.0,0.0,0.0,0.0,0.0,0.0,0.0,0.0,0.0,0.0,0.0,0.0,0.0,-6.9005,0.0,0.0,0.0,0.0,0.0,0.0,0.0,0.0,0.0,0.0,0.0,0.0,0.0,0.0,0.0,0.0,0.0,0.0,0.0,0.0,0.0,0.0,0.0,0.0,0.0,0.0,0.0,0.0,0.0,0.0,0.0,0.0,0.0,0.0,0.0,0.0,0.0,0.0,0.0,0.0,0.0,0.0,0.0,0.0,0.0,0.0,0.0,0.0,0.0,0.0,0.0,0.0,0.0,0.0,0.0,0.0,0.0,0.0,0.0,-9.1748,-9.4249,-9.598,-9.6865,-9.6788,-9.4326,-9.1402,0.0,0.0,0.0,0.0,0.0,0.0,0.0,0.0,0.0,0.0,0.0,0.0,0.0,0.0,0.0,0.0,0.0,0.0,0.0,0.0,0.0,0.0,0.0,0.0,0.0,0.0,0.0,0.0,0.0,0.0,0.0,0.0,0.0,0.0,0.0,0.0,0.0,0.0,0.0,0.0,0.0,0.0,0.0,0.0,0.0,0.0,0.0,0.0,0.0,0.0,0.0,0.0,0.0,0.0,0.0,0.0,0.0,0.0,0.0,0.0,0.0,0.0,0.0,0.0,0.0,0.0,0.0,0.0,0.0,0.0,0.0,0.0,0.0,0.0,0.0,0.0,0.0,0.0,0.0,0.0,0.0,0.0,0.0,0.0,0.0,0.0,0.0,0.0,0.0,0.0,0.0,0.0,0.0,0.0,0.0,0.0,0.0,0.0,0.0,0.0,0.0,0.0,0.0,0.0,0.0,0.0,0.0,-9.0056,-9.2633,-9.5134,-9.6711,-9.7519,-9.748,-9.5749,-9.2941,-8.9017,0.0,0.0,0.0,0.0,0.0,0.0,0.0,0.0,0.0,0.0,0.0,0.0,0.0,0.0,0.0,0.0,0.0,0.0,0.0,0.0,0.0,0.0,0.0,0.0,0.0,0.0,0.0,0.0,0.0,0.0,0.0,0.0,0.0,0.0,0.0,0.0,0.0,0.0,-7.4474,-7.5241,0.0,0.0,0.0,0.0,0.0,0.0,0.0,0.0,-6.8944,0.0,0.0,0.0,0.0,0.0,0.0,0.0,0.0,0.0,0.0,0.0,0.0,0.0,0.0,0.0,0.0,0.0,0.0,0.0,0.0,0.0,0.0,0.0,0.0,0.0,0.0,0.0,0.0,0.0,0.0,0.0,0.0,0.0,0.0,0.0,0.0,0.0,0.0,0.0,0.0,0.0,0.0,0.0,0.0,0.0,0.0,0.0,0.0,0.0,0.0,0.0,0.0,0.0,0.0,0.0,0.0,-8.7401,-9.0633,-9.3518,-9.6019,-9.7019,-9.7519,-9.7442,-9.5172,-9.2595,-8.9825,0.0,0.0,0.0,0.0,0.0,0.0,0.0,0.0,0.0,0.0,0.0,0.0,0.0,0.0,0.0,0.0,0.0,0.0,0.0,0.0,0.0,0.0,0.0,0.0,0.0,0.0,0.0,0.0,0.0,0.0,0.0,0.0,0.0,0.0,0.0,0.0,0.0,0.0,0.0,-7.521,-7.5628,0.0,0.0,0.0,0.0,0.0,0.0,0.0,0.0,-6.8786,0.0,0.0,0.0,0.0,0.0,0.0,0.0,0.0,0.0,0.0,0.0,0.0,0.0,0.0,0.0,0.0,0.0,0.0,0.0,0.0,0.0,0.0,0.0,0.0,0.0,0.0,0.0,0.0,0.0,0.0,0.0,0.0,0.0,0.0,0.0,0.0,0.0,0.0,0.0,0.0,0.0,0.0,0.0,0.0,0.0,0.0,0.0,0.0,0.0,0.0,0.0,0.0,0.0,0.0,0.0,-8.8094,-9.0979,-9.3749,-9.6211,-9.7096,-9.7519,-9.7442,-9.5018,-9.2287,0.0,0.0,0.0,0.0,0.0,0.0,0.0,0.0,0.0,0.0,0.0,0.0,0.0,0.0,0.0,0.0,0.0,0.0,0.0,0.0,0.0,0.0,0.0,0.0,0.0,0.0,0.0,0.0,0.0,0.0,0.0,0.0,0.0,0.0,0.0,0.0,0.0,0.0,0.0,0.0,-7.4919,-7.5644,-7.5549,0.0,0.0,0.0,0.0,0.0,0.0,-7.0405,-6.9528,0.0,0.0,0.0,0.0,0.0,0.0,0.0,0.0,0.0,0.0,0.0,0.0,0.0,0.0,0.0,0.0,0.0,0.0,0.0,0.0,0.0,0.0,0.0,0.0,0.0,0.0,0.0,0.0,0.0,0.0,0.0,0.0,0.0,0.0,0.0,0.0,0.0,0.0,0.0,0.0,0.0,0.0,0.0,0.0,0.0,0.0,0.0,0.0,0.0,0.0,0.0,0.0,0.0,0.0,0.0,-8.8671,-9.1364,-9.3787,-9.5942,-9.6826,-9.7173,-9.6942,-9.4518,-9.171,0.0,0.0,0.0,0.0,0.0,0.0,0.0,0.0,0.0,0.0,0.0,0.0,0.0,0.0,0.0,0.0,0.0,0.0,0.0,0.0,0.0,0.0,0.0,0.0,0.0,0.0,0.0,0.0,0.0,0.0,0.0,0.0,0.0,0.0,0.0,0.0,0.0,0.0,0.0,0.0,0.0,-7.5682,-7.5583,-7.5549,0.0,0.0,0.0,0.0,-7.2343,-7.1291,0.0,0.0,0.0,0.0,0.0,0.0,0.0,0.0,0.0,0.0,0.0,0.0,0.0,0.0,0.0,0.0,0.0,0.0,0.0,0.0,0.0,0.0,0.0,0.0,0.0,0.0,0.0,0.0,0.0,0.0,0.0,0.0,0.0,0.0,0.0,0.0,0.0,0.0,0.0,0.0,0.0,0.0,0.0,0.0,0.0,0.0,0.0,0.0,0.0,0.0,0.0,0.0,0.0,0.0,0.0,0.0,-8.8748,-9.1902,-9.4057,-9.5134,-9.598,-9.6095,-9.5288,-9.2826,-9.0248,0.0,0.0,0.0,0.0,0.0,0.0,0.0,0.0,0.0,0.0,0.0,0.0,0.0,0.0,0.0,0.0,0.0,0.0,0.0,0.0,0.0,0.0,0.0,0.0,0.0,0.0,0.0,0.0,0.0,0.0,0.0,0.0,0.0,0.0,0.0,0.0,0.0,0.0,0.0,0.0,0.0,-7.5583,-7.5535,-7.5409,-7.5263,0.0,0.0,-7.3646,-7.3204,-7.225,0.0,0.0,0.0,0.0,0.0,0.0,0.0,0.0,0.0,0.0,0.0,0.0,0.0,0.0,0.0,0.0,0.0,0.0,0.0,0.0,0.0,0.0,0.0,0.0,0.0,0.0,0.0,0.0,0.0,0.0,0.0,0.0,0.0,0.0,0.0,0.0,0.0,0.0,0.0,0.0,0.0,0.0,0.0,0.0,0.0,0.0,0.0,0.0,0.0,0.0,0.0,0.0,0.0,0.0,0.0,-8.6478,-8.8709,-9.1556,-9.3633,-9.498,-9.5865,-9.5903,-9.5037,-9.2518,-9.0017,0.0,0.0,0.0,0.0,0.0,0.0,0.0,0.0,0.0,0.0,0.0,0.0,0.0,0.0,0.0,0.0,0.0,0.0,0.0,0.0,0.0,0.0,0.0,0.0,0.0,0.0,0.0,0.0,0.0,0.0,0.0,0.0,0.0,0.0,0.0,0.0,0.0,0.0,0.0,0.0,0.0,0.0,-7.5409,-7.5719,0.0,0.0,0.0,-7.5107,-7.4773,0.0,0.0,0.0,0.0,0.0,0.0,0.0,0.0,0.0,0.0,0.0,0.0,0.0,0.0,0.0,0.0,0.0,0.0,0.0,0.0,0.0,0.0,0.0,0.0,0.0,0.0,0.0,0.0,0.0,0.0,0.0,0.0,0.0,0.0,0.0,0.0,0.0,0.0,0.0,0.0,0.0,0.0,0.0,0.0,0.0,0.0,0.0,0.0,0.0,0.0,0.0,0.0,0.0,0.0,0.0,0.0,0.0,-8.8671,-9.121,-9.321,-9.4634,-9.5749,-9.5788,-9.4672,-9.2402,0.0,0.0,0.0,0.0,0.0,0.0,0.0,0.0,0.0,0.0,0.0,0.0,0.0,0.0,0.0,0.0,0.0,0.0,0.0,0.0,0.0,0.0,0.0,0.0,0.0,0.0,0.0,-7.4243,0.0,0.0,0.0,0.0,0.0,0.0,0.0,0.0,0.0,0.0,0.0,0.0,0.0,0.0,-7.5427,-7.5338,-7.6026,-7.6427,0.0,0.0,-7.609,-7.5588,-7.4252,-7.2823,0.0,0.0,0.0,0.0,0.0,0.0,0.0,0.0,0.0,0.0,0.0,0.0,0.0,0.0,0.0,0.0,0.0,0.0,0.0,0.0,0.0,0.0,0.0,0.0,0.0,0.0,0.0,0.0,0.0,0.0,0.0,0.0,0.0,0.0,0.0,0.0,0.0,0.0,0.0,0.0,0.0,0.0,0.0,0.0,0.0,0.0,0.0,0.0,0.0,0.0,0.0,0.0,0.0,0.0,-8.6132,-8.8671,-9.121,-9.2903,-9.3787,-9.5441,-9.548,-9.3826,-9.2133,-9.0017,0.0,0.0,0.0,0.0,0.0,0.0,0.0,0.0,0.0,0.0,0.0,0.0,0.0,0.0,0.0,0.0,0.0,0.0,0.0,0.0,0.0,0.0,0.0,0.0,0.0,0.0,0.0,0.0,0.0,0.0,0.0,0.0,0.0,0.0,0.0,0.0,0.0,0.0,0.0,0.0,0.0,-7.5445,-7.5338,-7.5913,-7.6084,0.0,-7.5696,-7.5801,-7.4939,-7.446,-7.362,-7.1967,0.0,0.0,0.0,0.0,0.0,0.0,0.0,0.0,0.0,0.0,0.0,0.0,0.0,0.0,0.0,0.0,0.0,0.0,0.0,0.0,0.0,0.0,0.0,0.0,0.0,0.0,0.0,0.0,0.0,0.0,0.0,0.0,0.0,0.0,0.0,0.0,0.0,0.0,0.0,0.0,0.0,0.0,0.0,0.0,0.0,0.0,0.0,0.0,0.0,0.0,0.0,0.0,0.0,-8.5632,-8.8671,-9.0671,-9.2364,-9.3672,-9.5403,-9.548,-9.3749,-9.2595,-9.0787,0.0,0.0,0.0,0.0,0.0,0.0,0.0,0.0,0.0,0.0,0.0,0.0,0.0,0.0,0.0,0.0,0.0,0.0,0.0,0.0,0.0,0.0,0.0,0.0,0.0,0.0,0.0,0.0,-7.3144,-7.2209,-7.1268,0.0,0.0,0.0,0.0,0.0,0.0,0.0,0.0,0.0,0.0,-7.5483,-7.5338,-7.5913,0.0,0.0,-7.608,-7.6055,-7.5649,-7.4556,-7.3307,-7.1936,-7.0509,0.0,0.0,0.0,0.0,0.0,0.0,0.0,0.0,0.0,0.0,0.0,0.0,0.0,0.0,0.0,0.0,0.0,0.0,0.0,0.0,0.0,0.0,0.0,0.0,0.0,0.0,0.0,0.0,0.0,0.0,0.0,0.0,0.0,0.0,0.0,0.0,0.0,0.0,0.0,0.0,0.0,0.0,0.0,0.0,0.0,0.0,0.0,0.0,0.0,0.0,0.0,0.0,-8.5286,-8.8671,-9.0364,-9.2018,-9.3672,-9.5403,-9.548,-9.3749,-9.2941,-9.1402,0.0,0.0,0.0,0.0,0.0,0.0,0.0,0.0,0.0,0.0,0.0,0.0,0.0,0.0,0.0,0.0,0.0,0.0,0.0,0.0,0.0,0.0,0.0,0.0,0.0,0.0,0.0,0.0,-7.3713,-7.2428,-7.0899,0.0,0.0,0.0,0.0,0.0,0.0,0.0,0.0,0.0,0.0,-7.5427,-7.5338,-7.597,-7.637,-7.6084,-7.6197,-7.6214,-7.5828,-7.4475,-7.3099,-7.2052,0.0,0.0,0.0,0.0,0.0,0.0,0.0,0.0,0.0,0.0,0.0,0.0,0.0,0.0,0.0,0.0,0.0,0.0,0.0,0.0,0.0,0.0,0.0,0.0,0.0,0.0,0.0,-9.2539,0.0,0.0,-9.0,0.0,0.0,0.0,0.0,0.0,0.0,0.0,0.0,0.0,0.0,0.0,0.0,0.0,0.0,0.0,0.0,0.0,0.0,0.0,0.0,0.0,0.0,-8.5286,-8.8632,-9.0364,-9.2056,-9.3672,-9.5403,-9.548,-9.3787,-9.2941,-9.1672,-8.9902,0.0,0.0,0.0,0.0,0.0,0.0,0.0,0.0,0.0,0.0,0.0,0.0,0.0,0.0,0.0,0.0,0.0,0.0,0.0,0.0,0.0,0.0,0.0,0.0,0.0,0.0,-7.5485,-7.4107,-7.2493,0.0,0.0,0.0,0.0,0.0,0.0,0.0,0.0,0.0,-7.4205,-7.4979,-7.5465,-7.5338,-7.6044,-7.6236,-7.538,-7.5875,-7.6084,-7.5188,-7.4235,-7.33,0.0,0.0,0.0,0.0,0.0,0.0,0.0,0.0,0.0,0.0,0.0,0.0,0.0,0.0,0.0,0.0,0.0,0.0,0.0,0.0,0.0,0.0,0.0,0.0,0.0,0.0,0.0,-9.3476,-9.332,0.0,0.0,0.0,0.0,0.0,0.0,0.0,0.0,0.0,0.0,0.0,-8.8964,-8.8871,0.0,0.0,0.0,0.0,0.0,0.0,0.0,0.0,0.0,0.0,0.0,0.0,-8.6401,-8.8671,-9.0941,-9.2595,-9.371,-9.5403,-9.5749,-9.4595,-9.3749,-9.221,-8.9979,0.0,0.0,0.0,0.0,0.0,0.0,0.0,0.0,0.0,0.0,0.0,0.0,0.0,0.0,0.0,0.0,0.0,0.0,0.0,0.0,0.0,0.0,0.0,0.0,0.0,-7.5774,0.0,0.0,0.0,0.0,0.0,0.0,0.0,0.0,0.0,0.0,0.0,-7.3576,-7.4903,-7.5344,-7.5501,-7.5465,-7.5585,-7.5681,0.0,0.0,0.0,0.0,0.0,0.0,0.0,0.0,0.0,0.0,0.0,0.0,0.0,0.0,-6.8788,-6.721,-6.688,-6.688,-6.688,0.0,0.0,0.0,0.0,0.0,0.0,0.0,0.0,0.0,0.0,0.0,0.0,0.0,0.0,-9.4179,-9.375,-9.2383,0.0,0.0,0.0,0.0,0.0,0.0,0.0,0.0,-8.9668,-8.9891,-8.9774,-8.9722,-8.9556,0.0,-8.8674,-8.7381,0.0,0.0,0.0,0.0,0.0,0.0,0.0,0.0,-8.7248,-8.9517,-9.1518,-9.3056,-9.4134,-9.5557,-9.5865,-9.5018,-9.3864,-9.2364,-9.0402,-8.8479,-8.7171,0.0,0.0,0.0,0.0,0.0,0.0,0.0,0.0,0.0,0.0,0.0,0.0,0.0,0.0,0.0,0.0,0.0,0.0,0.0,0.0,0.0,0.0,0.0,-7.5625,0.0,0.0,0.0,0.0,0.0,0.0,0.0,0.0,0.0,-7.3099,-7.3341,-7.4002,-7.5327,-7.5518,-7.5518,-7.5518,0.0,0.0,0.0,0.0,0.0,0.0,0.0,-7.3935,-7.4063,-7.3154,-7.2454,-7.2674,-7.2508,-7.2462,-7.2844,0.0,0.0,-6.9743,-6.9376,-6.9339,-6.9376,-6.9376,-6.9376,-6.9339,-6.9376,-6.9596,0.0,0.0,0.0,0.0,0.0,0.0,0.0,0.0,-9.5312,-9.4844,0.0,-9.3047,0.0,0.0,0.0,0.0,-8.9996,-9.0028,0.0,0.0,-9.0018,-8.9961,-8.993,-8.9843,-8.9683,-8.9554,-8.9267,-8.9044,-8.8815,-8.6385,0.0,0.0,0.0,0.0,0.0,0.0,-8.7825,-9.1018,-9.2056,-9.3326,-9.4864,-9.5826,-9.5865,-9.498,-9.3441,-9.221,-9.1287,-9.0364,-8.9171,-8.7555,-8.6594,0.0,0.0,0.0,0.0,0.0,0.0,0.0,0.0,0.0,0.0,0.0,0.0,0.0,0.0,0.0,0.0,0.0,0.0,0.0,0.0,-7.5591,0.0,0.0,0.0,0.0,0.0,0.0,0.0,0.0,0.0,0.0,-7.3133,-7.3739,-7.4507,-7.5403,0.0,0.0,0.0,0.0,-7.5501,-7.5539,-7.5539,-7.5468,-7.5342,-7.46,-7.4258,-7.4897,0.0,0.0,-7.4898,-7.5526,-7.577,-7.5745,-7.5494,-7.4793,-7.3112,-7.2679,-7.2569,-7.2569,-7.2606,-7.2642,-7.2642,-7.2642,-7.2899,-9.98,0.0,0.0,0.0,0.0,-9.789,-9.7929,-9.7851,-9.7265,-9.6523,-9.5664,-9.4179,0.0,0.0,0.0,0.0,0.0,0.0,-9.0911,-9.0839,-9.1403,-9.1944,-9.2455,-9.2297,-9.2471,-9.2845,-9.1508,-9.0836,-9.0666,-8.8672,-8.6858,-8.5401,0.0,0.0,0.0,0.0,-8.8709,-9.0287,-9.2287,-9.3595,-9.4057,-9.5518,-9.5903,-9.5037,-9.4557,-9.3595,-9.2172,-9.1287,-9.0325,-8.921,-8.7209,0.0,0.0,0.0,0.0,0.0,0.0,0.0,0.0,0.0,0.0,0.0,0.0,0.0,0.0,0.0,0.0,0.0,0.0,0.0,-7.8306,-7.7085,-7.6071,0.0,0.0,0.0,0.0,0.0,0.0,0.0,0.0,0.0,-7.37,-7.3926,-7.4476,0.0,0.0,-7.5356,-7.5356,-7.5356,-7.5528,-7.6065,-7.6122,0.0,-7.6922,-7.6711,-7.6518,-7.6723,-7.669,-7.6742,-7.6893,-7.7281,-7.7756,-7.8258,-7.8142,-7.7917,-7.7811,-7.6293,-7.5175,-7.5102,-7.5542,-7.5879,-7.5916,-7.5946,-7.5983,-10.2961,-10.1366,-9.9531,-9.9023,-9.9492,-9.9531,-9.9531,-9.9492,-9.8984,-9.8086,-9.6914,-9.5859,-9.4765,-9.3594,-9.2734,0.0,0.0,0.0,-9.2267,-9.2221,-9.3008,-9.3414,-9.3444,-9.3325,-9.3255,-9.3217,-9.2093,-9.147,-9.139,-8.991,-8.8671,-8.7594,0.0,-8.6286,-8.7132,-8.8171,-8.9248,-9.0441,-9.2595,-9.3864,-9.421,-9.5595,-9.5903,-9.5037,-9.469,-9.3864,-9.2556,-9.1672,-9.0787,-8.9923,-8.8132,-8.6824,0.0,0.0,0.0,0.0,0.0,0.0,0.0,0.0,0.0,0.0,0.0,-8.0862,-8.0362,0.0,0.0,0.0,-7.8759,-7.8845,-7.9095,-7.7912,0.0,0.0,0.0,0.0,0.0,0.0,0.0,-7.4822,-7.5261,-7.553,-7.5399,-7.5418,-7.5436,-7.5376,-7.5301,-7.5379,-7.5703,0.0,-7.5989,-7.6808,-7.6902,-7.7093,-7.7548,-7.7789,-7.8083,-7.8598,-7.9184,-7.9427,-7.9228,-7.9381,-7.964,-7.9949,-7.99,-7.9845,-8.0147,-7.9081,-7.8045,-7.7665,-7.7965,-7.8295,-7.8295,-7.8295,-7.8295,-10.5497,-10.5231,-10.2031,-10.0703,-10.0625,-10.0547,-10.0469,-10.039,-10.0312,-9.9375,-9.7812,-9.7656,-9.6719,-9.5156,-9.4375,0.0,-9.2837,-9.3567,-9.3806,-9.3738,-9.4446,-9.4301,-9.3386,-9.327,-9.2728,-9.1934,-9.1709,-9.1544,-9.1385,-9.0552,-9.0094,-8.9979,-8.8402,-8.8017,-8.8748,-8.8786,-8.9594,-9.1171,-9.2787,-9.4018,-9.4883,-9.5749,-9.5788,-9.4903,-9.4095,-9.3287,-9.2441,-9.1633,-9.0787,-8.9863,-8.9017,-8.7863,-8.6286,0.0,0.0,0.0,0.0,0.0,0.0,0.0,0.0,0.0,0.0,0.0,0.0,0.0,0.0,0.0,-7.8614,0.0,-7.8959,-7.8292,0.0,0.0,0.0,-7.7701,-7.7701,-7.7701,-7.7701,-7.7682,0.0,0.0,-7.7662,-7.7544,-7.6954,-7.5513,-7.5361,-7.5647,-7.635,-7.6464,-7.6769,-7.7566,-7.7794,-7.785,-7.7994,-7.8554,-7.9365,-8.0349,-8.1306,-8.1658,-8.1466,-8.1537,-8.1468,-8.1326,-8.1056,-8.0922,-8.074,-8.1155,-8.1268,-8.0184,-8.001,-8.0016,-7.9979,-7.9984,-7.9984,-10.6395,-10.6247,-10.4843,-10.3867,-10.3203,-10.2578,-10.1914,-10.125,-10.0586,-9.9687,-9.8633,-9.7344,-9.6172,-9.5195,-9.5,-9.4763,-9.4517,-9.4699,-9.4392,-9.3738,-9.384,-9.3713,-9.3325,-9.324,-9.331,-9.3499,-9.3415,-9.301,-9.231,-9.2032,-9.1556,-9.0864,-8.9825,-8.9402,-8.9594,-8.9594,-9.0133,-9.121,-9.2249,-9.3172,-9.398,-9.4864,-9.4903,-9.4018,-9.3787,-9.3018,-9.1556,-9.1325,-9.0517,-8.9056,-8.8171,-8.7517,-8.7094,-8.5517,0.0,0.0,0.0,0.0,0.0,0.0,0.0,0.0,0.0,-8.1061,-8.0959,0.0,-8.0681,0.0,-7.9991,-7.9819,-7.9911,-7.9129,0.0,0.0,-7.8064,-7.7701,-7.7701,-7.7701,-7.7604,-7.7404,-7.7383,-7.732,-7.7187,-7.7143,-7.697,-7.6636,-7.6793,-7.6954,-7.71,-7.71,-7.732,-7.7965,-7.8662,-7.9282,-7.9865,-8.065,-8.1222,-8.1481,-8.2147,-8.2661,-8.2507,-8.2901,-8.3195,-8.3114,-8.2893,-8.2731,-8.2549,-8.2594,-8.2412,-8.208,-8.1887,-8.176,-8.1631,-8.1599,-8.1599,-10.7839,-10.7765,-10.6523,-10.5742,-10.5234,-10.3984,-10.2969,-10.2148,-10.164,-10.0742,-9.9453,-9.7773,-9.6562,-9.5781,-9.539,-9.4959,-9.4556,-9.4538,-9.4228,-9.3733,-9.4006,-9.3833,-9.3303,-9.3228,-9.3076,-9.2906,-9.2843,-9.2569,-9.2028,-9.192,-9.1672,-9.121,-9.071,-9.0479,-9.0479,-9.0094,-9.0133,-9.0633,-9.1864,-9.2864,-9.3672,-9.4172,-9.4018,-9.321,-9.3172,-9.2364,-9.071,-9.0633,-9.0017,-8.8748,-8.7863,-8.7401,-8.7363,-8.5824,-8.4901,0.0,0.0,0.0,0.0,0.0,0.0,0.0,0.0,0.0,0.0,0.0,-8.1834,-8.1652,-8.1479,-8.1378,-8.1237,-8.0756,-8.0448,-8.0347,-7.9967,-7.9659,-7.9616,-7.9616,-7.9573,-7.9403,-7.904,-7.8768,-7.867,-7.8345,-7.8142,-7.8142,-7.8261,-7.822,-7.7814,-7.7738,-7.7937,-7.8693,-7.95,-8.0457,-8.1517,-8.212,-8.2523,-8.2799,-8.32,-8.3475,-8.3397,-8.3682,-8.3902,-8.3784,-8.3685,-8.3546,-8.3413,-8.3231,-8.3084,-8.2904,-8.2752,-8.2565,-8.2311,-8.2247,-8.2284,-10.9395,-10.9165,-10.7654,-10.6875,-10.6562,-10.5039,-10.3867,-10.3047,-10.2812,-10.1758,-10.0039,-9.8398,-9.7304,-9.6601,-9.5742,-9.492,-9.4204,-9.4024,-9.3869,-9.3733,-9.4333,-9.4086,-9.3159,-9.3073,-9.2481,-9.1454,-9.1515,-9.1435,-9.1227,-9.1325,-9.1325,-9.121,-9.121,-9.121,-9.1171,-9.0441,-9.0038,-9.0077,-9.1672,-9.2787,-9.3364,-9.348,-9.3172,-9.2364,-9.221,-9.1402,-8.9863,-8.9633,-8.921,-8.8402,-8.7632,-8.7248,-8.7209,-8.5863,-8.5055,0.0,-8.4324,0.0,0.0,0.0,0.0,0.0,0.0,0.0,0.0,-8.341,-8.3197,-8.291,-8.2769,-8.2665,-8.2521,-8.245,-8.2354,-8.2179,-8.2179,-8.217,-8.199,-8.2028,-8.1966,-8.1966,-8.1301,-8.0849,-8.0712,-8.0208,-7.9755,-7.9581,-7.9529,-7.9227,-7.8511,-7.8322,-7.8586,-7.9378,-8.0245,-8.1304,-8.2674,-8.31,-8.3338,-8.3911,-8.4035,-8.411,-8.4073,-8.4073,-8.4046,-8.3902,-8.3822,-8.3767,-8.363,-8.3489,-8.3347,-8.3165,-8.3054,-8.2843,-8.2502,-8.2375,-8.2343,-10.9935,-10.9282,-10.894,-10.8007,-10.6601,-10.5664,-10.4765,-10.3867,-10.2461,-10.0859,-9.9179,-9.8164,-9.7617,-9.7422,-9.6601,-9.6131,-9.5884,-9.5165,-9.4427,-9.3694,-9.378,-9.3258,-9.2265,-9.2181,-9.1966,-9.1623,-9.2164,-9.2046,-9.1313,-9.1937,-9.1902,-9.121,-9.121,-9.121,-9.121,0.0,0.0,0.0,-9.1979,-9.221,-9.171,-9.2364,-9.2326,-9.1479,-9.0748,0.0,-8.8979,-8.8248,-8.7478,-8.6632,-8.644,0.0,0.0,0.0,0.0,0.0,0.0,0.0,0.0,0.0,0.0,0.0,-8.5632,-8.5022,-8.3648,-8.3323,-8.3123,-8.291,-8.2769,-8.2665,-8.2521,-8.245,-8.2354,-8.2217,-8.2217,-8.2109,-8.199,-8.2028,-8.1942,-8.1845,-8.167,-8.157,-8.1433,-8.1295,-8.0919,-8.0305,-8.0205,-7.9866,-7.904,-7.9024,-7.9123,-7.929,-8.053,-8.2009,-8.3674,-8.3862,-8.3862,-8.4073,-8.411,-8.411,-8.411,-8.411,-8.411,-8.402,-8.3902,-8.3784,-8.3757,-8.3657,-8.3518,-8.3384,-8.3318,-8.3113,-8.2534,-8.2407,-8.2343,-11.0941,-11.0491,-10.964,-10.8787,0.0,-10.6211,-10.5234,-10.4726,-10.3008,-10.125,-9.9609,-9.8711,-9.8086,-9.7617,-9.6406,-9.5818,-9.5688,-9.4428,-9.3572,-9.3114,-9.3008,-9.2662,-9.2024,-9.196,-9.1799,-9.1659,-9.1994,-9.1863,-9.1385,-9.2143,-9.2301,-9.1825,-9.2249,-9.2441,-9.2441,-9.2441,-9.2018,-9.121,-9.1633,-9.1672,-9.1248,-9.1633,-9.1672,-9.121,-9.0364,0.0,0.0,0.0,0.0,0.0,0.0,0.0,0.0,-8.6094,0.0,-8.6709,-8.6748,-8.694,-8.7325,-8.7363,-8.7363,-8.7363,-8.6978,-8.6176,-8.4823,-8.4568,-8.4422,-8.4308,-8.4111,-8.3967,-8.384,-8.3731,-8.3635,-8.345,-8.3356,-8.3284,-8.3162,-8.3063,-8.3012,-8.2924,-8.256,-8.2272,-8.2195,-8.182,-8.1294,-8.0543,-8.0355,-8.0243,-7.9792,-7.9428,-7.9415,-8.0205,-8.1332,-8.2608,-8.3772,-8.411,-8.411,-8.411,-8.411,-8.411,-8.411,-8.411,-8.411,-8.411,-8.402,-8.3929,-8.3929,-8.3822,-8.3685,-8.3602,-8.3546,-8.3347,-8.2837,-8.2684,-8.2597,-11.1982,-11.178,-11.0342,-10.9607,-10.9101,-10.6914,-10.5664,-10.5156,-10.3398,0.0,0.0,-9.9453,-9.8594,-9.7812,-9.6015,-9.5194,-9.4989,-9.3298,-9.2486,-9.2505,-9.2366,-9.2221,-9.2113,-9.2005,-9.185,-9.173,-9.1813,-9.1732,-9.1589,-9.2442,-9.2815,-9.2823,-9.3382,-9.3672,-9.3672,-9.3672,-9.3018,-9.171,-9.1518,-9.1364,-9.121,-9.121,-9.121,-9.121,-9.0364,-8.9594,-8.894,-8.8094,-8.7286,-8.6594,-8.6555,-8.6555,-8.6555,-8.6555,-8.6863,-8.7555,-8.7632,-8.794,-8.8632,-8.8671,-8.8632,-8.8479,-8.7825,-8.7022,-8.6052,-8.5887,-8.5797,-8.5724,-8.553,-8.5367,-8.5262,-8.5094,-8.4916,-8.4722,-8.4603,-8.4481,-8.4331,-8.4266,-8.4102,-8.4114,-8.3538,-8.3111,-8.3047,-8.2547,-8.177,-8.1069,-8.0956,-8.0731,-8.0543,-8.0092,-8.0205,-8.1482,-8.2308,-8.3096,-8.3847,-8.411,-8.411,-8.411,-8.411,-8.411,-8.411,-8.411,-8.411,-8.411,-8.411,-8.411,-8.4073,-8.3967,-8.3811,-8.3784,-8.3712,-8.3546,-8.3252,-8.3076,-8.2934,-11.2518,-11.1858,-11.1623,-11.0658,-10.9218,-10.8125,-10.6406,-10.4258,-10.2539,-10.164,-10.1328,-9.9687,-9.8945,-9.8711,-9.6289,-9.5195,-9.5073,-9.3387,-9.2549,-9.251,-9.2435,-9.2292,-9.2169,-9.2102,-9.1987,-9.185,-9.2426,-9.2688,-9.2674,-9.3357,-9.3735,-9.3701,-9.3725,-9.371,-9.3672,-9.3672,-9.3595,-9.3326,-9.2672,-9.1941,-9.121,-9.121,-9.121,-9.1171,-9.0364,-8.9863,-8.9748,-8.894,-8.844,-8.8325,-8.8325,-8.8325,-8.8325,-8.8286,-8.8402,-8.8517,-8.8517,-8.8556,-8.8709,-8.8671,-8.8363,-8.7671,-8.7478,-8.6983,-8.609,-8.5996,-8.587,-8.5724,-8.557,-8.5451,-8.5367,-8.516,-8.4961,-8.4802,-8.4722,-8.4603,-8.4481,-8.4431,-8.4406,-8.4406,-8.4356,-8.4193,-8.3991,-8.3916,-8.3413,-8.2672,-8.2246,-8.2158,-8.1582,-8.1332,-8.1632,-8.2383,-8.2695,-8.3171,-8.3885,-8.411,-8.411,-8.411,-8.411,-8.411,-8.411,-8.411,-8.411,-8.411,-8.411,-8.411,-8.411,-8.411,-8.3993,-8.3876,-8.3784,-8.3703,-8.3546,-8.3404,-8.321,-11.2847,-11.2509,-11.2088,-11.1162,-10.9842,-10.8086,-10.6133,-10.4179,-10.3359,-10.2461,-10.1484,-10.0234,-9.9453,-9.8828,-9.6836,-9.5624,-9.5152,-9.3897,-9.3022,-9.2561,-9.2919,-9.3075,-9.2993,-9.3318,-9.3387,-9.3345,-9.3542,-9.3625,-9.363,-9.4319,-9.4646,-9.4583,-9.4919,-9.5134,-9.5095,-9.5095,-9.4864,-9.4403,-9.3595,-9.2941,-9.2595,-9.2556,-9.2326,-9.1902,-9.1056,-9.0402,-8.9902,-8.9133,-8.8671,-8.8671,-8.8671,-8.8671,-8.8671,-8.8671,-8.8902,-8.9325,-8.9363,-8.9556,-9.0017,-9.0056,-8.9479,-8.8248,-8.8094,-8.75,-8.6159,-8.6031,-8.5961,-8.5872,-8.5742,-8.5609,-8.5451,-8.5349,-8.5186,-8.5028,-8.4886,-8.4746,-8.4637,-8.4554,-8.4481,-8.4481,-8.4481,-8.4456,-8.4444,-8.4381,-8.408,-8.3213,-8.3,-8.2849,-8.2511,-8.2874,-8.305,-8.2897,-8.3209,-8.3622,-8.4035,-8.411,-8.411,-8.411,-8.411,-8.411,-8.411,-8.411,-8.411,-8.411,-8.411,-8.411,-8.411,-8.411,-8.4046,-8.402,-8.3956,-8.3876,-8.374,-8.3602,-8.3347,-11.3022,-11.3044,-11.2437,-11.1551,-11.0427,-10.8242,-10.6328,-10.4804,-10.457,-10.3633,-10.2187,-10.1054,-10.0117,-9.914,-9.75,-9.6289,-9.5466,-9.4602,-9.3808,-9.3195,-9.372,-9.3977,-9.3957,-9.4444,-9.4649,-9.4635,-9.4601,-9.4601,-9.4607,-9.5331,-9.5615,-9.5487,-9.6014,-9.6306,-9.6288,-9.6288,-9.598,-9.5288,-9.4634,-9.4095,-9.371,-9.3672,-9.3403,-9.2787,-9.1941,-9.1171,-9.0517,-8.971,-8.9248,-8.9248,-8.9248,-8.9248,-8.9248,-8.9248,-8.9517,-9.0133,-9.021,-9.0479,-9.1133,-9.121,-9.0479,-8.8825,-8.8671,-8.794,-8.6363,-8.6065,-8.6031,-8.5996,-8.5887,-8.5779,-8.5609,-8.5531,-8.5431,-8.5266,-8.5051,-8.4916,-8.4871,-8.477,-8.4675,-8.4675,-8.4675,-8.4675,-8.4627,-8.4627,-8.4338,-8.3737,-8.351,-8.3524,-8.3575,-8.4103,-8.4042,-8.3627,-8.3775,-8.4061,-8.4136,-8.411,-8.411,-8.411,-8.411,-8.411,-8.411,-8.411,-8.411,-8.411,-8.411,-8.411,-8.411,-8.411,-8.411,-8.411,-8.4084,-8.402,-8.3849,-8.374,-8.3546,-11.3051,-11.3103,-11.2978,-11.2063,-11.0547,-10.9453,-10.8008,-10.6445,-10.5664,-10.4844,-10.375,-10.2187,-10.1015,-10.0039,-9.8359,-9.7148,-9.6328,-9.5466,-9.4953,-9.4823,-9.4913,-9.4939,-9.4862,-9.4924,-9.4782,-9.4783,-9.539,-9.5634,-9.5504,-9.6232,-9.649,-9.6313,-9.6355,-9.634,-9.6288,-9.6288,-9.6249,-9.6172,-9.6095,-9.5288,-9.3787,-9.3672,-9.3633,-9.3595,-9.2787,-9.2364,-9.2133,-9.1441,-9.0941,-9.0979,-9.0902,-9.0941,-9.0941,-9.0941,-9.0979,-9.1056,-9.1056,-9.1133,-9.121,-9.121,-9.0479,-8.8902,-8.8709,-8.7979,-8.6324,-8.6115,-8.6082,-8.6031,-8.5996,-8.5905,-8.5797,-8.5628,-8.5531,-8.5471,-8.5287,-8.5176,-8.5138,-8.5176,-8.5116,-8.5154,-8.5073,-8.5111,-8.4961,-8.4939,-8.4833,-8.4458,-8.4358,-8.4372,-8.4314,-8.4403,-8.453,-8.4305,-8.4356,-8.4229,-8.4163,-8.411,-8.4136,-8.4136,-8.411,-8.411,-8.411,-8.411,-8.411,-8.411,-8.411,-8.411,-8.411,-8.411,-8.411,-8.411,-8.411,-8.4046,-8.3876,-8.3822,-8.3712,-11.3039,-11.312,-11.3083,-11.2133,-11.0584,-10.9687,-10.832,-10.6679,-10.5859,-10.5,-10.4101,-10.289,-10.1875,-10.0937,-9.9219,-9.8008,-9.7148,-9.6287,-9.562,-9.5225,-9.5625,-9.5863,-9.5871,-9.6259,-9.6367,-9.633,-9.6564,-9.666,-9.6565,-9.6729,-9.6676,-9.6497,-9.6429,-9.634,-9.6288,-9.6288,-9.6288,-9.6288,-9.6288,-9.5942,-9.5326,-9.5249,-9.498,-9.4441,-9.3633,-9.2941,-9.2441,-9.1672,-9.121,-9.121,-9.121,-9.121,-9.121,-9.121,-9.121,-9.121,-9.121,-9.121,-9.121,-9.121,-9.0671,-8.9479,-8.8979,-8.8171,-8.7017,-8.6401,-8.6077,-8.6043,-8.6082,-8.6009,-8.5944,-8.5834,-8.576,-8.5686,-8.5511,-8.537,-8.537,-8.5329,-8.5266,-8.5241,-8.5245,-8.5245,-8.5138,-8.5116,-8.5073,-8.4984,-8.4961,-8.4939,-8.4894,-8.4825,-8.4755,-8.4722,-8.4603,-8.4481,-8.4356,-8.4292,-8.424,-8.4215,-8.4163,-8.411,-8.411,-8.411,-8.411,-8.411,-8.411,-8.411,-8.411,-8.411,-8.411,-8.411,-8.411,-8.4084,-8.3993,-8.3993,-8.394,-11.3021,-11.3056,-11.3072,-11.2285,-11.0894,-11.0039,-10.8789,-10.7344,-10.6289,-10.5469,-10.4804,-10.375,-10.2929,-10.2109,-10.0508,-9.9219,-9.8398,-9.7733,-9.7146,-9.6714,-9.7203,-9.7454,-9.7511,-9.7957,-9.824,-9.8143,-9.8053,-9.7815,-9.753,-9.7288,-9.697,-9.6619,-9.648,-9.6394,-9.6343,-9.6306,-9.6288,-9.6288,-9.6288,-9.6288,-9.6249,-9.6288,-9.6019,-9.5326,-9.4287,-9.3403,-9.2864,-9.1787,-9.121,-9.121,-9.121,-9.121,-9.121,-9.121,-9.121,-9.121,-9.121,-9.121,-9.121,-9.121,-9.0825,-8.9979,-8.9171,-8.8325,-8.7478,-8.6594,-8.6132,-8.6094,-8.6094,-8.606,-8.6048,-8.6014,-8.5923,-8.5852,-8.5704,-8.559,-8.559,-8.5473,-8.5413,-8.5391,-8.5433,-8.5413,-8.5391,-8.537,-8.537,-8.5329,-8.5287,-8.5245,-8.5224,-8.5116,-8.5006,-8.4916,-8.4825,-8.4699,-8.453,-8.4406,-8.4331,-8.4254,-8.4215,-8.4163,-8.4136,-8.411,-8.411,-8.411,-8.411,-8.411,-8.411,-8.411,-8.411,-8.411,-8.411,-8.411,-8.4084,-8.411,-8.411,-11.3009,-11.2994,-11.3083,-11.2604,-11.1753,-11.0859,-11.0,-10.8906,-10.7344,-10.6562,-10.625,-10.4844,-10.414,-10.3906,-10.2226,-10.1015,-10.0234,-10.0,-9.9843,-9.9762,-9.9917,-10.002,-10.0017,-10.0052,-9.9963,-9.9693,-9.963,-9.9171,-9.8298,-9.8179,-9.764,-9.6777,-9.6718,-9.6519,-9.6453,-9.6402,-9.6326,-9.6288,-9.6288,-9.6288,-9.6288,-9.6288,-9.6288,-9.6019,-9.4595,-9.371,-9.3441,-9.2056,-9.121,-9.121,-9.121,-9.121,-9.121,-9.121,-9.121,-9.121,-9.121,-9.121,-9.121,-9.121,-9.0864,-9.0017,-8.9248,-8.8363,-8.7594,-8.6709,-8.6209,-8.6094,-8.6094,-8.6077,-8.6077,-8.6048,-8.6014,-8.5996,-8.587,-8.5797,-8.5797,-8.5741,-8.5759,-8.5722,-8.5704,-8.5704,-8.5722,-8.5779,-8.5781,-8.5743,-8.5627,-8.5624,-8.5599,-8.5397,-8.5409,-8.5366,-8.5218,-8.4909,-8.4616,-8.4518,-8.4469,-8.4331,-8.428,-8.4203,-8.4163,-8.411,-8.411,-8.411,-8.411,-8.411,-8.411,-8.411,-8.411,-8.411,-8.411,-8.411,-8.411,-8.411,-8.411,-11.3002,-11.3051,-11.3086,-11.2641,-11.1824,-11.0975,-11.0117,-10.914,-10.7461,-10.6679,-10.6523,-10.5508,-10.5039,-10.4961,-10.3789,-10.2461,-10.1133,-10.0586,-10.0312,-10.0312,-10.0309,-10.0263,-10.0283,-10.0223,-10.0182,-10.0145,-10.0037,-9.9707,-9.925,-9.9126,-9.8873,-9.8455,-9.8218,-9.7869,-9.7318,-9.7113,-9.6826,-9.6365,-9.6288,-9.6288,-9.6288,-9.6288,-9.6288,-9.6249,-9.5172,-9.4249,-9.371,-9.2633,-9.1787,-9.121,-9.121,-9.121,-9.121,-9.121,-9.121,-9.121,-9.121,-9.121,-9.121,-9.121,-9.1095,-9.0748,-8.994,-8.9094,-8.8286,-8.744,-8.6709,-8.6247,-8.6094,-8.6094,-8.6094,-8.606,-8.6082,-8.6065,-8.6014,-8.5905,-8.5905,-8.5905,-8.5887,-8.5795,-8.5777,-8.5777,-8.6025,-8.6276,-8.6602,-8.666,-8.7006,-8.7198,-8.7138,-8.7037,-8.6896,-8.6888,-8.6736,-8.6366,-8.5705,-8.5001,-8.4616,-8.4469,-8.4394,-8.4266,-8.4163,-8.411,-8.411,-8.411,-8.411,-8.411,-8.411,-8.411,-8.411,-8.411,-8.411,-8.411,-8.411,-8.411,-8.411,-11.3048,-11.3106,-11.3083,-11.279,-11.2211,-11.1403,-11.0507,-10.9609,-10.8164,-10.7383,-10.6992,-10.625,-10.5898,-10.5742,-10.5,-10.4023,-10.2773,-10.1719,-10.1133,-10.1133,-10.1132,-10.1129,-10.116,-10.1062,-10.1071,-10.1055,-10.0898,-10.06,-10.0135,-10.0068,-9.9823,-9.9342,-9.9243,-9.8841,-9.8219,-9.7996,-9.7518,-9.6826,-9.6673,-9.6596,-9.6365,-9.6288,-9.6288,-9.6211,-9.5711,-9.4864,-9.3749,-9.2941,-9.2095,-9.1364,-9.121,-9.121,-9.121,-9.121,-9.121,-9.121,-9.121,-9.121,-9.121,-9.121,-9.121,-9.1171,-9.0402,-8.9556,-8.8748,-8.7902,-8.7017,-8.6363,-8.6094,-8.617,-8.6478,-8.6555,-8.6401,-8.6154,-8.6043,-8.6009,-8.6048,-8.6278,-8.6551,-8.6824,-8.6883,-8.6806,-8.6788,-8.7249,-8.7574,-8.7633,-8.8132,-8.8365,-8.8309,-8.8213,-8.8114,-8.7992,-8.7731,-8.7372,-8.692,-8.6282,-8.5153,-8.4832,-8.4544,-8.4381,-8.4151,-8.4136,-8.411,-8.411,-8.411,-8.411,-8.411,-8.411,-8.411,-8.411,-8.411,-8.411,-8.411,-8.411,-8.411,-11.3067,-11.31,-11.3107,-11.3095,-11.2873,-11.2102,-11.1365,-11.0508,-10.957,-10.8633,-10.7929,-10.7109,-10.6719,-10.6562,-10.5859,-10.5429,-10.5,-10.3594,-10.289,-10.2929,-10.289,-10.289,-10.2885,-10.2878,-10.278,-10.2663,-10.2595,-10.1971,-10.109,-10.0967,-10.0548,-9.9676,-9.9598,-9.942,-9.9077,-9.8934,-9.842,-9.7614,-9.7365,-9.7057,-9.6403,-9.6288,-9.6288,-9.6288,-9.6211,-9.5403,-9.3787,-9.2979,-9.2172,-9.1325,-9.121,-9.121,-9.121,-9.121,-9.121,-9.121,-9.121,-9.121,-9.121,-9.121,-9.121,-9.1133,-9.0441,-8.971,-8.8902,-8.8132,-8.7325,-8.6632,-8.6401,-8.6555,-8.7286,-8.7401,-8.7132,-8.6363,-8.6423,-8.6423,-8.6462,-8.694,-8.7709,-8.8269,-8.8385,-8.8594,-8.8632,-8.8615,-8.8637,-8.8658,-8.8777,-8.8877,-8.8879,-8.8844,-8.85,-8.8384,-8.8415,-8.8345,-8.8009,-8.7595,-8.6289,-8.5232,-8.4932,-8.4657,-8.4304,-8.4125,-8.4136,-8.4136,-8.411,-8.411,-8.411,-8.411,-8.411,-8.411,-8.411,-8.411,-8.411,-8.411,-8.411,-11.2996,-11.3033,-11.3086,-11.3086,-11.299,-11.2259,-11.1717,-11.1328,-10.9961,-10.914,-10.8789,-10.7969,-10.7617,-10.7383,-10.6719,-10.6328,-10.6211,-10.5195,-10.4687,-10.4687,-10.4687,-10.4609,-10.4606,-10.4603,-10.4316,-10.3644,-10.2946,-10.246,-10.2109,-10.1939,-10.1645,-10.1349,-10.1129,-10.065,-9.9943,-9.98,-9.9074,-9.7691,-9.7519,-9.7134,-9.6365,-9.6288,-9.6288,-9.6288,-9.6288,-9.548,-9.3826,-9.3441,-9.2633,-9.1287,-9.121,-9.121,-9.121,-9.121,-9.121,-9.121,-9.121,-9.121,-9.121,-9.121,-9.121,-9.1133,-9.0941,-9.0402,-8.9671,-8.9248,-8.8709,-8.7979,-8.7902,-8.8055,-8.8209,-8.8286,-8.8132,-8.7902,-8.7902,-8.7825,-8.7825,-8.8094,-8.8363,-8.8594,-8.8671,-8.8671,-8.8825,-8.9094,-8.9517,-8.9594,-8.9906,-9.0216,-9.0162,-9.0049,-9.0148,-8.9955,-8.9758,-8.9332,-8.8939,-8.8521,-8.7703,-8.6384,-8.5696,-8.5058,-8.4632,-8.4177,-8.4189,-8.4136,-8.411,-8.411,-8.411,-8.411,-8.411,-8.411,-8.411,-8.411,-8.411,-8.411,-8.411,-11.3014,-11.3015,-11.3067,-11.3115,-11.3068,-11.2529,-11.2184,-11.1797,-11.0742,-10.9922,-10.9297,-10.8711,-10.8281,-10.7929,-10.7422,-10.7187,-10.7109,-10.664,-10.6445,-10.6289,-10.5664,-10.5508,-10.5428,-10.5426,-10.4945,-10.4159,-10.3469,-10.2971,-10.2593,-10.246,-10.2334,-10.2215,-10.2043,-10.1634,-10.0916,-10.0757,-9.9938,-9.8652,-9.8153,-9.7596,-9.6865,-9.6442,-9.6288,-9.6288,-9.6288,-9.5557,-9.4287,-9.3864,-9.2903,-9.1556,-9.121,-9.121,-9.121,-9.121,-9.121,-9.121,-9.121,-9.121,-9.121,-9.121,-9.121,-9.121,-9.121,-9.0787,-9.0133,-8.9902,-8.9556,-8.8863,-8.8632,-8.8825,-8.9094,-8.9171,-8.9286,-8.9594,-8.8979,-8.8902,-8.9056,-8.9171,-8.9363,-8.9556,-8.971,-8.9633,-8.9787,-8.9979,-9.0364,-9.0479,-9.0825,-9.1192,-9.11,-9.1044,-9.0972,-9.0819,-9.0549,-9.0143,-8.9808,-8.9408,-8.9018,-8.7785,-8.6635,-8.5799,-8.5085,-8.4506,-8.4266,-8.4163,-8.411,-8.411,-8.411,-8.411,-8.411,-8.411,-8.411,-8.411,-8.411,-8.411,-8.411,-11.3014,-11.3015,-11.3084,-11.3099,-11.3105,-11.3029,-11.2649,-11.207,-11.1797,-11.0937,-10.9765,-10.9297,-10.8828,-10.8203,-10.7969,-10.7851,-10.7969,-10.7812,-10.7734,-10.7383,-10.6562,-10.5898,-10.5898,-10.574,-10.5181,-10.4369,-10.4077,-10.3519,-10.2677,-10.2521,-10.2421,-10.23,-10.2165,-10.2015,-10.1719,-10.1671,-10.0992,-9.9958,-9.923,-9.8442,-9.748,-9.6788,-9.6365,-9.6326,-9.6288,-9.5865,-9.4941,-9.398,-9.2826,-9.1441,-9.121,-9.121,-9.121,-9.121,-9.121,-9.121,-9.121,-9.121,-9.121,-9.121,-9.121,-9.121,-9.1171,-9.0864,-9.0248,-9.0133,-8.9902,-8.921,-8.9094,-8.9248,-8.9825,-8.9979,-9.0325,-9.0825,-8.9902,-8.944,-8.9863,-8.9979,-9.0248,-9.0825,-9.1171,-9.1133,-9.0941,-9.1018,-9.1095,-9.1095,-9.1133,-9.1154,-9.1192,-9.1175,-9.1139,-9.1009,-9.0896,-9.0664,-9.0217,-9.0033,-8.9609,-8.9018,-8.7747,-8.6639,-8.5549,-8.4796,-8.4266,-8.4163,-8.411,-8.411,-8.411,-8.411,-8.411,-8.411,-8.411,-8.411,-8.411,-8.411,-8.4335,-11.2953,-11.3009,-11.3021,-11.3047,-11.3103,-11.3108,-11.3001,-11.2773,-11.2148,-11.164,-11.0976,-10.9843,-10.9218,-10.8906,-10.8242,-10.8008,-10.8008,-10.8008,-10.8008,-10.7969,-10.7617,-10.7344,-10.7187,-10.6639,-10.5892,-10.5101,-10.4528,-10.3635,-10.2821,-10.2762,-10.2603,-10.2371,-10.2408,-10.2148,-10.1905,-10.1765,-10.1108,-10.0324,-9.9961,-9.8981,-9.775,-9.7365,-9.6865,-9.6326,-9.6326,-9.5865,-9.4941,-9.3557,-9.2364,-9.1325,-9.121,-9.121,-9.121,-9.121,-9.121,-9.121,-9.121,-9.121,-9.121,-9.121,-9.121,-9.121,-9.121,-9.1095,-9.0902,-9.0864,-9.0748,-9.0556,-9.0556,-9.0556,-9.0787,-9.0825,-9.0979,-9.1095,-9.0633,-9.0479,-9.071,-9.0864,-9.0979,-9.1171,-9.121,-9.121,-9.121,-9.121,-9.121,-9.121,-9.121,-9.121,-9.121,-9.121,-9.1175,-9.1064,-9.0972,-9.0858,-9.0663,-9.0541,-9.0279,-8.9996,-8.8859,-8.7502,-8.6201,-8.4997,-8.448,-8.4136,-8.411,-8.411,-8.411,-8.411,-8.411,-8.411,-8.411,-8.411,-8.411,-8.4148,-8.4598,-11.2392,-11.2463,-11.2814,-11.3038,-11.3105,-11.3108,-11.3157,-11.3086,-11.2695,-11.2226,-11.164,-11.0468,-10.9648,-10.9218,-10.8398,-10.8008,-10.8008,-10.8008,-10.8008,-10.8008,-10.7969,-10.7929,-10.7812,-10.7382,-10.6794,-10.5971,-10.5446,-10.4759,-10.4064,-10.3784,-10.3637,-10.3608,-10.3422,-10.3083,-10.2591,-10.2257,-10.1718,-10.0879,-10.0384,-9.9519,-9.8673,-9.8211,-9.7596,-9.698,-9.6788,-9.6288,-9.5018,-9.371,-9.2595,-9.1864,-9.1441,-9.121,-9.121,-9.121,-9.121,-9.121,-9.121,-9.121,-9.121,-9.121,-9.121,-9.121,-9.121,-9.121,-9.1171,-9.121,-9.121,-9.1133,-9.121,-9.121,-9.121,-9.121,-9.121,-9.1171,-9.121,-9.121,-9.121,-9.1171,-9.121,-9.121,-9.121,-9.121,-9.121,-9.121,-9.121,-9.121,-9.121,-9.121,-9.121,-9.121,-9.1192,-9.11,-9.1046,-9.0953,-9.0877,-9.0741,-9.0558,-9.0279,-8.9596,-8.8264,-8.6828,-8.5424,-8.4832,-8.4478,-8.4275,-8.4148,-8.4185,-8.4185,-8.411,-8.411,-8.411,-8.4298,-8.4448,-8.4598,-8.5011,-11.1534,-11.176,-11.2541,-11.2959,-11.3064,-11.3108,-11.3118,-11.3203,-11.3125,-11.2734,-11.1992,-11.1054,-11.0156,-10.9375,-10.8515,-10.8008,-10.8008,-10.8008,-10.8008,-10.8008,-10.8008,-10.8008,-10.8008,-10.7929,-10.7344,-10.6676,-10.667,-10.6029,-10.5295,-10.5107,-10.5102,-10.485,-10.4782,-10.4272,-10.3403,-10.3027,-10.2516,-10.1529,-10.0767,-10.025,-9.9769,-9.9211,-9.8519,-9.7788,-9.7403,-9.6673,-9.5403,-9.4287,-9.3441,-9.2633,-9.1748,-9.1248,-9.121,-9.121,-9.121,-9.121,-9.121,-9.121,-9.121,-9.121,-9.121,-9.121,-9.121,-9.121,-9.121,-9.121,-9.121,-9.121,-9.121,-9.121,-9.121,-9.121,-9.121,-9.121,-9.121,-9.121,-9.121,-9.121,-9.121,-9.121,-9.121,-9.121,-9.121,-9.121,-9.121,-9.121,-9.121,-9.121,-9.121,-9.121,-9.121,-9.1192,-9.11,-9.1046,-9.0991,-9.0934,-9.0721,-9.0461,-8.9816,-8.8705,-8.7344,-8.6153,-8.5448,-8.5019,-8.4903,-8.4662,-8.4448,-8.4373,-8.426,-8.4373,-8.4561,-8.4899,-8.5199,-8.5349,-8.5687,-11.1004,-11.1721,-11.1916,-11.2418,-11.3025,-11.3108,-11.3118,-11.3164,-11.3164,-11.2929,-11.2578,-11.1289,-11.0508,-11.0156,-10.8711,-10.8008,-10.8008,-10.8008,-10.8008,-10.8008,-10.8008,-10.8008,-10.8008,-10.8008,-10.7539,-10.6914,-10.6715,-10.6278,-10.5636,-10.556,-10.5308,-10.5282,-10.5262,-10.4494,-10.3691,-10.3428,-10.2605,-10.1757,-10.1305,-10.0865,-10.0308,-9.9981,-9.9404,-9.8557,-9.7865,-9.7057,-9.6095,-9.5172,-9.4326,-9.3326,-9.2133,-9.1402,-9.1248,-9.121,-9.121,-9.121,-9.121,-9.121,-9.121,-9.121,-9.121,-9.121,-9.121,-9.121,-9.121,-9.121,-9.121,-9.121,-9.121,-9.121,-9.121,-9.121,-9.121,-9.121,-9.121,-9.121,-9.121,-9.121,-9.121,-9.121,-9.121,-9.121,-9.121,-9.121,-9.121,-9.121,-9.121,-9.121,-9.121,-9.121,-9.121,-9.121,-9.1136,-9.1082,-9.1046,-9.0972,-9.0838,-9.06,-9.0018,-8.9505,-8.8146,-8.7147,-8.6555,-8.5985,-8.5579,-8.5301,-8.5049,-8.4636,-8.4561,-8.4786,-8.5124,-8.5537,-8.5939,-8.61,-8.653,-11.0013,-11.0551,-11.0941,-11.1403,-11.1892,-11.1936,-11.2181,-11.2461,-11.2148,-11.2226,-11.2187,-11.0742,-11.0,-10.9883,-10.8633,-10.8008,-10.8008,-10.8008,-10.8008,-10.8008,-10.8008,-10.8008,-10.8008,-10.8008,-10.7695,-10.7304,-10.7303,-10.6987,-10.6706,-10.6523,-10.6622,-10.643,-10.6269,-10.5804,-10.4842,-10.4446,-10.3923,-10.2967,-10.2285,-10.177,-10.1347,-10.0827,-10.025,-9.9288,-9.825,-9.725,-9.6826,-9.5595,-9.4826,-9.4095,-9.3056,-9.1941,-9.1325,-9.121,-9.121,-9.121,-9.121,-9.121,-9.121,-9.121,-9.121,-9.121,-9.121,-9.121,-9.121,-9.121,-9.121,-9.121,-9.121,-9.121,-9.121,-9.121,-9.121,-9.121,-9.121,-9.121,-9.121,-9.121,-9.121,-9.121,-9.121,-9.121,-9.121,-9.121,-9.121,-9.121,-9.121,-9.121,-9.121,-9.121,-9.121,-9.121,-9.121,-9.1175,-9.1121,-9.1009,-9.0877,-9.0641,-9.0334,-8.9984,-8.9322,-8.8518,-8.7787,-8.7092,-8.6358,-8.6052,-8.58,-8.5349,-8.5162,-8.5575,-8.6025,-8.639,-8.6782,-8.711,-8.7679,-10.8844,-10.9264,-10.9933,-11.0349,-11.0567,-11.0647,-11.1087,-11.1523,-11.0937,-11.1172,-11.1289,-10.9961,-10.9414,-10.9101,-10.8437,-10.8047,-10.8008,-10.8008,-10.8008,-10.8008,-10.8008,-10.8008,-10.8008,-10.8008,-10.7969,-10.8008,-10.7928,-10.7849,-10.7842,-10.7937,-10.7586,-10.7716,-10.7691,-10.6858,-10.6209,-10.5849,-10.5101,-10.4073,-10.3303,-10.2886,-10.2597,-10.1924,-10.1058,-9.9865,-9.8942,-9.7865,-9.7288,-9.6249,-9.5326,-9.498,-9.4287,-9.3133,-9.2018,-9.1402,-9.1287,-9.1248,-9.121,-9.121,-9.121,-9.121,-9.121,-9.121,-9.121,-9.121,-9.121,-9.121,-9.121,-9.121,-9.121,-9.121,-9.121,-9.121,-9.121,-9.121,-9.121,-9.121,-9.121,-9.121,-9.121,-9.121,-9.121,-9.121,-9.121,-9.121,-9.121,-9.121,-9.121,-9.121,-9.121,-9.121,-9.121,-9.121,-9.121,-9.121,-9.1157,-9.1046,-9.0915,-9.0759,-9.0496,-9.0285,-9.0068,-8.9422,-8.8583,-8.7747,-8.7125,-8.6895,-8.6588,-8.6213,-8.6213,-8.6551,-8.6868,-8.7222,-8.7652,-8.8119,-8.8726,-10.7761,-10.9231,-10.9332,-10.9859,-11.0528,-11.0569,-11.0618,-11.0781,-11.0586,-11.0664,-11.0625,-10.9726,-10.9218,-10.9023,-10.8398,-10.8008,-10.8008,-10.8008,-10.8008,-10.8008,-10.8008,-10.8008,-10.8008,-10.8008,-10.8008,-10.8008,-10.8007,-10.8007,-10.8003,-10.7991,-10.7964,-10.7881,-10.7795,-10.7252,-10.6554,-10.6032,-10.5609,-10.4813,-10.4164,-10.3847,-10.356,-10.2751,-10.1673,-10.0442,-9.9712,-9.8865,-9.7827,-9.725,-9.6442,-9.5172,-9.4883,-9.4249,-9.3364,-9.2672,-9.2056,-9.1479,-9.1325,-9.1364,-9.121,-9.121,-9.121,-9.121,-9.121,-9.121,-9.121,-9.121,-9.121,-9.121,-9.121,-9.121,-9.121,-9.121,-9.121,-9.121,-9.121,-9.121,-9.121,-9.121,-9.121,-9.121,-9.121,-9.121,-9.121,-9.121,-9.121,-9.121,-9.121,-9.121,-9.121,-9.121,-9.121,-9.121,-9.121,-9.121,-9.1192,-9.1064,-9.0972,-9.0838,-9.0638,-9.0389,-9.0174,-8.9935,-8.9288,-8.8557,-8.8022,-8.7749,-8.7431,-8.7131,-8.7206,-8.7561,-8.7776,-8.8017,-8.8651,-8.922,-8.9676,-10.6942,-10.7866,-10.8339,-10.8816,-10.92,-10.9247,-10.9528,-10.9804,-10.9453,-10.9492,-10.957,-10.9023,-10.8633,-10.8515,-10.8242,-10.8008,-10.8008,-10.8008,-10.8008,-10.8008,-10.8008,-10.8008,-10.8008,-10.8008,-10.8008,-10.8008,-10.8008,-10.8008,-10.8006,-10.7998,-10.7982,-10.795,-10.7833,-10.7519,-10.7082,-10.6806,-10.6353,-10.5721,-10.516,-10.4751,-10.4523,-10.3387,-10.2097,-10.152,-10.0519,-9.9673,-9.8981,-9.7788,-9.7173,-9.6403,-9.5903,-9.5211,-9.4557,-9.3941,-9.321,-9.2172,-9.1864,-9.1633,-9.1325,-9.121,-9.121,-9.121,-9.121,-9.121,-9.121,-9.121,-9.121,-9.121,-9.121,-9.121,-9.121,-9.121,-9.121,-9.121,-9.121,-9.121,-9.121,-9.121,-9.121,-9.121,-9.121,-9.121,-9.121,-9.121,-9.121,-9.121,-9.121,-9.121,-9.121,-9.121,-9.121,-9.121,-9.121,-9.121,-9.1192,-9.11,-9.1009,-9.0896,-9.0739,-9.0496,-9.0301,-9.0075,-8.9863,-8.944,-8.9022,-8.8576,-8.8533,-8.8398,-8.8447,-8.8496,-8.8726,-8.9032,-8.9714,-9.032,-9.0764,-10.6326,-10.6695,-10.7539,-10.7967,-10.7991,-10.8001,-10.8436,-10.8789,-10.8359,-10.8476,-10.8867,-10.8398,-10.8047,-10.8008,-10.8008,-10.8008,-10.8008,-10.8008,-10.8008,-10.8008,-10.8008,-10.8008,-10.8008,-10.8008,-10.8008,-10.8008,-10.8008,-10.8008,-10.8008,-10.8002,-10.8028,-10.7964,-10.785,-10.7791,-10.7615,-10.7327,-10.7288,-10.6882,-10.6271,-10.5654,-10.4966,-10.3772,-10.2751,-10.252,-10.1135,-10.025,-9.9788,-9.8865,-9.8096,-9.7557,-9.698,-9.6249,-9.5634,-9.5365,-9.4557,-9.3287,-9.2864,-9.2364,-9.1979,-9.1518,-9.1595,-9.1633,-9.1325,-9.121,-9.121,-9.121,-9.121,-9.121,-9.121,-9.121,-9.121,-9.121,-9.121,-9.121,-9.121,-9.121,-9.121,-9.121,-9.121,-9.121,-9.121,-9.1248,-9.1325,-9.121,-9.121,-9.121,-9.121,-9.121,-9.121,-9.121,-9.121,-9.121,-9.121,-9.121,-9.1192,-9.1118,-9.1046,-9.0953,-9.0819,-9.06,-9.041,-9.0212,-9.009,-9.0063,-8.9752,-8.9377,-8.9503,-8.9499,-8.9307,-8.9307,-8.96,-9.0094,-9.0839,-9.137,-9.1784,-10.5764,-10.6656,-10.7594,-10.8018,-10.7952,-10.7962,-10.8045,-10.8164,-10.8047,-10.8047,-10.8281,-10.8086,-10.8008,-10.8008,-10.8008,-10.8008,-10.8008,-10.8008,-10.8008,-10.8008,-10.8008,-10.8008,-10.8008,-10.8008,-10.8008,-10.8047,-10.8086,-10.8008,-10.8086,-10.8083,-10.8037,-10.806,-10.7985,-10.785,-10.7769,-10.7578,-10.741,-10.7209,-10.6859,-10.6245,-10.5332,-10.4272,-10.3443,-10.2597,-10.1712,-10.0866,-10.0327,-9.9673,-9.9288,-9.8596,-9.7827,-9.7365,-9.7096,-9.6519,-9.5711,-9.4788,-9.4057,-9.348,-9.321,-9.2672,-9.2326,-9.221,-9.1825,-9.1325,-9.1441,-9.1479,-9.1479,-9.121,-9.1287,-9.1441,-9.1518,-9.1364,-9.1248,-9.1402,-9.1595,-9.1479,-9.1402,-9.1902,-9.1825,-9.171,-9.1902,-9.1633,-9.1518,-9.1325,-9.121,-9.121,-9.121,-9.121,-9.1287,-9.1364,-9.171,-9.1825,-9.1902,-9.1864,-9.1902,-9.1751,-9.162,-9.1375,-9.128,-9.1142,-9.1114,-9.1081,-9.0667,-9.0532,-9.0365,-9.0276,-9.0271,-9.0234,-9.003,-9.0271,-9.0726,-9.1307,-9.1963,-9.2402,-9.2831,-10.4694,-10.5258,-10.6672,-10.7284,-10.7329,-10.777,-10.8007,-10.8008,-10.8008,-10.8008,-10.8008,-10.8008,-10.8008,-10.8008,-10.8008,-10.8008,-10.8008,-10.8008,-10.8008,-10.8008,-10.8008,-10.8008,-10.8008,-10.8008,-10.8008,-10.8125,-10.8476,-10.8828,-10.8633,-10.8318,-10.8195,-10.8614,-10.8195,-10.7861,-10.7774,-10.7597,-10.7433,-10.7209,-10.6928,-10.6501,-10.5852,-10.5042,-10.4174,-10.3366,-10.2481,-10.1635,-10.0904,-10.025,-10.0,-9.9404,-9.8711,-9.825,-9.8173,-9.7865,-9.7326,-9.6519,-9.6134,-9.5211,-9.3903,-9.3441,-9.3249,-9.3133,-9.2826,-9.271,-9.2633,-9.2556,-9.2556,-9.2633,-9.2633,-9.2556,-9.2556,-9.2633,-9.2633,-9.2595,-9.2364,-9.2441,-9.2441,-9.2595,-9.2787,-9.2672,-9.2518,-9.2364,-9.2095,-9.1748,-9.1633,-9.1556,-9.1518,-9.1441,-9.1595,-9.1787,-9.2249,-9.2826,-9.2826,-9.2826,-9.2864,-9.2846,-9.281,-9.266,-9.2622,-9.2507,-9.239,-9.2192,-9.1722,-9.1756,-9.2002,-9.1804,-9.1335,-9.1101,-9.1014,-9.1443,-9.1909,-9.2565,-9.3169,-9.3549,-9.402,-10.3433,-10.3864,-10.5628,-10.6509,-10.6745,-10.7421,-10.7812,-10.8008,-10.8008,-10.8008,-10.8008,-10.8008,-10.8008,-10.8008,-10.8008,-10.8008,-10.8008,-10.8008,-10.8008,-10.8008,-10.8008,-10.8008,-10.8008,-10.8008,-10.8008,-10.8047,-10.8828,-10.9336,-10.9414,-10.9139,-10.9057,-10.928,-10.8325,-10.7959,-10.7788,-10.7672,-10.7477,-10.7234,-10.6868,-10.6639,-10.6334,-10.5562,-10.4848,-10.4135,-10.3366,-10.252,-10.1673,-10.1173,-10.0789,-10.025,-9.9596,-9.9135,-9.9058,-9.8711,-9.8365,-9.7788,-9.7596,-9.698,-9.5595,-9.4711,-9.4172,-9.3941,-9.371,-9.3441,-9.3518,-9.3672,-9.3672,-9.348,-9.3518,-9.3557,-9.3672,-9.3595,-9.348,-9.3441,-9.348,-9.3633,-9.371,-9.3595,-9.3441,-9.321,-9.3172,-9.3364,-9.2979,-9.2402,-9.2095,-9.1941,-9.1825,-9.1787,-9.2056,-9.2441,-9.2826,-9.3441,-9.3403,-9.3403,-9.3441,-9.3577,-9.3656,-9.3791,-9.3754,-9.3582,-9.3313,-9.312,-9.2848,-9.3078,-9.3384,-9.3242,-9.2777,-9.2382,-9.2078,-9.2588,-9.3121,-9.38,-9.4372,-9.4796,-9.5385,-10.2103,-10.3031,-10.4732,-10.5921,-10.6626,-10.6757,-10.7265,-10.789,-10.7969,-10.8008,-10.8008,-10.8008,-10.8008,-10.8008,-10.8008,-10.8008,-10.8008,-10.8008,-10.8008,-10.8008,-10.8008,-10.8008,-10.8008,-10.8008,-10.8047,-10.8164,-10.9023,-10.9843,-11.0312,-11.0312,-10.9883,-10.9321,-10.8648,-10.8141,-10.786,-10.7689,-10.7455,-10.7206,-10.689,-10.6735,-10.641,-10.5813,-10.5156,-10.4828,-10.4174,-10.3405,-10.2597,-10.2251,-10.1866,-10.125,-10.0442,-10.0019,-9.9904,-9.9481,-9.9096,-9.8788,-9.8711,-9.8288,-9.748,-9.6172,-9.5134,-9.4749,-9.4403,-9.4057,-9.4172,-9.3864,-9.3749,-9.398,-9.421,-9.4057,-9.3941,-9.3749,-9.4134,-9.421,-9.4364,-9.4364,-9.4326,-9.4172,-9.4018,-9.3787,-9.3903,-9.4249,-9.448,-9.4018,-9.3133,-9.2941,-9.2826,-9.2787,-9.3172,-9.3518,-9.3633,-9.3903,-9.3864,-9.3864,-9.3826,-9.4,-9.4366,-9.4463,-9.4406,-9.4195,-9.387,-9.3812,-9.4062,-9.3965,-9.4176,-9.4213,-9.4306,-9.4046,-9.3895,-9.3921,-9.4341,-9.5178,-9.6014,-9.6678,-9.7242,-10.1947,-10.2875,-10.3561,-10.4359,-10.5181,-10.6249,-10.6875,-10.7265,-10.7773,-10.8008,-10.8008,-10.8008,-10.8008,-10.8008,-10.8008,-10.8008,-10.8008,-10.8008,-10.8008,-10.8008,-10.8008,-10.8008,-10.8008,-10.8008,-10.8008,-10.8359,-10.9336,-11.0195,-11.0547,-11.1133,-11.082,-11.0067,-10.9202,-10.8457,-10.81,-10.7654,-10.7413,-10.7206,-10.694,-10.6751,-10.6621,-10.6295,-10.5716,-10.5059,-10.4905,-10.4212,-10.3443,-10.2866,-10.2481,-10.202,-10.1289,-10.1058,-10.0904,-10.0481,-10.0096,-9.9712,-9.9635,-9.9365,-9.8942,-9.7827,-9.7173,-9.6403,-9.5826,-9.5288,-9.5288,-9.5288,-9.5288,-9.5326,-9.5249,-9.5172,-9.5288,-9.5326,-9.5441,-9.5326,-9.5211,-9.5134,-9.5172,-9.5095,-9.5288,-9.5326,-9.5326,-9.548,-9.5711,-9.5826,-9.4826,-9.398,-9.3864,-9.3941,-9.448,-9.4826,-9.5018,-9.5211,-9.5249,-9.5288,-9.5288,-9.5288,-9.5288,-9.5269,-9.5251,-9.5232,-9.5252,-9.5309,-9.5464,-9.5214,-9.5157,-9.5464,-9.5635,-9.567,-9.5588,-9.5292,-9.581,-9.6601,-9.7531,-9.838,-9.8748,-10.1333,-10.239,-10.2473,-10.3148,-10.4206,-10.5428,-10.625,-10.6758,-10.7304,-10.7812,-10.8008,-10.8008,-10.8008,-10.8008,-10.8008,-10.8008,-10.8008,-10.8008,-10.8008,-10.8008,-10.8008,-10.8008,-10.8086,-10.8281,-10.8554,-10.8828,-11.0039,-11.1054,-11.1133,-11.1875,-11.1445,-11.0656,-10.9983,-10.9125,-10.8042,-10.7588,-10.7378,-10.7217,-10.6966,-10.6804,-10.6696,-10.6507,-10.6275,-10.5618,-10.552,-10.5059,-10.4405,-10.3789,-10.3366,-10.2943,-10.2481,-10.2174,-10.202,-10.1789,-10.1404,-10.0981,-10.0519,-10.0135,-9.9673,-9.8942,-9.8557,-9.775,-9.7403,-9.7096,-9.7019,-9.7019,-9.7057,-9.698,-9.6865,-9.6673,-9.6634,-9.6326,-9.6057,-9.5865,-9.5865,-9.5865,-9.6288,-9.6403,-9.6749,-9.698,-9.698,-9.7019,-9.7096,-9.7288,-9.6942,-9.6211,-9.6249,-9.6249,-9.6403,-9.6673,-9.6673,-9.6865,-9.7019,-9.7057,-9.7057,-9.6942,-9.6903,-9.7019,-9.7,-9.7,-9.7038,-9.698,-9.698,-9.6981,-9.6962,-9.6962,-9.7039,-9.7173,-9.6845,-9.6459,-9.7247,-9.815,-9.8689,-9.946,-9.9672,-10.0026,-10.1527,-10.166,-10.2601,-10.3894,-10.4217,-10.5156,-10.6367,-10.6758,-10.7265,-10.7969,-10.8008,-10.8008,-10.8008,-10.8008,-10.8008,-10.8008,-10.8008,-10.8008,-10.8008,-10.8008,-10.8008,-10.8359,-10.8711,-10.9101,-10.9687,-11.0742,-11.164,-11.1758,-11.2539,-11.1992,-11.0854,-11.0022,-10.9285,-10.8009,-10.7646,-10.7452,-10.73,-10.7045,-10.689,-10.6696,-10.6584,-10.6391,-10.6233,-10.6136,-10.5674,-10.5213,-10.4751,-10.4289,-10.3828,-10.3558,-10.3366,-10.3366,-10.2828,-10.252,-10.2404,-10.175,-10.1366,-10.1173,-9.975,-9.9135,-9.8788,-9.8404,-9.8288,-9.8519,-9.8596,-9.8404,-9.8057,-9.7865,-9.7557,-9.725,-9.6903,-9.6711,-9.6673,-9.6749,-9.6865,-9.7288,-9.7519,-9.775,-9.7904,-9.8365,-9.8673,-9.8711,-9.8711,-9.875,-9.8596,-9.8673,-9.8557,-9.825,-9.8057,-9.7865,-9.7904,-9.8019,-9.8019,-9.798,-9.8365,-9.8481,-9.8634,-9.8481,-9.8211,-9.8173,-9.8096,-9.8211,-9.8519,-9.8327,-9.7923,-9.8269,-9.8692,-9.8404,-9.823,-9.8904,-9.9673,-10.0154,-10.0385,-10.0462,-9.9597,-10.0788,-10.1347,-10.1902,-10.2611,-10.3711,-10.457,-10.5195,-10.6172,-10.7187,-10.7851,-10.8008,-10.8008,-10.8008,-10.8008,-10.8008,-10.8008,-10.8008,-10.8008,-10.8047,-10.8086,-10.8437,-10.8828,-10.9297,-10.9687,-11.0351,-11.1367,-11.1992,-11.1875,-11.2773,-11.2109,-11.0894,-10.9544,-10.851,-10.793,-10.7637,-10.744,-10.7313,-10.7129,-10.694,-10.6714,-10.6641,-10.6546,-10.6405,-10.6405,-10.6213,-10.5867,-10.5482,-10.502,-10.4674,-10.4405,-10.4097,-10.4059,-10.3558,-10.3482,-10.3443,-10.302,-10.3058,-10.2789,-10.1943,-10.0789,-10.0058,-9.925,-9.9019,-9.8827,-9.8788,-9.8788,-9.8827,-9.8634,-9.8404,-9.825,-9.8173,-9.8057,-9.8096,-9.8134,-9.8134,-9.8365,-9.8365,-9.8481,-9.8481,-9.8788,-9.9327,-9.9519,-9.9635,-9.9712,-9.9673,-9.9596,-9.9173,-9.8827,-9.8673,-9.8519,-9.8481,-9.8557,-9.8673,-9.8827,-9.9173,-9.925,-9.9173,-9.8942,-9.8634,-9.8711,-9.9058,-9.8981,-9.9019,-9.8904,-9.8788,-9.9135,-9.9481,-9.9885,-10.0154,-10.0327,-10.0481,-10.075,-10.0885,-10.1,-9.8982,-9.9895,-10.0449,-10.1085,-10.1756,-10.3164,-10.3906,-10.4453,-10.5937,-10.7031,-10.75,-10.7812,-10.8008,-10.8008,-10.8008,-10.8008,-10.8008,-10.8008,-10.8359,-10.8398,-10.8476,-10.9023,-10.957,-11.0039,-11.0664,-11.1211,-11.1836,-11.2383,-11.2461,-11.2929,-11.2187,-11.0576,-10.8833,-10.8198,-10.782,-10.7675,-10.751,-10.7366,-10.7202,-10.6989,-10.6786,-10.6641,-10.6603,-10.6466,-10.6405,-10.6367,-10.6213,-10.5905,-10.552,-10.5366,-10.5097,-10.4713,-10.4674,-10.4482,-10.4366,-10.4289,-10.3982,-10.3905,-10.3558,-10.3405,-10.2327,-10.1673,-10.0366,-9.975,-9.9673,-9.9827,-9.9827,-9.975,-9.9404,-9.9288,-9.925,-9.9211,-9.8942,-9.8904,-9.8904,-9.8865,-9.9211,-9.925,-9.9442,-9.9404,-9.9558,-10.0019,-10.0289,-10.0481,-10.0596,-10.0519,-10.0404,-9.9904,-9.9519,-9.9481,-9.9404,-9.9442,-9.9558,-9.975,-9.9865,-9.9981,-9.9942,-9.9712,-9.9558,-9.9404,-9.975,-10.0135,-9.9827,-9.9635,-9.9827,-9.9942,-9.9942,-10.0212,-10.05,-10.0692,-10.0789,-10.0981,-10.125,-10.1289,-10.1289,-9.8092,-9.8889,-9.8969,-9.9994,-10.1484,-10.2422,-10.3359,-10.4336,-10.5937,-10.664,-10.6797,-10.7656,-10.8008,-10.8008,-10.8008,-10.8008,-10.8008,-10.8008,-10.8515,-10.8984,-10.9062,-10.9765,-11.0586,-11.1289,-11.1601,-11.2109,-11.2578,-11.289,-11.3125,-11.2656,-11.1797,-11.0573,-10.8841,-10.8168,-10.7853,-10.7736,-10.7586,-10.7416,-10.7245,-10.7005,-10.6768,-10.6678,-10.6603,-10.6466,-10.6405,-10.6405,-10.6328,-10.6251,-10.6213,-10.6213,-10.6213,-10.6251,-10.6059,-10.5559,-10.529,-10.4943,-10.4443,-10.4328,-10.4251,-10.4174,-10.3905,-10.3289,-10.2212,-10.1597,-10.1212,-10.1096,-10.0981,-10.0712,-10.0404,-10.0212,-10.0096,-9.9673,-9.9211,-9.9211,-9.9211,-9.9481,-9.9981,-10.025,-10.0519,-10.0635,-10.0827,-10.1058,-10.0981,-10.1096,-10.1173,-10.0981,-10.0904,-10.0827,-10.0558,-10.0635,-10.0596,-10.0673,-10.0789,-10.1019,-10.1019,-10.0712,-10.0673,-10.0442,-10.0673,-10.0673,-10.0981,-10.0981,-10.0673,-10.0596,-10.1019,-10.1096,-10.0712,-10.0789,-10.1096,-10.1212,-10.125,-10.125,-10.1443,-10.1327,-10.1289,-9.6933,-9.7251,-9.85,-9.9291,-9.9922,-10.1367,-10.2812,-10.4258,-10.539,-10.6133,-10.6758,-10.7617,-10.7929,-10.8008,-10.8008,-10.8008,-10.8008,-10.8125,-10.8593,-10.9023,-10.9414,-11.0312,-11.1133,-11.1836,-11.2265,-11.2695,-11.3047,-11.3164,-11.2851,-11.2265,-11.1406,-11.0415,-10.8846,-10.8184,-10.7872,-10.7776,-10.7588,-10.744,-10.7273,-10.7021,-10.6786,-10.6678,-10.6584,-10.6466,-10.6405,-10.6405,-10.6405,-10.6405,-10.6405,-10.6405,-10.6405,-10.6405,-10.6328,-10.6174,-10.602,-10.602,-10.579,-10.5713,-10.5559,-10.5097,-10.4751,-10.4636,-10.3712,-10.2904,-10.2481,-10.2174,-10.1981,-10.152,-10.1096,-10.0827,-10.0712,-10.0404,-10.0135,-10.0135,-10.0135,-10.0327,-10.0712,-10.0789,-10.1058,-10.1366,-10.1558,-10.175,-10.1712,-10.1635,-10.1635,-10.1443,-10.1366,-10.1481,-10.1404,-10.1404,-10.1289,-10.1289,-10.1289,-10.1289,-10.1289,-10.1058,-10.1173,-10.1212,-10.1289,-10.1289,-10.1212,-10.1173,-10.125,-10.1289,-10.1289,-10.1289,-10.1212,-10.1366,-10.1597,-10.1673,-10.1712,-10.1635,-10.1558,-10.1673,-10.1597,-9.6084,-9.6546,-9.7527,-9.8355,-9.9219,-10.0859,-10.2265,-10.3281,-10.4453,-10.5469,-10.6289,-10.7109,-10.7656,-10.8008,-10.8008,-10.8008,-10.8008,-10.8047,-10.8476,-10.9179,-10.9609,-11.0664,-11.1562,-11.2265,-11.2695,-11.3086,-11.3203,-11.3164,-11.2734,-11.1601,-11.0623,-11.0454,-10.885,-10.8149,-10.7877,-10.7776,-10.7598,-10.7425,-10.722,-10.7021,-10.6821,-10.6678,-10.6584,-10.6446,-10.6405,-10.6405,-10.6405,-10.6405,-10.6405,-10.6405,-10.6405,-10.6405,-10.6405,-10.6405,-10.6367,-10.6328,-10.629,-10.6213,-10.6136,-10.5905,-10.5674,-10.5482,-10.5097,-10.452,-10.3597,-10.302,-10.2481,-10.1981,-10.1558,-10.125,-10.1289,-10.1289,-10.125,-10.1212,-10.125,-10.125,-10.125,-10.125,-10.152,-10.1827,-10.2097,-10.2366,-10.2404,-10.2289,-10.2366,-10.2558,-10.2635,-10.2674,-10.2251,-10.1712,-10.1481,-10.1289,-10.1289,-10.1289,-10.1366,-10.152,-10.152,-10.1481,-10.1289,-10.1289,-10.1327,-10.1366,-10.1443,-10.1366,-10.1289,-10.1481,-10.1827,-10.1904,-10.2058,-10.2212,-10.252,-10.2674,-10.2751,-10.2751,-10.252,-9.5469,-9.6157,-9.636,-9.742,-9.9023,-10.0586,-10.1445,-10.1758,-10.3281,-10.4609,-10.5547,-10.6367,-10.7265,-10.789,-10.8008,-10.8008,-10.8008,-10.8047,-10.8476,-10.9336,-11.0078,-11.0976,-11.1875,-11.2695,-11.3008,-11.3125,-11.3164,-11.3086,-11.2578,-11.1523,-11.0543,-11.0415,-10.8846,-10.795,-10.7905,-10.7776,-10.7598,-10.7401,-10.7259,-10.7053,-10.6804,-10.6698,-10.6623,-10.6466,-10.6405,-10.6405,-10.6405,-10.6405,-10.6405,-10.6405,-10.6405,-10.6405,-10.6405,-10.6405,-10.6405,-10.6405,-10.6405,-10.6405,-10.6405,-10.6251,-10.629,-10.629,-10.6328,-10.5751,-10.4828,-10.3905,-10.3328,-10.2443,-10.1981,-10.1789,-10.175,-10.1789,-10.1827,-10.2058,-10.2212,-10.2212,-10.2212,-10.2251,-10.2366,-10.2674,-10.2943,-10.3174,-10.3212,-10.3135,-10.3058,-10.352,-10.3635,-10.3558,-10.3289,-10.2481,-10.2212,-10.1866,-10.1981,-10.2135,-10.2097,-10.2174,-10.1904,-10.175,-10.1712,-10.1827,-10.2251,-10.202,-10.1597,-10.1904,-10.2251,-10.2327,-10.252,-10.2635,-10.2866,-10.3251,-10.3558,-10.3866,-10.3943,-10.3905,-10.3482,-9.4259,-9.4636,-9.5893,-9.7025,-9.8079,-9.9176,-10.0427,-10.1599,-10.1992,-10.3476,-10.5351,-10.6328,-10.7148,-10.7812,-10.7969,-10.8008,-10.8008,-10.8047,-10.8554,-10.9297,-11.0156,-11.0937,-11.1914,-11.2695,-11.3125,-11.3203,-11.3125,-11.289,-11.2187,-11.121,-11.0229,-10.9592,-10.8406,-10.7929,-10.7892,-10.7761,-10.7617,-10.7416,-10.7273,-10.7084,-10.6856,-10.6714,-10.6603,-10.6487,-10.6427,-10.6405,-10.6405,-10.6405,-10.6405,-10.6405,-10.6405,-10.6405,-10.6405,-10.6405,-10.6405,-10.6405,-10.6405,-10.6405,-10.6405,-10.6405,-10.6405,-10.6405,-10.6367,-10.629,-10.5828,-10.4982,-10.4059,-10.3135,-10.2481,-10.2366,-10.2289,-10.2366,-10.2481,-10.2828,-10.3097,-10.3135,-10.3135,-10.3251,-10.3289,-10.3558,-10.3828,-10.3982,-10.402,-10.3982,-10.3905,-10.3866,-10.3828,-10.3828,-10.3982,-10.3597,-10.3635,-10.3405,-10.3289,-10.3328,-10.3097,-10.2904,-10.2712,-10.2828,-10.2943,-10.3058,-10.3174,-10.2904,-10.2674,-10.3135,-10.3443,-10.3328,-10.3328,-10.352,-10.3789,-10.4251,-10.452,-10.4789,-10.502,-10.5059,-10.452,-9.352,-9.4042,-9.5692,-9.667,-9.7291,-9.8466,-9.9799,-10.0933,-10.1405,-10.2851,-10.4844,-10.5781,-10.664,-10.7461,-10.7773,-10.8008,-10.8008,-10.8008,-10.8242,-10.8906,-10.9961,-11.0703,-11.164,-11.25,-11.3047,-11.3203,-11.3125,-11.2773,-11.1758,-11.1014,-11.0189,-10.9278,-10.839,-10.7871,-10.7834,-10.7728,-10.7597,-10.7416,-10.7273,-10.7075,-10.6868,-10.6786,-10.6641,-10.6526,-10.6427,-10.6405,-10.6405,-10.6405,-10.6405,-10.6405,-10.6405,-10.6405,-10.6405,-10.6405,-10.6405,-10.6405,-10.6405,-10.6405,-10.6405,-10.6405,-10.6405,-10.6405,-10.6405,-10.6328,-10.6328,-10.5559,-10.5136,-10.4212,-10.3405,-10.3174,-10.3174,-10.3212,-10.3251,-10.3482,-10.3558,-10.3558,-10.3789,-10.402,-10.4174,-10.4405,-10.4789,-10.529,-10.5328,-10.5328,-10.5251,-10.5251,-10.5059,-10.4905,-10.4905,-10.4674,-10.4751,-10.4713,-10.4482,-10.4059,-10.3597,-10.3558,-10.3558,-10.3789,-10.4097,-10.3828,-10.3674,-10.3751,-10.3866,-10.402,-10.4097,-10.4059,-10.4135,-10.4366,-10.4828,-10.529,-10.552,-10.5674,-10.5905,-10.5982,-10.552,-9.3012,-9.3835,-9.5487,-9.6231,-9.6505,-9.8069,-9.9401,-10.0344,-10.1089,-10.2381,-10.4023,-10.4961,-10.582,-10.6758,-10.7578,-10.7851,-10.8008,-10.8008,-10.8086,-10.8476,-10.9648,-11.0156,-11.0898,-11.1875,-11.2304,-11.2539,-11.2539,-11.1992,-11.1211,-11.0544,-10.9832,-10.9119,-10.8461,-10.7855,-10.7767,-10.7711,-10.7586,-10.7428,-10.7286,-10.7174,-10.7005,-10.6839,-10.6678,-10.6546,-10.6427,-10.6405,-10.6405,-10.6405,-10.6405,-10.6405,-10.6405,-10.6405,-10.6405,-10.6405,-10.6405,-10.6405,-10.6405,-10.6405,-10.6405,-10.6405,-10.6405,-10.6405,-10.6405,-10.6405,-10.6405,-10.6213,-10.579,-10.5328,-10.4482,-10.4059,-10.4059,-10.4059,-10.4097,-10.4289,-10.4289,-10.4251,-10.4559,-10.4828,-10.502,-10.5251,-10.5674,-10.6213,-10.629,-10.629,-10.6328,-10.6367,-10.6405,-10.6405,-10.6251,-10.5828,-10.5636,-10.552,-10.5251,-10.4789,-10.4405,-10.4366,-10.4559,-10.4713,-10.4905,-10.4482,-10.4328,-10.4674,-10.4789,-10.4559,-10.4636,-10.4828,-10.502,-10.5251,-10.5751,-10.6097,-10.6097,-10.6059,-10.6136,-10.6213,-10.629,-9.2606,-9.288,-9.4613,-9.5355,-9.5619,-9.7232,-9.8838,-10.0174,-10.046,-10.152,-10.3045,-10.414,-10.5195,-10.6758,-10.7617,-10.8008,-10.8008,-10.8008,-10.8008,-10.8281,-10.9218,-10.9492,-11.0,-11.0976,-11.1093,-11.1289,-11.1289,-11.0664,-11.039,-10.9877,-10.9122,-10.8328,-10.8188,-10.7847,-10.773,-10.7665,-10.7554,-10.7416,-10.7286,-10.7159,-10.7037,-10.6873,-10.6714,-10.6584,-10.6506,-10.6426,-10.6405,-10.6405,-10.6405,-10.6405,-10.6405,-10.6405,-10.6405,-10.6405,-10.6405,-10.6405,-10.6405,-10.6405,-10.6405,-10.6405,-10.6405,-10.6405,-10.6405,-10.6405,-10.6405,-10.6405,-10.6097,-10.6059,-10.5405,-10.4982,-10.4905,-10.4905,-10.4943,-10.5443,-10.5636,-10.5636,-10.579,-10.5828,-10.5905,-10.5982,-10.6097,-10.6328,-10.6328,-10.6367,-10.6367,-10.6405,-10.6405,-10.6405,-10.6405,-10.6405,-10.6405,-10.6174,-10.5905,-10.6059,-10.5944,-10.5636,-10.5713,-10.579,-10.5751,-10.5443,-10.5443,-10.5905,-10.5905,-10.5443,-10.5559,-10.5867,-10.6059,-10.5867,-10.6059,-10.6251,-10.6328,-10.6328,-10.6405,-10.6405,-10.6405]},{"header":{"parameterUnit":"m.s-1","parameterCategory":1,"la1":31.0,"la2":29.5877,"lo1":-88.7671,"lo2":-86.6584,"dx":0.0162,"dy":0.0185,"nx":115,"ny":88,"refTime":"2023-02-06T06:00:00:Z","depth":0,"parameterNumber":3,"parameterNumberName":"V-component_of_WINDS"},"data":[0.0,0.0,0.0,0.0,0.0,0.0,0.0,0.0,0.0,0.0,0.0,0.0,0.0,0.0,0.0,0.0,0.0,0.0,0.0,0.0,0.0,0.0,0.0,0.0,0.0,0.0,0.0,0.0,0.0,0.0,0.0,0.0,0.0,0.0,0.0,0.0,0.0,0.0,0.0,0.0,0.0,0.0,0.0,0.0,0.0,0.0,0.0,0.0,0.0,0.0,0.0,0.0,0.0,0.0,0.0,0.0,0.0,0.0,0.0,0.0,0.0,0.0,0.0,0.0,0.0,0.0,0.0,0.0,0.0,0.0,0.0,0.0,0.0,0.0,0.0,0.0,0.0,0.0,0.0,0.0,0.0,0.0,0.0,0.0,0.0,0.0,0.0,0.0,0.0,0.0,0.0,0.0,0.0,0.0,0.0,0.0,0.0,0.0,0.0,0.0,0.0,0.0,0.0,0.0,0.0,0.0,0.0,0.0,0.0,0.0,0.0,0.0,0.0,0.0,0.0,0.0,0.0,0.0,0.0,0.0,0.0,0.0,0.0,0.0,0.0,0.0,0.0,0.0,0.0,0.0,0.0,0.0,0.0,0.0,0.0,0.0,0.0,0.0,0.0,0.0,0.0,0.0,0.0,0.0,0.0,0.0,0.0,0.0,0.0,0.0,0.0,0.0,0.0,0.0,0.0,0.0,0.0,0.0,0.0,0.0,0.0,0.0,0.0,0.0,0.0,0.0,0.0,0.0,0.0,0.0,0.0,0.0,0.0,0.0,0.0,0.0,0.0,0.0,0.0,0.0,0.0,0.0,0.0,0.0,0.0,0.0,0.0,0.0,0.0,0.0,0.0,0.0,0.0,0.0,0.0,0.0,0.0,0.0,0.0,0.0,0.0,0.0,0.0,0.0,0.0,0.0,0.0,0.0,0.0,0.0,0.0,0.0,0.0,0.0,0.0,0.0,0.0,0.0,0.0,0.0,0.0,0.0,0.0,0.0,0.0,0.0,0.0,0.0,0.0,0.0,0.0,0.0,0.0,0.0,0.0,0.0,0.0,0.0,0.0,0.0,0.0,0.0,0.0,0.0,0.0,0.0,0.0,0.0,0.0,0.0,0.0,0.0,0.0,0.0,0.0,0.0,0.0,0.0,0.0,0.0,0.0,0.0,0.0,0.0,0.0,0.0,0.0,0.0,0.0,0.0,0.0,0.0,0.0,0.0,0.0,0.0,0.0,0.0,0.0,0.0,0.0,0.0,0.0,0.0,0.0,0.0,0.0,0.0,0.0,0.0,0.0,0.0,0.0,0.0,0.0,0.0,0.0,0.0,0.0,0.0,0.0,0.0,0.0,0.0,0.0,0.0,0.0,0.0,0.0,0.0,0.0,0.0,0.0,0.0,0.0,0.0,0.0,0.0,0.0,0.0,0.0,0.0,0.0,0.0,0.0,0.0,0.0,0.0,0.0,0.0,0.0,0.0,0.0,0.0,0.0,0.0,0.0,0.0,0.0,0.0,0.0,0.0,0.0,0.0,0.0,0.0,0.0,0.0,0.0,0.0,0.0,0.0,0.0,0.0,0.0,0.0,0.0,0.0,0.0,0.0,0.0,0.0,0.0,0.0,0.0,0.0,0.0,0.0,0.0,0.0,0.0,0.0,0.0,0.0,0.0,0.0,0.0,0.0,0.0,0.0,0.0,0.0,0.0,0.0,0.0,0.0,0.0,0.0,0.0,0.0,0.0,0.0,0.0,0.0,0.0,0.0,0.0,0.0,0.0,0.0,0.0,0.0,0.0,0.0,0.0,0.0,0.0,0.0,0.0,0.0,0.0,0.0,0.0,0.0,0.0,0.0,0.0,0.0,0.0,0.0,0.0,0.0,0.0,0.0,0.0,0.0,0.0,0.0,0.0,0.0,0.0,0.0,0.0,0.0,0.0,0.0,0.0,0.0,0.0,0.0,0.0,0.0,0.0,0.0,0.0,0.0,0.0,0.0,0.0,0.0,0.0,0.0,0.0,0.0,0.0,0.0,0.0,0.0,0.0,0.0,0.0,0.0,0.0,0.0,0.0,0.0,0.0,0.0,0.0,0.0,0.0,0.0,0.0,0.0,0.0,0.0,0.0,0.0,0.0,0.0,0.0,0.0,0.0,0.0,0.0,0.0,0.0,0.0,0.0,0.0,0.0,0.0,0.0,0.0,0.0,0.0,0.0,0.0,0.0,0.0,0.0,0.0,0.0,0.0,0.0,0.0,0.0,0.0,0.0,0.0,0.0,0.0,0.0,0.0,0.0,0.0,0.0,0.0,0.0,0.0,0.0,0.0,0.0,0.0,0.0,0.0,0.0,0.0,0.0,0.0,0.0,0.0,0.0,0.0,0.0,0.0,0.0,0.0,0.0,0.0,0.0,0.0,0.0,0.0,0.0,0.0,0.0,0.0,0.0,0.0,0.0,0.0,0.0,0.0,0.0,0.0,0.0,0.0,0.0,0.0,0.0,0.0,0.0,0.0,0.0,0.0,0.0,0.0,0.0,0.0,0.0,0.0,0.0,0.0,0.0,0.0,0.0,0.0,0.0,0.0,0.0,0.0,0.0,0.0,0.0,0.0,0.0,0.0,0.0,0.0,0.0,0.0,0.0,0.0,0.0,0.0,0.0,0.0,0.0,0.0,0.0,0.0,0.0,0.0,0.0,0.0,0.0,0.0,0.0,0.0,0.0,0.0,0.0,0.0,0.0,0.0,0.0,0.0,0.0,0.0,0.0,0.0,0.0,0.0,0.0,0.0,0.0,0.0,0.0,0.0,0.0,0.0,0.0,0.0,0.0,0.0,0.0,0.0,0.0,0.0,0.0,0.0,0.0,0.0,0.0,0.0,0.0,0.0,0.0,0.0,0.0,0.0,0.0,0.0,0.0,0.0,0.0,0.0,0.0,0.0,0.0,0.0,0.0,0.0,0.0,0.0,0.0,0.0,0.0,0.0,0.0,0.0,0.0,0.0,0.0,0.0,0.0,0.0,0.0,0.0,0.0,0.0,0.0,0.0,0.0,0.0,0.0,0.0,0.0,0.0,0.0,0.0,0.0,0.0,0.0,0.0,0.0,0.0,0.0,0.0,0.0,0.0,0.0,0.0,0.0,0.0,0.0,0.0,0.0,0.0,0.0,0.0,0.0,0.0,0.0,0.0,0.0,0.0,0.0,0.0,0.0,0.0,0.0,0.0,0.0,0.0,0.0,0.0,0.0,0.0,0.0,0.0,0.0,0.0,0.0,0.0,0.0,0.0,0.0,0.0,0.0,0.0,0.0,0.0,0.0,0.0,0.0,0.0,0.0,0.0,0.0,0.0,0.0,0.0,0.0,0.0,0.0,0.0,0.0,0.0,0.0,0.0,0.0,0.0,0.0,0.0,0.0,0.0,0.0,0.0,0.0,0.0,0.0,0.0,0.0,0.0,0.0,0.0,0.0,0.0,0.0,0.0,0.0,0.0,0.0,0.0,0.0,0.0,0.0,0.0,0.0,0.0,0.0,0.0,0.0,0.0,0.0,0.0,0.0,0.0,0.0,0.0,0.0,0.0,0.0,0.0,0.0,0.0,0.0,0.0,0.0,0.0,0.0,0.0,0.0,0.0,0.0,0.0,0.0,0.0,0.0,0.0,0.0,0.0,0.0,0.0,0.0,0.0,0.0,0.0,0.0,0.0,0.0,0.0,0.0,0.0,0.0,0.0,0.0,0.0,0.0,0.0,0.0,0.0,0.0,0.0,0.0,0.0,0.0,0.0,0.0,0.0,0.0,0.0,0.0,0.0,0.0,0.0,0.0,0.0,0.0,0.0,0.0,0.0,0.0,0.0,0.0,0.0,0.0,0.0,0.0,0.0,0.0,0.0,0.0,0.0,0.0,0.0,0.0,0.0,0.0,0.0,0.0,0.0,0.0,0.0,0.0,0.0,0.0,0.0,0.0,0.0,0.0,0.0,0.0,0.0,0.0,0.0,0.0,0.0,0.0,0.0,0.0,0.0,0.0,0.0,0.0,0.0,0.0,0.0,0.0,0.0,0.0,0.0,0.0,0.0,0.0,0.0,0.0,0.0,0.0,0.0,0.0,0.0,0.0,0.0,0.0,0.0,0.0,0.0,0.0,0.0,0.0,0.0,0.0,0.0,0.0,0.0,0.0,0.0,0.0,0.0,0.0,0.0,0.0,0.0,0.0,0.0,0.0,0.0,0.0,0.0,0.0,0.0,0.0,0.0,0.0,0.0,0.0,0.0,0.0,0.0,0.0,0.0,0.0,0.0,1.4306,0.0,0.0,0.0,0.0,0.0,0.0,0.0,0.0,0.0,0.0,0.0,0.0,0.0,0.0,0.0,0.0,0.0,0.0,0.0,0.0,0.0,0.0,0.0,0.0,0.0,0.0,0.0,0.0,0.0,0.0,0.0,0.0,0.0,0.0,0.0,0.0,0.0,0.0,0.0,0.0,0.0,0.0,0.0,0.0,0.0,0.0,0.0,0.0,0.0,0.0,0.0,0.0,0.0,0.0,0.0,0.0,0.0,0.0,0.0,0.0,0.0,0.0,0.0,0.0,0.0,0.0,0.0,0.0,0.0,0.0,0.0,0.0,0.0,0.0,0.0,0.0,0.0,0.0,0.0,0.0,0.0,0.0,0.0,0.0,0.0,0.0,0.0,0.0,0.0,0.0,0.0,0.0,0.0,0.0,0.0,0.0,0.0,0.0,0.0,0.0,0.0,0.0,0.0,0.0,0.0,0.0,0.0,0.0,0.0,0.0,1.4896,1.4746,1.459,1.4448,1.4306,0.0,0.0,0.0,0.0,0.0,0.0,0.0,0.0,0.0,0.0,0.0,0.0,0.0,0.0,0.0,0.0,0.0,0.0,0.0,0.0,0.0,0.0,0.0,0.0,0.0,0.0,0.0,0.0,0.0,0.0,0.0,0.0,0.0,0.0,0.0,0.0,0.0,0.0,0.0,0.0,0.0,0.0,0.0,0.0,0.0,0.0,0.0,0.0,0.0,0.0,0.0,0.0,0.0,0.0,0.0,0.0,0.0,0.0,0.0,0.0,0.0,0.0,0.0,0.0,0.0,0.0,0.0,0.0,0.0,0.0,0.0,0.0,0.0,0.0,0.0,0.0,0.0,0.0,0.0,0.0,0.0,0.0,0.0,0.0,0.0,0.0,0.0,0.0,0.0,0.0,0.0,0.0,0.0,0.0,0.0,0.0,0.0,0.0,0.0,0.0,0.0,0.0,0.0,0.0,0.0,0.0,0.0,0.0,0.0,0.0,0.0,0.0,1.4543,1.4414,1.4306,0.0,0.0,0.0,0.0,0.0,0.0,0.0,0.0,0.0,0.0,0.0,0.0,0.0,0.0,0.0,0.0,0.0,0.0,0.0,0.0,0.0,0.0,0.0,0.0,0.0,0.0,0.0,0.0,0.0,0.0,0.0,0.0,0.0,0.0,0.0,0.0,0.0,0.0,0.0,0.0,0.0,0.0,0.0,0.0,0.0,0.0,0.0,0.0,0.0,0.0,0.0,0.0,0.0,0.0,0.0,0.0,0.0,0.0,0.0,0.0,0.0,0.0,0.0,0.0,0.0,0.0,0.0,0.0,0.0,0.0,0.0,0.0,0.0,0.0,0.0,0.0,0.0,0.0,0.0,0.0,0.0,0.0,0.0,0.0,0.0,0.0,0.0,0.0,0.0,0.0,0.0,0.0,0.0,0.0,0.0,0.0,0.0,0.0,0.0,0.0,0.0,0.0,0.0,0.0,0.0,0.0,0.0,0.0,0.0,0.0,1.4685,1.4536,1.4394,0.0,1.4299,0.0,0.0,0.0,0.0,0.0,0.0,0.0,0.0,0.0,0.0,0.0,0.0,0.0,0.0,0.0,0.0,0.0,0.0,0.0,0.0,0.0,0.0,0.0,0.0,0.0,0.0,0.0,0.0,0.0,0.0,0.0,0.0,0.0,0.0,0.0,0.0,0.0,0.0,0.0,0.0,0.0,0.0,0.0,0.0,0.0,0.0,0.0,0.0,0.0,0.0,0.0,0.0,0.0,0.0,0.0,0.0,0.0,0.0,0.0,0.0,0.0,0.0,0.0,0.0,0.0,0.0,0.0,0.0,0.0,0.0,0.0,0.0,0.0,0.0,0.0,0.0,0.0,0.0,0.0,0.0,0.0,0.0,0.0,0.0,0.0,0.0,0.0,0.0,0.0,0.0,0.0,0.0,0.0,0.0,0.0,0.0,0.0,0.0,0.0,0.0,0.0,0.0,0.0,0.0,0.0,0.0,0.0,0.0,0.0,0.0,1.4577,1.4516,1.4373,1.4299,0.0,0.0,0.0,0.0,0.0,0.0,0.0,0.0,0.0,0.0,0.0,0.0,0.0,0.0,0.0,0.0,0.0,0.0,0.0,0.0,0.0,0.0,0.0,0.0,0.0,0.0,0.0,0.0,0.0,0.0,0.0,0.0,0.0,0.0,0.0,0.0,0.0,0.0,0.0,0.0,0.0,0.0,0.0,0.0,0.0,0.0,0.0,0.0,0.0,0.0,0.0,0.0,0.0,0.0,0.0,0.0,0.0,0.0,0.0,0.0,0.0,0.0,0.0,0.0,0.0,0.0,0.0,0.0,0.0,0.0,0.0,0.0,0.0,0.0,0.0,0.0,0.0,0.0,0.0,0.0,0.0,0.0,0.0,0.0,0.0,0.0,0.0,0.0,0.0,0.0,0.0,0.0,0.0,0.0,0.0,0.0,0.0,0.0,0.0,0.0,0.0,0.0,0.0,0.0,0.0,0.0,0.0,0.0,0.0,0.0,1.4624,1.4496,1.4455,1.4353,1.4299,1.4299,0.0,0.0,0.0,0.0,0.0,0.0,0.0,0.0,0.0,0.0,0.0,0.0,0.0,0.0,0.0,0.0,0.0,0.0,0.0,0.0,0.0,0.0,0.0,0.0,0.0,0.0,0.0,0.0,0.0,0.0,0.0,0.0,0.0,0.0,0.0,0.0,0.0,0.0,0.0,0.0,0.0,0.0,0.0,0.0,0.0,0.0,0.0,0.0,0.0,0.0,0.0,0.0,0.0,0.0,0.0,0.0,0.0,0.0,0.0,0.0,0.0,0.0,0.0,0.0,0.0,0.0,0.0,0.0,0.0,0.0,0.0,0.0,0.0,0.0,0.0,0.0,0.0,0.0,0.0,0.0,0.0,0.0,0.0,0.0,0.0,0.0,0.0,0.0,0.0,0.0,0.0,0.0,0.0,0.0,0.0,0.0,0.0,0.0,0.0,0.0,0.0,0.0,0.0,0.0,0.0,0.0,0.0,0.0,1.4543,1.4516,1.4448,1.4319,1.4306,1.4299,0.0,0.0,0.0,0.0,0.0,0.0,0.0,0.0,0.0,0.0,0.0,0.0,0.0,0.0,0.0,0.0,0.0,0.0,0.0,0.0,0.0,0.0,0.0,0.0,0.0,0.0,0.0,0.0,0.0,0.0,0.0,0.0,0.0,0.0,0.0,0.0,0.0,0.0,0.0,0.0,0.0,0.0,0.0,0.0,0.0,0.0,0.0,0.0,0.0,0.0,0.0,0.0,0.0,0.0,0.0,0.0,0.0,0.0,0.0,0.0,0.0,0.0,0.0,0.0,0.0,0.0,0.0,0.0,0.0,0.0,0.0,0.0,0.0,0.0,0.0,0.0,0.0,0.0,0.0,0.0,0.0,0.0,0.0,0.0,0.0,0.0,0.0,0.0,0.0,0.0,0.0,0.0,0.0,0.0,0.0,0.0,0.0,0.0,0.0,0.0,0.0,0.0,0.0,0.0,0.0,0.0,0.0,0.0,0.0,1.4509,1.4421,1.4353,1.4299,1.4299,1.4251,0.0,0.0,0.0,0.0,0.0,0.0,0.0,0.0,0.0,0.0,0.0,0.0,0.0,0.0,0.0,0.0,0.0,0.0,0.0,0.0,0.0,0.0,0.0,0.0,0.0,0.0,0.0,0.0,0.0,0.0,0.0,0.0,0.0,0.0,0.0,0.0,0.0,0.0,0.0,0.0,0.0,0.0,0.0,0.0,0.0,0.0,0.0,0.0,0.0,0.0,0.0,0.0,0.0,0.0,0.0,0.0,0.0,0.0,0.0,0.0,0.0,0.0,0.0,0.0,0.0,0.0,0.0,0.0,0.0,0.0,0.0,0.0,0.0,0.0,0.0,0.0,0.0,0.0,0.0,0.0,0.0,0.0,0.0,0.0,0.0,0.0,0.0,0.0,0.0,0.0,0.0,0.0,0.0,0.0,0.0,0.0,0.0,0.0,0.0,0.0,0.0,0.0,0.0,0.0,0.0,0.0,0.0,0.0,0.0,1.4441,0.0,1.4299,1.4299,1.4299,1.4224,0.0,0.0,0.0,0.0,0.0,0.0,0.0,0.0,0.0,0.0,0.0,0.0,0.0,0.0,0.0,0.0,0.0,0.0,0.0,0.0,0.0,0.0,0.0,0.0,0.0,0.0,0.0,0.0,0.0,0.0,0.0,0.0,0.0,0.0,0.0,0.0,0.0,0.0,0.0,0.0,0.0,0.0,0.0,0.0,0.0,0.0,0.0,0.0,0.0,0.0,0.0,0.0,0.0,0.0,0.0,0.0,0.0,0.0,0.0,0.0,0.0,0.0,0.0,0.0,0.0,0.0,0.0,0.0,0.0,0.0,0.0,0.0,0.0,0.0,0.0,0.0,0.0,0.0,0.0,0.0,0.0,0.0,0.0,0.0,0.0,0.0,0.0,0.0,0.0,0.0,0.0,0.0,0.0,0.0,0.0,0.0,0.0,0.0,0.0,0.0,0.0,0.0,0.0,0.0,0.0,0.0,0.0,0.0,1.4306,1.4299,1.4306,1.4306,1.4299,1.4299,1.4224,0.0,0.0,0.0,0.0,0.0,0.0,0.0,0.0,0.0,0.0,0.0,0.0,0.0,0.0,0.0,0.0,0.0,0.0,0.0,0.0,0.0,0.0,0.0,0.0,0.0,0.0,0.0,0.0,0.0,0.0,0.0,0.0,0.0,0.0,0.0,0.0,0.0,0.0,0.0,0.0,0.0,0.0,0.0,0.0,0.0,0.0,0.0,0.0,0.0,0.0,0.0,0.0,0.0,0.0,0.0,0.0,0.0,0.0,0.0,0.0,0.0,0.0,0.0,0.0,0.0,0.0,0.0,0.0,0.0,0.0,0.0,0.0,0.0,0.0,0.0,0.0,0.0,0.0,0.0,0.0,0.0,0.0,0.0,0.0,0.0,0.0,0.0,0.0,0.0,0.0,0.0,0.0,0.0,0.0,0.0,0.0,0.0,0.0,0.0,0.0,0.0,0.0,0.0,0.0,0.0,0.0,0.0,0.0,0.0,1.4306,1.4394,1.4401,1.4306,1.4299,1.4177,0.0,0.0,0.0,0.0,0.0,0.0,0.0,0.0,0.0,0.0,0.0,0.0,0.0,0.0,0.0,0.0,0.0,0.0,0.0,0.0,0.0,0.0,0.0,0.0,0.0,0.0,0.0,0.0,0.0,0.0,0.0,0.0,0.0,0.0,0.0,0.0,0.0,0.0,0.0,0.0,0.0,0.0,0.0,0.0,0.0,0.0,0.0,0.0,0.0,0.0,0.0,0.0,0.0,0.0,0.0,0.0,0.0,0.0,0.0,0.0,0.0,0.0,0.0,0.0,0.0,0.0,0.0,0.0,0.0,0.0,0.0,0.0,0.0,0.0,0.0,0.0,0.0,0.0,0.0,0.0,0.0,0.0,0.0,0.0,0.0,0.0,0.0,0.0,0.0,0.0,0.0,0.0,0.0,0.0,0.0,0.0,0.0,0.0,0.0,0.0,0.0,0.0,0.0,0.0,0.0,0.0,0.0,0.0,0.0,1.4557,1.4584,1.4557,1.4468,1.4407,1.4265,1.4021,0.0,0.0,0.0,0.0,0.0,0.0,0.0,0.0,0.0,0.0,0.0,0.0,0.0,0.0,0.0,0.0,0.0,0.0,0.0,0.0,0.0,0.0,0.0,0.0,0.0,0.0,0.0,0.0,0.0,0.0,0.0,0.0,0.0,0.0,0.0,0.0,0.0,0.0,0.0,0.0,0.0,0.0,0.0,0.0,0.0,0.0,0.0,0.0,0.0,0.0,0.0,0.0,0.0,0.0,0.0,0.0,0.0,0.0,0.0,0.0,0.0,0.0,0.0,0.0,0.0,0.0,0.0,0.0,0.0,0.0,0.0,0.0,0.0,0.0,0.0,0.0,0.0,0.0,0.0,0.0,0.0,0.0,0.0,0.0,0.0,0.0,0.0,0.0,0.0,0.0,0.0,0.0,0.0,0.0,0.0,0.0,0.0,0.0,0.0,0.0,0.0,0.0,0.0,0.0,0.0,0.0,0.0,0.0,1.5011,1.4875,1.4794,1.4746,1.4611,1.4462,0.0,0.0,0.0,0.0,0.0,0.0,0.0,0.0,0.0,0.0,0.0,0.0,0.0,0.0,0.0,0.0,0.0,0.0,0.0,0.0,0.0,0.0,0.0,0.0,0.0,0.0,0.0,0.0,0.0,0.0,0.0,0.0,0.0,0.0,0.0,0.0,0.0,0.0,0.0,0.0,0.0,0.0,0.0,0.0,0.0,0.0,0.0,0.0,0.0,0.0,0.0,0.0,0.0,0.0,0.0,0.0,0.0,0.0,0.0,0.0,0.0,0.0,0.0,0.0,0.0,0.0,0.0,0.0,0.0,0.0,0.0,0.0,0.0,0.0,0.0,0.0,0.0,0.0,0.0,0.0,0.0,0.0,0.0,0.0,0.0,0.0,0.0,0.0,0.0,0.0,0.0,0.0,0.0,0.0,0.0,0.0,0.0,0.0,0.0,0.0,0.0,0.0,0.0,0.0,0.0,0.0,0.0,0.0,0.0,1.5452,1.5527,1.535,1.493,1.4869,1.4679,0.0,0.0,0.0,0.0,0.0,0.0,0.0,0.0,0.0,0.0,0.0,0.0,0.0,0.0,0.0,0.0,0.0,0.0,0.0,0.0,0.0,0.0,0.0,0.0,0.0,0.0,0.0,0.0,0.0,0.0,0.0,0.0,0.0,0.0,0.0,0.0,0.0,0.0,0.0,0.0,0.0,0.0,0.0,0.0,0.0,0.0,0.0,0.0,0.0,0.0,0.0,0.0,0.0,0.0,0.0,0.0,0.0,0.0,0.0,0.0,0.0,0.0,0.0,0.0,0.0,0.0,0.0,0.0,0.0,0.0,0.0,0.0,0.0,0.0,0.0,0.0,0.0,0.0,0.0,0.0,0.0,0.0,0.0,0.0,0.0,0.0,0.0,0.0,0.0,0.0,0.0,0.0,0.0,0.0,0.0,0.0,0.0,0.0,0.0,0.0,0.0,0.0,0.0,0.0,0.0,0.0,0.0,0.0,1.552,1.5818,1.6029,1.594,1.5547,1.5289,1.4977,0.0,0.0,0.0,0.0,0.0,0.0,0.0,0.0,0.0,0.0,0.0,0.0,0.0,0.0,0.0,0.0,0.0,0.0,0.0,0.0,0.0,0.0,0.0,0.0,0.0,0.0,0.0,0.0,0.0,0.0,0.0,0.0,0.0,0.0,0.0,0.0,0.0,0.0,0.0,0.0,0.0,0.0,0.0,0.0,0.0,0.0,0.0,0.0,0.0,0.0,0.0,0.0,0.0,0.0,0.0,0.0,0.0,0.0,0.0,0.0,0.0,0.0,0.0,0.0,0.0,0.0,0.0,0.0,0.0,0.0,0.0,0.0,0.0,0.0,0.0,0.0,0.0,0.0,0.0,0.0,0.0,0.0,0.0,0.0,0.0,0.0,0.0,0.0,0.0,0.0,0.0,0.0,0.0,0.0,0.0,0.0,0.0,0.0,0.0,0.0,0.0,0.0,0.0,0.0,0.0,0.0,0.0,0.0,1.5811,1.6123,1.6415,1.6503,1.6368,1.5798,1.5337,0.0,0.0,0.0,0.0,0.0,0.0,0.0,0.0,0.0,0.0,0.0,0.0,0.0,0.0,0.0,0.0,0.0,0.0,0.0,0.0,0.0,0.0,0.0,0.0,0.0,0.0,0.0,0.0,0.0,0.0,0.0,0.0,0.0,0.0,0.0,0.0,0.0,0.0,0.0,0.0,0.0,0.0,0.0,0.0,0.0,0.0,0.0,0.0,0.0,0.0,0.0,0.0,0.0,0.0,0.0,0.0,0.0,0.0,0.0,0.0,0.0,0.0,0.0,0.0,0.0,0.0,0.0,0.0,0.0,0.0,0.0,0.0,0.0,0.0,0.0,0.0,0.0,0.0,0.0,0.0,0.0,0.0,0.0,0.0,0.0,0.0,0.0,0.0,0.0,0.0,0.0,0.0,0.0,0.0,0.0,0.0,0.0,0.0,0.0,0.0,0.0,0.0,0.0,0.0,0.0,0.0,0.0,0.0,1.6008,1.6422,1.6727,1.687,1.6836,1.6252,1.5744,0.0,0.0,0.0,0.0,0.0,0.0,0.0,0.0,0.0,0.0,0.0,0.0,0.0,0.0,0.0,0.0,0.0,0.0,0.0,0.0,0.0,0.0,0.0,0.0,0.0,0.0,0.0,0.0,0.0,0.0,0.0,0.0,0.0,0.0,0.0,0.0,0.0,0.0,0.0,0.0,0.0,0.0,0.0,0.0,0.0,0.0,0.0,0.0,2.0522,0.0,0.0,0.0,0.0,0.0,0.0,0.0,0.0,0.0,0.0,0.0,0.0,0.0,0.0,0.0,0.0,0.0,0.0,0.0,0.0,0.0,0.0,0.0,0.0,0.0,0.0,0.0,0.0,0.0,0.0,0.0,0.0,0.0,0.0,0.0,0.0,0.0,0.0,0.0,0.0,0.0,0.0,0.0,0.0,0.0,0.0,0.0,0.0,0.0,0.0,0.0,0.0,0.0,0.0,0.0,0.0,0.0,0.0,0.0,1.6178,1.6619,1.6924,1.708,1.7066,1.6632,1.6117,0.0,0.0,0.0,0.0,0.0,0.0,0.0,0.0,0.0,0.0,0.0,0.0,0.0,0.0,0.0,0.0,0.0,0.0,0.0,0.0,0.0,0.0,0.0,0.0,0.0,0.0,0.0,0.0,0.0,0.0,0.0,0.0,0.0,0.0,0.0,0.0,0.0,0.0,0.0,0.0,0.0,0.0,0.0,0.0,0.0,0.0,0.0,0.0,0.0,0.0,0.0,0.0,0.0,0.0,0.0,0.0,0.0,0.0,0.0,0.0,0.0,0.0,0.0,0.0,0.0,0.0,0.0,0.0,0.0,0.0,0.0,0.0,0.0,0.0,0.0,0.0,0.0,0.0,0.0,0.0,0.0,0.0,0.0,0.0,0.0,0.0,0.0,0.0,0.0,0.0,0.0,0.0,0.0,0.0,0.0,0.0,0.0,0.0,0.0,0.0,0.0,0.0,0.0,0.0,0.0,0.0,0.0,1.5879,1.6334,1.6775,1.7053,1.7195,1.7188,1.6883,1.6388,1.5696,0.0,0.0,0.0,0.0,0.0,0.0,0.0,0.0,0.0,0.0,0.0,0.0,0.0,0.0,0.0,0.0,0.0,0.0,0.0,0.0,0.0,0.0,0.0,0.0,0.0,0.0,0.0,0.0,0.0,0.0,0.0,0.0,0.0,0.0,0.0,0.0,0.0,0.0,1.3803,1.437,0.0,0.0,0.0,0.0,0.0,0.0,0.0,0.0,2.0996,0.0,0.0,0.0,0.0,0.0,0.0,0.0,0.0,0.0,0.0,0.0,0.0,0.0,0.0,0.0,0.0,0.0,0.0,0.0,0.0,0.0,0.0,0.0,0.0,0.0,0.0,0.0,0.0,0.0,0.0,0.0,0.0,0.0,0.0,0.0,0.0,0.0,0.0,0.0,0.0,0.0,0.0,0.0,0.0,0.0,0.0,0.0,0.0,0.0,0.0,0.0,0.0,0.0,0.0,0.0,0.0,1.5411,1.5981,1.649,1.6931,1.7107,1.7195,1.7182,1.6781,1.6327,1.5839,0.0,0.0,0.0,0.0,0.0,0.0,0.0,0.0,0.0,0.0,0.0,0.0,0.0,0.0,0.0,0.0,0.0,0.0,0.0,0.0,0.0,0.0,0.0,0.0,0.0,0.0,0.0,0.0,0.0,0.0,0.0,0.0,0.0,0.0,0.0,0.0,0.0,0.0,0.0,1.4534,1.5043,0.0,0.0,0.0,0.0,0.0,0.0,0.0,0.0,2.1112,0.0,0.0,0.0,0.0,0.0,0.0,0.0,0.0,0.0,0.0,0.0,0.0,0.0,0.0,0.0,0.0,0.0,0.0,0.0,0.0,0.0,0.0,0.0,0.0,0.0,0.0,0.0,0.0,0.0,0.0,0.0,0.0,0.0,0.0,0.0,0.0,0.0,0.0,0.0,0.0,0.0,0.0,0.0,0.0,0.0,0.0,0.0,0.0,0.0,0.0,0.0,0.0,0.0,0.0,0.0,1.5533,1.6042,1.653,1.6965,1.7121,1.7195,1.7182,1.6754,1.6273,0.0,0.0,0.0,0.0,0.0,0.0,0.0,0.0,0.0,0.0,0.0,0.0,0.0,0.0,0.0,0.0,0.0,0.0,0.0,0.0,0.0,0.0,0.0,0.0,0.0,0.0,0.0,0.0,0.0,0.0,0.0,0.0,0.0,0.0,0.0,0.0,0.0,0.0,0.0,0.0,1.4393,1.4961,1.5628,0.0,0.0,0.0,0.0,0.0,0.0,2.0188,2.1091,0.0,0.0,0.0,0.0,0.0,0.0,0.0,0.0,0.0,0.0,0.0,0.0,0.0,0.0,0.0,0.0,0.0,0.0,0.0,0.0,0.0,0.0,0.0,0.0,0.0,0.0,0.0,0.0,0.0,0.0,0.0,0.0,0.0,0.0,0.0,0.0,0.0,0.0,0.0,0.0,0.0,0.0,0.0,0.0,0.0,0.0,0.0,0.0,0.0,0.0,0.0,0.0,0.0,0.0,0.0,1.5635,1.611,1.6537,1.6917,1.7073,1.7134,1.7093,1.6666,1.6171,0.0,0.0,0.0,0.0,0.0,0.0,0.0,0.0,0.0,0.0,0.0,0.0,0.0,0.0,0.0,0.0,0.0,0.0,0.0,0.0,0.0,0.0,0.0,0.0,0.0,0.0,0.0,0.0,0.0,0.0,0.0,0.0,0.0,0.0,0.0,0.0,0.0,0.0,0.0,0.0,0.0,1.4968,1.5463,1.5628,0.0,0.0,0.0,0.0,1.9638,2.0358,0.0,0.0,0.0,0.0,0.0,0.0,0.0,0.0,0.0,0.0,0.0,0.0,0.0,0.0,0.0,0.0,0.0,0.0,0.0,0.0,0.0,0.0,0.0,0.0,0.0,0.0,0.0,0.0,0.0,0.0,0.0,0.0,0.0,0.0,0.0,0.0,0.0,0.0,0.0,0.0,0.0,0.0,0.0,0.0,0.0,0.0,0.0,0.0,0.0,0.0,0.0,0.0,0.0,0.0,0.0,0.0,1.5649,1.6205,1.6585,1.6775,1.6924,1.6944,1.6802,1.6368,1.5913,0.0,0.0,0.0,0.0,0.0,0.0,0.0,0.0,0.0,0.0,0.0,0.0,0.0,0.0,0.0,0.0,0.0,0.0,0.0,0.0,0.0,0.0,0.0,0.0,0.0,0.0,0.0,0.0,0.0,0.0,0.0,0.0,0.0,0.0,0.0,0.0,0.0,0.0,0.0,0.0,0.0,1.5463,1.5883,1.6287,1.6772,0.0,0.0,1.8191,1.9444,2.0122,0.0,0.0,0.0,0.0,0.0,0.0,0.0,0.0,0.0,0.0,0.0,0.0,0.0,0.0,0.0,0.0,0.0,0.0,0.0,0.0,0.0,0.0,0.0,0.0,0.0,0.0,0.0,0.0,0.0,0.0,0.0,0.0,0.0,0.0,0.0,0.0,0.0,0.0,0.0,0.0,0.0,0.0,0.0,0.0,0.0,0.0,0.0,0.0,0.0,0.0,0.0,0.0,0.0,0.0,0.0,1.5248,1.5642,1.6144,1.651,1.6748,1.6904,1.691,1.6651,1.6313,1.5872,0.0,0.0,0.0,0.0,0.0,0.0,0.0,0.0,0.0,0.0,0.0,0.0,0.0,0.0,0.0,0.0,0.0,0.0,0.0,0.0,0.0,0.0,0.0,0.0,0.0,0.0,0.0,0.0,0.0,0.0,0.0,0.0,0.0,0.0,0.0,0.0,0.0,0.0,0.0,0.0,0.0,0.0,1.6287,1.67,0.0,0.0,0.0,1.8465,1.9773,0.0,0.0,0.0,0.0,0.0,0.0,0.0,0.0,0.0,0.0,0.0,0.0,0.0,0.0,0.0,0.0,0.0,0.0,0.0,0.0,0.0,0.0,0.0,0.0,0.0,0.0,0.0,0.0,0.0,0.0,0.0,0.0,0.0,0.0,0.0,0.0,0.0,0.0,0.0,0.0,0.0,0.0,0.0,0.0,0.0,0.0,0.0,0.0,0.0,0.0,0.0,0.0,0.0,0.0,0.0,0.0,0.0,1.5635,1.6083,1.6435,1.6686,1.6883,1.689,1.6693,1.6293,0.0,0.0,0.0,0.0,0.0,0.0,0.0,0.0,0.0,0.0,0.0,0.0,0.0,0.0,0.0,0.0,0.0,0.0,0.0,0.0,0.0,0.0,0.0,0.0,0.0,0.0,0.0,1.376,0.0,0.0,0.0,0.0,0.0,0.0,0.0,0.0,0.0,0.0,0.0,0.0,0.0,0.0,1.6205,1.6616,1.6942,1.7469,0.0,0.0,1.8883,1.9901,2.0505,2.0968,0.0,0.0,0.0,0.0,0.0,0.0,0.0,0.0,0.0,0.0,0.0,0.0,0.0,0.0,0.0,0.0,0.0,0.0,0.0,0.0,0.0,0.0,0.0,0.0,0.0,0.0,0.0,0.0,0.0,0.0,0.0,0.0,0.0,0.0,0.0,0.0,0.0,0.0,0.0,0.0,0.0,0.0,0.0,0.0,0.0,0.0,0.0,0.0,0.0,0.0,0.0,0.0,0.0,0.0,1.5187,1.5635,1.6083,1.6381,1.6537,1.6829,1.6836,1.6544,1.6246,1.5872,0.0,0.0,0.0,0.0,0.0,0.0,0.0,0.0,0.0,0.0,0.0,0.0,0.0,0.0,0.0,0.0,0.0,0.0,0.0,0.0,0.0,0.0,0.0,0.0,0.0,0.0,0.0,0.0,0.0,0.0,0.0,0.0,0.0,0.0,0.0,0.0,0.0,0.0,0.0,0.0,0.0,1.6122,1.6616,1.7264,1.774,0.0,1.8523,1.9075,1.9293,2.0039,2.059,2.0551,0.0,0.0,0.0,0.0,0.0,0.0,0.0,0.0,0.0,0.0,0.0,0.0,0.0,0.0,0.0,0.0,0.0,0.0,0.0,0.0,0.0,0.0,0.0,0.0,0.0,0.0,0.0,0.0,0.0,0.0,0.0,0.0,0.0,0.0,0.0,0.0,0.0,0.0,0.0,0.0,0.0,0.0,0.0,0.0,0.0,0.0,0.0,0.0,0.0,0.0,0.0,0.0,0.0,1.5099,1.5635,1.5988,1.6286,1.6517,1.6822,1.6836,1.653,1.6327,1.6008,0.0,0.0,0.0,0.0,0.0,0.0,0.0,0.0,0.0,0.0,0.0,0.0,0.0,0.0,0.0,0.0,0.0,0.0,0.0,0.0,0.0,0.0,0.0,0.0,0.0,0.0,0.0,0.0,1.4715,1.4609,1.3934,0.0,0.0,0.0,0.0,0.0,0.0,0.0,0.0,0.0,0.0,1.613,1.6616,1.7264,0.0,0.0,1.8265,1.8699,1.9037,1.9368,1.9814,2.0373,2.1221,0.0,0.0,0.0,0.0,0.0,0.0,0.0,0.0,0.0,0.0,0.0,0.0,0.0,0.0,0.0,0.0,0.0,0.0,0.0,0.0,0.0,0.0,0.0,0.0,0.0,0.0,0.0,0.0,0.0,0.0,0.0,0.0,0.0,0.0,0.0,0.0,0.0,0.0,0.0,0.0,0.0,0.0,0.0,0.0,0.0,0.0,0.0,0.0,0.0,0.0,0.0,0.0,1.5038,1.5635,1.5934,1.6225,1.6517,1.6822,1.6836,1.653,1.6388,1.6117,0.0,0.0,0.0,0.0,0.0,0.0,0.0,0.0,0.0,0.0,0.0,0.0,0.0,0.0,0.0,0.0,0.0,0.0,0.0,0.0,0.0,0.0,0.0,0.0,0.0,0.0,0.0,0.0,1.5248,1.49,1.3781,0.0,0.0,0.0,0.0,0.0,0.0,0.0,0.0,0.0,0.0,1.6205,1.6616,1.719,1.7544,1.7565,1.7942,1.8209,1.8643,1.8741,1.9075,1.9813,0.0,0.0,0.0,0.0,0.0,0.0,0.0,0.0,0.0,0.0,0.0,0.0,0.0,0.0,0.0,0.0,0.0,0.0,0.0,0.0,0.0,0.0,0.0,0.0,0.0,0.0,0.0,0.0,0.0,0.0,0.0,0.0,0.0,0.0,0.0,0.0,0.0,0.0,0.0,0.0,0.0,0.0,0.0,0.0,0.0,0.0,0.0,0.0,0.0,0.0,0.0,0.0,0.0,1.5038,1.5628,1.5934,1.6232,1.6517,1.6822,1.6836,1.6537,1.6388,1.6164,1.5852,0.0,0.0,0.0,0.0,0.0,0.0,0.0,0.0,0.0,0.0,0.0,0.0,0.0,0.0,0.0,0.0,0.0,0.0,0.0,0.0,0.0,0.0,0.0,0.0,0.0,0.0,1.5358,1.5077,1.4584,0.0,0.0,0.0,0.0,0.0,0.0,0.0,0.0,0.0,1.5181,1.5681,1.6213,1.6616,1.6859,1.7076,1.7316,1.7604,1.774,1.7964,1.8251,1.8446,0.0,0.0,0.0,0.0,0.0,0.0,0.0,0.0,0.0,0.0,0.0,0.0,0.0,0.0,0.0,0.0,0.0,0.0,0.0,0.0,0.0,0.0,0.0,0.0,0.0,0.0,0.0,0.0,0.0,0.0,0.0,0.0,0.0,0.0,0.0,0.0,0.0,0.0,0.0,0.0,0.4954,0.6409,0.0,0.0,0.0,0.0,0.0,0.0,0.0,0.0,0.0,0.0,0.0,0.0,1.5235,1.5635,1.6035,1.6327,1.6524,1.6822,1.6883,1.668,1.653,1.6259,1.5866,0.0,0.0,0.0,0.0,0.0,0.0,0.0,0.0,0.0,0.0,0.0,0.0,0.0,0.0,0.0,0.0,0.0,0.0,0.0,0.0,0.0,0.0,0.0,0.0,0.0,1.5502,0.0,0.0,0.0,0.0,0.0,0.0,0.0,0.0,0.0,0.0,0.0,1.5136,1.5665,1.5843,1.6048,1.6213,1.6584,1.6691,0.0,0.0,0.0,0.0,0.0,0.0,0.0,0.0,0.0,0.0,0.0,0.0,0.0,0.0,2.5037,2.4462,2.4342,2.4342,2.4342,0.0,0.0,0.0,0.0,0.0,0.0,0.0,0.0,0.0,0.0,0.0,0.0,0.0,0.0,0.0,0.0,0.0,0.0,0.0,0.0,0.0,0.0,0.0,0.0,0.0,0.3229,0.4416,0.5786,0.7061,0.8525,0.0,1.1477,1.2572,0.0,0.0,0.0,0.0,0.0,0.0,0.0,0.0,1.5384,1.5784,1.6137,1.6408,1.6598,1.6849,1.6904,1.6754,1.6551,1.6286,1.594,1.5601,1.5371,0.0,0.0,0.0,0.0,0.0,0.0,0.0,0.0,0.0,0.0,0.0,0.0,0.0,0.0,0.0,0.0,0.0,0.0,0.0,0.0,0.0,0.0,0.0,1.5644,0.0,0.0,0.0,0.0,0.0,0.0,0.0,0.0,0.0,1.454,1.4921,1.5392,1.5925,1.5966,1.5966,1.5966,0.0,0.0,0.0,0.0,0.0,0.0,0.0,1.7324,1.8294,1.9174,2.0264,2.1613,2.321,2.4598,2.5171,0.0,0.0,2.5384,2.5251,2.5237,2.5251,2.5251,2.5251,2.5237,2.5251,2.5331,0.0,0.0,0.0,0.0,0.0,0.0,0.0,0.0,0.0,0.0,0.0,0.0,0.0,0.0,0.0,0.0,0.0785,0.1375,0.0,0.0,0.4225,0.5305,0.6387,0.7959,0.9228,1.0401,1.2347,1.3606,1.4067,1.4165,0.0,0.0,0.0,0.0,0.0,0.0,1.5486,1.6049,1.6232,1.6456,1.6727,1.6897,1.6904,1.6748,1.6476,1.6259,1.6096,1.5934,1.5723,1.5438,1.5269,0.0,0.0,0.0,0.0,0.0,0.0,0.0,0.0,0.0,0.0,0.0,0.0,0.0,0.0,0.0,0.0,0.0,0.0,0.0,0.0,1.5809,0.0,0.0,0.0,0.0,0.0,0.0,0.0,0.0,0.0,0.0,1.4962,1.5506,1.5837,1.5942,0.0,0.0,0.0,0.0,1.6048,1.6056,1.6056,1.6386,1.7308,1.7223,1.7485,1.85,0.0,0.0,2.2631,2.3904,2.4802,2.5252,2.5995,2.6577,2.652,2.6453,2.6413,2.6413,2.6426,2.644,2.644,2.644,2.6533,-0.098,0.0,0.0,0.0,0.0,0.0,0.0,0.0,0.0,0.0,0.0,0.0,0.0,0.0,0.0,0.0,0.0,0.0,0.2182,0.3271,0.469,0.6127,0.7682,0.8989,1.0331,1.1811,1.2962,1.3778,1.436,1.4938,1.512,1.5059,0.0,0.0,0.0,0.0,1.5642,1.592,1.6273,1.6503,1.6585,1.6842,1.691,1.6651,1.6673,1.6503,1.6252,1.6096,1.5927,1.573,1.5377,0.0,0.0,0.0,0.0,0.0,0.0,0.0,0.0,0.0,0.0,0.0,0.0,0.0,0.0,0.0,0.0,0.0,0.0,0.0,1.6377,1.6297,1.5996,0.0,0.0,0.0,0.0,0.0,0.0,0.0,0.0,0.0,1.6423,1.6304,1.617,0.0,0.0,1.6534,1.6534,1.6534,1.6658,1.7124,1.7225,0.0,1.7759,1.7975,1.8282,1.8597,2.0012,2.1463,2.2777,2.4182,2.5264,2.5616,2.6336,2.7114,2.765,2.7486,2.7362,2.7335,2.7495,2.7712,2.7725,2.7642,2.7655,-0.1236,-0.0332,-0.0109,0.0,0.0,0.0,0.0,0.0,0.0,0.0,0.0,0.0,0.0,0.0,0.0,0.0,0.0,0.0,0.2618,0.3926,0.5383,0.6942,0.8483,0.9706,1.1037,1.2583,1.3558,1.4283,1.4782,1.5348,1.5635,1.5445,0.0,1.5215,1.5364,1.5547,1.5737,1.5947,1.6327,1.6551,1.6612,1.6856,1.691,1.6651,1.659,1.6551,1.632,1.6164,1.6008,1.5957,1.554,1.5309,0.0,0.0,0.0,0.0,0.0,0.0,0.0,0.0,0.0,0.0,0.0,1.4258,1.417,0.0,0.0,0.0,1.6113,1.6849,1.7354,1.7094,0.0,0.0,0.0,0.0,0.0,0.0,0.0,1.6416,1.6599,1.6831,1.7407,1.7325,1.707,1.6624,1.678,1.697,1.713,0.0,1.7282,1.7732,1.7843,1.7887,1.8171,1.8676,1.9287,1.9961,2.1125,2.2307,2.3281,2.4269,2.5015,2.5592,2.625,2.691,2.7597,2.781,2.7925,2.8172,2.8377,2.8497,2.8497,2.8497,2.8497,-0.1496,-0.0804,-0.0223,0.0,0.0,0.0,0.0,0.0,0.0,0.0,0.0,0.0,0.0,0.0,0.0,0.0,0.162,0.2246,0.3378,0.4913,0.619,0.7629,0.9095,1.0215,1.1488,1.3023,1.4013,1.4806,1.5293,1.5763,1.5886,1.5866,1.5588,1.552,1.5649,1.5655,1.5798,1.6076,1.6361,1.6578,1.6624,1.6883,1.689,1.6734,1.6592,1.6449,1.63,1.6157,1.6008,1.5845,1.5696,1.5493,1.5215,0.0,0.0,0.0,0.0,0.0,0.0,0.0,0.0,0.0,0.0,0.0,0.0,0.0,0.0,0.0,1.662,0.0,1.8138,1.8075,0.0,0.0,0.0,1.8028,1.8028,1.8028,1.8028,1.8113,0.0,0.0,1.8198,1.8527,1.8475,1.7781,1.7572,1.7551,1.7802,1.7829,1.79,1.8264,1.8318,1.8421,1.8995,1.9495,2.0433,2.1906,2.2548,2.303,2.3841,2.4152,2.4519,2.5252,2.5849,2.6391,2.682,2.7548,2.8181,2.8789,2.8924,2.9024,2.9011,2.9112,2.9112,-0.1509,-0.0811,-0.0229,0.0,0.0,0.0,0.0,0.0,0.0,0.0,0.0,0.0,0.0,0.0,0.0,0.062,0.165,0.2273,0.3399,0.4913,0.6459,0.8096,0.9706,1.0829,1.2181,1.3661,1.4482,1.5043,1.5447,1.5917,1.6144,1.6022,1.5839,1.5764,1.5798,1.5798,1.5893,1.6083,1.6266,1.6429,1.6571,1.6727,1.6734,1.6578,1.6537,1.6402,1.6144,1.6103,1.5961,1.5703,1.5547,1.5432,1.5357,1.5079,0.0,0.0,0.0,0.0,0.0,0.0,0.0,0.0,0.0,1.4476,1.4822,0.0,1.5866,0.0,1.7094,1.7878,1.8357,1.8268,0.0,0.0,1.8022,1.8028,1.8028,1.8028,1.8273,1.8941,1.9025,1.9278,1.9962,2.013,2.0175,1.9909,1.8969,1.8475,1.8866,1.8866,1.9278,2.0072,2.0343,2.0596,2.084,2.1233,2.1668,2.2501,2.2878,2.3215,2.3756,2.436,2.4742,2.5014,2.5739,2.6383,2.6822,2.7435,2.7975,2.8463,2.8897,2.9254,2.9611,2.97,2.97,-0.1647,-0.1293,-0.0349,0.0,0.0,0.0,0.0,0.0,0.0,0.0,0.0,0.0,0.0,0.0,0.0,0.0622,0.165,0.2476,0.3599,0.5015,0.6883,0.8519,0.9909,1.0931,1.246,1.4196,1.4601,1.5076,1.571,1.6105,1.6164,1.6083,1.5995,1.5954,1.5954,1.5886,1.5893,1.5981,1.6198,1.6374,1.6517,1.6605,1.6578,1.6435,1.6429,1.6286,1.5995,1.5981,1.5872,1.5649,1.5493,1.5411,1.5404,1.5133,1.497,0.0,0.0,0.0,0.0,0.0,0.0,0.0,0.0,0.0,0.0,0.0,1.6278,1.7169,1.797,1.8601,1.9035,1.9202,1.9314,1.9568,1.9475,1.9585,1.9758,1.9758,1.9932,2.0443,2.0441,2.0554,2.108,2.1084,2.0938,2.0938,2.0331,1.9865,2.0034,2.0014,2.0337,2.0994,2.1302,2.1653,2.2224,2.2388,2.2692,2.3157,2.3465,2.3641,2.3914,2.4193,2.4555,2.4818,2.5286,2.5742,2.63,2.6743,2.7196,2.7739,2.8191,2.8732,2.9451,2.9631,2.9644,-0.2029,-0.1786,-0.0587,-0.0117,0.0,0.0,0.0,0.0,0.0,0.0,0.0,0.0,0.0,0.0,0.0,0.0621,0.1644,0.2667,0.3791,0.5015,0.7217,0.8749,0.9791,1.0913,1.2483,1.4383,1.4495,1.4994,1.5983,1.6103,1.6103,1.6083,1.6083,1.6083,1.6076,1.5947,1.5978,1.5984,1.6164,1.6361,1.6463,1.6483,1.6429,1.6286,1.6259,1.6117,1.5845,1.5805,1.573,1.5588,1.5452,1.5384,1.5377,1.514,1.4997,0.0,1.4869,0.0,0.0,0.0,0.0,0.0,0.0,0.0,0.0,1.5742,1.6832,1.8191,1.8824,1.9275,1.9716,2.0175,2.0724,2.1253,2.1253,2.1442,2.1969,2.1979,2.2059,2.2059,2.1975,2.1852,2.191,2.1679,2.1557,2.1603,2.1496,2.1414,2.1221,2.117,2.1241,2.1455,2.1689,2.2261,2.3025,2.3241,2.3406,2.3962,2.4097,2.4118,2.4107,2.4107,2.4199,2.4555,2.4829,2.5012,2.5468,2.5924,2.6379,2.6821,2.7287,2.792,2.8912,2.9272,2.9362,-0.2399,-0.1788,-0.107,-0.0471,0.0,0.0,0.0,0.0,0.0,0.0,0.0,0.0,0.0,0.0,0.0,0.0629,0.1674,0.2388,0.3504,0.5013,0.6763,0.8364,0.9697,1.0808,1.221,1.3795,1.4391,1.4888,1.5485,1.6004,1.6205,1.6083,1.6083,1.6083,1.6083,0.0,0.0,0.0,1.6218,1.6259,1.6171,1.6286,1.6279,1.613,1.6001,0.0,1.5689,1.556,1.5425,1.5276,1.5242,0.0,0.0,0.0,0.0,0.0,0.0,0.0,0.0,0.0,0.0,0.0,1.5099,1.5183,1.5315,1.6196,1.7195,1.8191,1.8824,1.9275,1.9716,2.0175,2.0724,2.1263,2.1263,2.1522,2.1969,2.1979,2.2148,2.2505,2.2553,2.2621,2.2966,2.3023,2.2917,2.2648,2.2715,2.2619,2.2385,2.2008,2.1943,2.2362,2.2712,2.3225,2.3796,2.3849,2.3849,2.4107,2.4118,2.4118,2.4118,2.4118,2.4118,2.4291,2.4555,2.4818,2.4909,2.5377,2.5833,2.6391,2.647,2.7105,2.8822,2.9182,2.9362,-0.2784,-0.1929,-0.1316,-0.0593,0.0,0.0,0.0,0.0,0.0,0.0,0.0,0.0,0.0,0.0,0.0,0.0627,0.167,0.2163,0.337,0.488,0.6606,0.8005,0.9368,1.0681,1.1984,1.329,1.3954,1.455,1.5293,1.573,1.5964,1.6191,1.6266,1.63,1.63,1.63,1.6225,1.6083,1.6157,1.6164,1.609,1.6157,1.6164,1.6083,1.5934,0.0,0.0,0.0,0.0,0.0,0.0,0.0,0.0,1.5181,0.0,1.5289,1.5296,1.533,1.5398,1.5404,1.5404,1.5404,1.5337,1.5389,1.5625,1.6343,1.708,1.7824,1.8551,1.9192,1.9742,2.0199,2.0756,2.1485,2.1849,2.2121,2.2575,2.2938,2.3119,2.3289,2.3284,2.33,2.3569,2.3461,2.3311,2.3095,2.3042,2.3009,2.288,2.2588,2.2491,2.2998,2.3321,2.3688,2.4021,2.4118,2.4118,2.4118,2.4118,2.4118,2.4118,2.4118,2.4118,2.4118,2.4291,2.4463,2.4463,2.4829,2.5286,2.556,2.5742,2.6379,2.7817,2.8269,2.8642,-0.3299,-0.1951,-0.1444,-0.0717,0.0,0.0,0.0,0.0,0.0,0.0,0.0,0.0,0.0,0.0,0.0,0.0519,0.1451,0.2036,0.3129,0.4544,0.6256,0.7663,0.8869,1.0279,1.1583,1.279,1.3312,1.4119,1.5019,1.5366,1.574,1.6158,1.6361,1.6517,1.6517,1.6517,1.6402,1.6171,1.6137,1.611,1.6083,1.6083,1.6083,1.6083,1.5934,1.5798,1.5683,1.5533,1.5391,1.5269,1.5262,1.5262,1.5262,1.5262,1.5316,1.5438,1.5452,1.5506,1.5628,1.5635,1.5628,1.5601,1.5486,1.554,1.5852,1.6306,1.6774,1.7343,1.8277,1.9023,1.9488,2.0037,2.0779,2.1714,2.2175,2.2637,2.3189,2.3567,2.3719,2.3822,2.356,2.3635,2.3715,2.3475,2.3351,2.3246,2.3214,2.3149,2.3095,2.2966,2.2998,2.3365,2.3601,2.3828,2.4043,2.4118,2.4118,2.4118,2.4118,2.4118,2.4118,2.4118,2.4118,2.4118,2.4118,2.4118,2.4107,2.4474,2.4727,2.4818,2.5195,2.5742,2.6549,2.7093,2.7649,-0.3683,-0.1952,-0.1948,-0.1086,0.0,0.0,0.0,0.0,0.0,0.0,0.0,0.0,0.0,0.0,0.0,0.0312,0.0933,0.1426,0.2322,0.3534,0.5148,0.6757,0.8266,0.9376,1.0786,1.2194,1.2887,1.3542,1.416,1.51,1.5686,1.589,1.621,1.6524,1.6517,1.6517,1.6503,1.6456,1.6341,1.6212,1.6083,1.6083,1.6083,1.6076,1.5934,1.5845,1.5825,1.5683,1.5594,1.5574,1.5574,1.5574,1.5574,1.5567,1.5588,1.5608,1.5608,1.5615,1.5642,1.5635,1.5581,1.5459,1.5425,1.5533,1.5859,1.5938,1.64,1.7343,1.7896,1.8456,1.9023,1.9759,2.0594,2.1242,2.1714,2.2175,2.2637,2.2821,2.2913,2.2913,2.28,2.2954,2.3391,2.337,2.3427,2.3608,2.339,2.3558,2.3297,2.3321,2.3408,2.3623,2.381,2.3849,2.4054,2.4118,2.4118,2.4118,2.4118,2.4118,2.4118,2.4118,2.4118,2.4118,2.4118,2.4118,2.4118,2.4118,2.4382,2.4646,2.4818,2.5092,2.5742,2.6197,2.6936,-0.431,-0.2578,-0.2201,-0.1455,-0.0479,-0.0118,0.0,0.0,0.0,0.0,0.0,0.0,0.0,0.0,0.0,0.0313,0.083,0.1332,0.2131,0.3232,0.487,0.6202,0.7319,0.8986,1.0228,1.0945,1.2211,1.3054,1.3576,1.4517,1.5202,1.5828,1.6417,1.6775,1.6768,1.6768,1.6727,1.6646,1.6503,1.6388,1.6327,1.632,1.6279,1.6205,1.6056,1.594,1.5852,1.5716,1.5635,1.5635,1.5635,1.5635,1.5635,1.5635,1.5676,1.575,1.5757,1.5791,1.5872,1.5879,1.5778,1.556,1.5533,1.5527,1.5483,1.5751,1.6126,1.6595,1.7055,1.7709,1.8456,1.8922,1.9471,2.0315,2.1066,2.1621,2.1889,2.236,2.2637,2.2637,2.2637,2.2729,2.2923,2.3005,2.2923,2.2979,2.3018,2.2976,2.2882,2.2886,2.3129,2.3672,2.386,2.3978,2.4097,2.4118,2.4118,2.4118,2.4118,2.4118,2.4118,2.4118,2.4118,2.4118,2.4118,2.4118,2.4118,2.4118,2.4199,2.4291,2.4372,2.4646,2.5103,2.556,2.6379,-0.4811,-0.3084,-0.2331,-0.1582,-0.0723,-0.0236,0.0,0.0,0.0,0.0,0.0,0.0,0.0,0.0,0.0,0.021,0.0625,0.1135,0.1945,0.2949,0.4502,0.5542,0.6467,0.8263,0.9426,0.9947,1.1301,1.2245,1.3086,1.3822,1.4823,1.5872,1.6498,1.6873,1.6978,1.6978,1.6924,1.6802,1.6686,1.6592,1.6524,1.6517,1.6469,1.6361,1.6212,1.6076,1.5961,1.5818,1.5737,1.5737,1.5737,1.5737,1.5737,1.5737,1.5784,1.5893,1.5906,1.5954,1.6069,1.6083,1.5954,1.5662,1.5635,1.5506,1.5228,1.5563,1.5751,1.5938,1.6306,1.6868,1.7709,1.8083,1.8549,1.9294,2.0223,2.0779,2.0964,2.1529,2.1898,2.1898,2.1898,2.1898,2.2083,2.2083,2.2106,2.2242,2.2181,2.2283,2.2394,2.2535,2.2912,2.3388,2.3726,2.4005,2.4026,2.4118,2.4118,2.4118,2.4118,2.4118,2.4118,2.4118,2.4118,2.4118,2.4118,2.4118,2.4118,2.4118,2.4118,2.4118,2.421,2.4291,2.4738,2.5103,2.5742,-0.5059,-0.3703,-0.2588,-0.1222,-0.0121,0.0,0.0,0.0,0.0,0.0,0.0,0.0,0.0,0.0,0.0,0.0,0.0,0.0625,0.1243,0.1966,0.3003,0.4353,0.5802,0.6638,0.798,0.9649,1.0236,1.1213,1.2573,1.3311,1.4528,1.5901,1.6124,1.6446,1.6978,1.6978,1.6971,1.6958,1.6944,1.6802,1.6537,1.6517,1.651,1.6503,1.6361,1.6286,1.6246,1.6123,1.6035,1.6042,1.6029,1.6035,1.6035,1.6035,1.6042,1.6056,1.6056,1.6069,1.6083,1.6083,1.5954,1.5676,1.5642,1.5513,1.5221,1.5281,1.5469,1.5751,1.5938,1.6213,1.6774,1.7616,1.8083,1.8363,1.9201,1.986,1.9851,1.986,1.9944,1.9953,2.013,2.0139,2.0594,2.0686,2.0955,2.1646,2.1718,2.182,2.2198,2.232,2.2452,2.2688,2.3097,2.3557,2.3935,2.4118,2.4026,2.4026,2.4118,2.4118,2.4118,2.4118,2.4118,2.4118,2.4118,2.4118,2.4118,2.4118,2.4118,2.4118,2.4118,2.4199,2.4646,2.4829,2.5195,-0.5306,-0.4321,-0.3085,-0.1835,-0.0603,-0.012,0.0,0.0,0.0,0.0,0.0,0.0,0.0,0.0,0.0,0.0,0.0,0.0525,0.0939,0.135,0.2713,0.3766,0.45,0.5993,0.7267,0.8216,0.9511,1.0479,1.1322,1.2842,1.4341,1.55,1.592,1.6446,1.6978,1.6978,1.6978,1.6978,1.6978,1.6917,1.6809,1.6795,1.6748,1.6653,1.651,1.6388,1.63,1.6164,1.6083,1.6083,1.6083,1.6083,1.6083,1.6083,1.6083,1.6083,1.6083,1.6083,1.6083,1.6083,1.5988,1.5778,1.5689,1.5547,1.5343,1.5235,1.5275,1.5462,1.5469,1.565,1.622,1.6587,1.6962,1.7336,1.8176,1.8828,1.8828,1.9015,1.9294,1.9581,1.9387,1.9387,1.9851,1.9944,2.013,2.0501,2.0594,2.0686,2.0872,2.1149,2.1427,2.1714,2.2175,2.2637,2.3097,2.3475,2.3659,2.3751,2.3935,2.4118,2.4118,2.4118,2.4118,2.4118,2.4118,2.4118,2.4118,2.4118,2.4118,2.4118,2.4118,2.421,2.4382,2.4382,2.4566,-0.5676,-0.4936,-0.3455,-0.2082,-0.0968,-0.024,0.0,0.0,0.0,0.0,0.0,0.0,0.0,0.0,0.0,0.0,0.0,0.0426,0.0636,0.095,0.2121,0.2977,0.3618,0.5027,0.6224,0.7078,0.8686,0.9957,1.0789,1.2484,1.3952,1.4979,1.5605,1.6131,1.6663,1.6873,1.6978,1.6978,1.6978,1.6978,1.6971,1.6978,1.6931,1.6809,1.6625,1.6469,1.6374,1.6185,1.6083,1.6083,1.6083,1.6083,1.6083,1.6083,1.6083,1.6083,1.6083,1.6083,1.6083,1.6083,1.6015,1.5866,1.5723,1.5574,1.5425,1.5269,1.5187,1.5181,1.5181,1.5368,1.5657,1.5845,1.6119,1.6494,1.7242,1.7803,1.7803,1.8168,1.8447,1.8735,1.8354,1.8447,1.8735,1.8828,1.8828,1.9015,1.9201,1.9387,1.948,1.9944,2.0408,2.0779,2.1149,2.1806,2.2452,2.2913,2.3189,2.3465,2.3751,2.3935,2.4026,2.4118,2.4118,2.4118,2.4118,2.4118,2.4118,2.4118,2.4118,2.4118,2.4118,2.4118,2.421,2.4118,2.4118,-0.5923,-0.5428,-0.3085,-0.172,-0.0975,-0.0242,0.0,0.0,0.0,0.0,0.0,0.0,0.0,0.0,0.0,0.0,0.0,0.0,0.0327,0.0762,0.0981,0.1964,0.3493,0.3603,0.4802,0.6753,0.7622,0.9331,1.1634,1.2599,1.3397,1.4463,1.5102,1.5611,1.6249,1.6781,1.6985,1.6978,1.6978,1.6978,1.6978,1.6978,1.6978,1.6931,1.668,1.6524,1.6476,1.6232,1.6083,1.6083,1.6083,1.6083,1.6083,1.6083,1.6083,1.6083,1.6083,1.6083,1.6083,1.6083,1.6022,1.5872,1.5737,1.5581,1.5445,1.5289,1.5201,1.5181,1.5181,1.5275,1.5275,1.5657,1.5845,1.5938,1.64,1.6774,1.6774,1.686,1.6767,1.6954,1.7048,1.7048,1.6954,1.6868,1.7258,1.764,1.8005,1.8395,1.8879,1.9421,1.9718,1.9905,2.0361,2.0973,2.2278,2.2647,2.2831,2.3189,2.3373,2.3649,2.3935,2.4118,2.4118,2.4118,2.4118,2.4118,2.4118,2.4118,2.4118,2.4118,2.4118,2.4118,2.4118,2.4118,2.4118,-0.6046,-0.5059,-0.2961,-0.1843,-0.1586,-0.0484,0.0,0.0,0.0,0.0,0.0,0.0,0.0,0.0,0.0,0.0,0.0,0.0,0.0109,0.0328,0.0766,0.1422,0.2407,0.3172,0.4265,0.5796,0.6886,0.8614,1.087,1.1952,1.3017,1.4056,1.5117,1.5829,1.6286,1.6796,1.7073,1.6992,1.6978,1.6978,1.6978,1.6978,1.6978,1.6971,1.6781,1.6619,1.6524,1.6334,1.6185,1.6083,1.6083,1.6083,1.6083,1.6083,1.6083,1.6083,1.6083,1.6083,1.6083,1.6083,1.6062,1.6001,1.5859,1.571,1.5567,1.5418,1.5289,1.5208,1.5181,1.5181,1.5181,1.5368,1.5469,1.5563,1.5845,1.6213,1.6213,1.6213,1.6306,1.658,1.6673,1.6673,1.6624,1.677,1.6932,1.7041,1.7307,1.7741,1.8224,1.8699,1.9165,1.9561,2.0224,2.0934,2.117,2.1884,2.2278,2.2831,2.3107,2.3567,2.3935,2.4118,2.4118,2.4118,2.4118,2.4118,2.4118,2.4118,2.4118,2.4118,2.4118,2.4118,2.4118,2.4118,2.4118,-0.5925,-0.4691,-0.3085,-0.2215,-0.1836,-0.0851,-0.0241,0.0,0.0,0.0,0.0,0.0,0.0,0.0,0.0,0.0,0.0,0.0,0.0,0.0,0.0441,0.0883,0.1545,0.2536,0.3529,0.4854,0.6282,0.8249,1.0304,1.1291,1.2367,1.363,1.4611,1.5434,1.6106,1.6729,1.6976,1.7073,1.7046,1.7032,1.6992,1.6978,1.6978,1.6965,1.6876,1.6727,1.653,1.6388,1.6239,1.611,1.6083,1.6083,1.6083,1.6083,1.6083,1.6083,1.6083,1.6083,1.6083,1.6083,1.6083,1.6076,1.594,1.5791,1.5649,1.5499,1.5343,1.5228,1.5181,1.5194,1.5248,1.5262,1.5235,1.5288,1.5462,1.565,1.5657,1.5699,1.5944,1.619,1.6299,1.6284,1.6379,1.6466,1.6429,1.6539,1.6633,1.7076,1.7365,1.7847,1.8328,1.8904,1.955,2.0071,2.0467,2.1113,2.1923,2.2532,2.2851,2.3302,2.3832,2.4026,2.4118,2.4118,2.4118,2.4118,2.4118,2.4118,2.4118,2.4118,2.4118,2.4118,2.4118,2.4118,2.4118,-0.5555,-0.4814,-0.3579,-0.2591,-0.197,-0.1223,-0.0607,0.0,0.0,0.0,0.0,0.0,0.0,0.0,0.0,0.0,0.0,0.0,0.0,0.0,0.0,0.0,0.101,0.1571,0.2579,0.3809,0.605,0.8249,1.0179,1.0612,1.1567,1.2901,1.3776,1.4748,1.5692,1.6334,1.6801,1.7102,1.7168,1.7114,1.6998,1.6978,1.6978,1.6978,1.6965,1.6822,1.6537,1.6395,1.6252,1.6103,1.6083,1.6083,1.6083,1.6083,1.6083,1.6083,1.6083,1.6083,1.6083,1.6083,1.6083,1.6069,1.5947,1.5818,1.5676,1.554,1.5398,1.5276,1.5235,1.5262,1.5391,1.5411,1.5364,1.5228,1.5336,1.5336,1.5343,1.533,1.5466,1.5664,1.5684,1.5622,1.5628,1.5725,1.5828,1.5932,1.6153,1.6472,1.6673,1.7068,1.7403,1.7982,1.8793,1.9485,1.9914,2.0324,2.1414,2.2241,2.246,2.2882,2.3578,2.3924,2.4026,2.4026,2.4118,2.4118,2.4118,2.4118,2.4118,2.4118,2.4118,2.4118,2.4118,2.4118,2.4118,-0.6169,-0.5429,-0.4196,-0.2961,-0.1972,-0.1225,-0.0609,0.0,0.0,0.0,0.0,0.0,0.0,0.0,0.0,0.0,0.0,0.0,0.0,0.0,0.0,0.0342,0.0799,0.1141,0.2048,0.3733,0.6071,0.7502,0.8485,0.9928,1.1244,1.2108,1.3538,1.4706,1.5718,1.6365,1.6913,1.7116,1.7195,1.7127,1.6992,1.6978,1.6978,1.6978,1.6978,1.6836,1.6544,1.6476,1.6334,1.6096,1.6083,1.6083,1.6083,1.6083,1.6083,1.6083,1.6083,1.6083,1.6083,1.6083,1.6083,1.6069,1.6035,1.594,1.5811,1.5737,1.5642,1.5513,1.5499,1.5527,1.5554,1.5567,1.554,1.5499,1.5499,1.5486,1.5486,1.5533,1.5581,1.5622,1.5635,1.5635,1.5662,1.571,1.5784,1.5798,1.6055,1.6314,1.6609,1.6791,1.7319,1.8097,1.867,1.8988,1.9514,2.0132,2.1056,2.1838,2.2162,2.2593,2.3272,2.374,2.3843,2.4026,2.4118,2.4118,2.4118,2.4118,2.4118,2.4118,2.4118,2.4118,2.4118,2.4118,2.4118,-0.6541,-0.5799,-0.4689,-0.3332,-0.1974,-0.1473,-0.0857,0.0,0.0,0.0,0.0,0.0,0.0,0.0,0.0,0.0,0.0,0.0,0.0,0.0,0.0,0.0,0.0575,0.0805,0.1832,0.3524,0.5083,0.6298,0.7286,0.8964,1.0304,1.142,1.2868,1.4171,1.5307,1.6071,1.6724,1.7062,1.7197,1.7209,1.708,1.7005,1.6978,1.6978,1.6978,1.6849,1.6625,1.6551,1.6381,1.6144,1.6083,1.6083,1.6083,1.6083,1.6083,1.6083,1.6083,1.6083,1.6083,1.6083,1.6083,1.6083,1.6083,1.6008,1.5893,1.5852,1.5791,1.5669,1.5628,1.5662,1.571,1.5723,1.5744,1.5798,1.5689,1.5676,1.5703,1.5723,1.5757,1.5791,1.5818,1.5805,1.5832,1.5866,1.5934,1.5954,1.6015,1.6182,1.6474,1.6566,1.7169,1.7756,1.8114,1.8545,1.9192,1.9924,2.0756,2.1379,2.1801,2.2389,2.3097,2.3435,2.3567,2.3935,2.4118,2.4118,2.4118,2.4118,2.4118,2.4118,2.4118,2.4118,2.4118,2.4118,2.4118,-0.6541,-0.5799,-0.5185,-0.3826,-0.2098,-0.1973,-0.1229,0.0,0.0,0.0,0.0,0.0,0.0,0.0,0.0,0.0,0.0,0.0,0.0,0.0,0.0,0.0,0.0,0.0692,0.1721,0.3075,0.3634,0.4859,0.6617,0.7731,0.8961,1.0639,1.1866,1.3091,1.4409,1.5535,1.6335,1.6839,1.7162,1.7358,1.7188,1.7066,1.6992,1.6985,1.6978,1.6904,1.6741,1.6571,1.6368,1.6123,1.6083,1.6083,1.6083,1.6083,1.6083,1.6083,1.6083,1.6083,1.6083,1.6083,1.6083,1.6083,1.6076,1.6022,1.5913,1.5893,1.5852,1.573,1.571,1.5737,1.5839,1.5866,1.5927,1.6015,1.5852,1.5771,1.5845,1.5866,1.5913,1.6015,1.6076,1.6069,1.6035,1.6049,1.6062,1.6062,1.6069,1.6175,1.6182,1.6282,1.6481,1.697,1.7566,1.8137,1.8765,1.9445,2.0277,2.0756,2.137,2.2104,2.2723,2.3118,2.3567,2.3935,2.4118,2.4118,2.4118,2.4118,2.4118,2.4118,2.4118,2.4118,2.4118,2.4118,2.4183,-0.6908,-0.5923,-0.5676,-0.4195,-0.2221,-0.1974,-0.1233,0.0,0.0,0.0,0.0,0.0,0.0,0.0,0.0,0.0,0.0,0.0,0.0,0.0,0.0,0.0,0.0,0.0582,0.1155,0.1835,0.2965,0.3959,0.4714,0.651,0.8188,0.9519,1.1102,1.2655,1.4208,1.5436,1.6353,1.6788,1.7289,1.7453,1.7236,1.7168,1.708,1.6985,1.6985,1.6904,1.6741,1.6497,1.6286,1.6103,1.6083,1.6083,1.6083,1.6083,1.6083,1.6083,1.6083,1.6083,1.6083,1.6083,1.6083,1.6083,1.6083,1.6062,1.6029,1.6022,1.6001,1.5967,1.5967,1.5967,1.6008,1.6015,1.6042,1.6062,1.5981,1.5954,1.5995,1.6022,1.6042,1.6076,1.6083,1.6083,1.6083,1.6083,1.6083,1.6083,1.6083,1.6083,1.6083,1.6083,1.6282,1.6672,1.7169,1.7764,1.8343,1.8936,1.9602,2.0158,2.0923,2.1715,2.2393,2.2974,2.3528,2.4026,2.4118,2.4118,2.4118,2.4118,2.4118,2.4118,2.4118,2.4118,2.4118,2.4129,2.4258,-0.712,-0.5894,-0.5912,-0.4441,-0.2098,-0.1974,-0.1234,0.0,0.0,0.0,0.0,0.0,0.0,0.0,0.0,0.0,0.0,0.0,0.0,0.0,0.0,0.0,0.0,0.0351,0.0699,0.104,0.2186,0.3086,0.3975,0.578,0.7474,0.8837,1.0414,1.2087,1.3506,1.5054,1.5997,1.6542,1.7136,1.7548,1.7399,1.7317,1.7209,1.71,1.7066,1.6978,1.6754,1.6524,1.6327,1.6198,1.6123,1.6083,1.6083,1.6083,1.6083,1.6083,1.6083,1.6083,1.6083,1.6083,1.6083,1.6083,1.6083,1.6083,1.6076,1.6083,1.6083,1.6069,1.6083,1.6083,1.6083,1.6083,1.6083,1.6076,1.6083,1.6083,1.6083,1.6076,1.6083,1.6083,1.6083,1.6083,1.6083,1.6083,1.6083,1.6083,1.6083,1.6083,1.6083,1.6083,1.6182,1.6474,1.6772,1.7268,1.7665,1.8152,1.9042,1.9602,2.0685,2.1394,2.2152,2.2889,2.3426,2.3825,2.3967,2.4129,2.414,2.414,2.4118,2.4118,2.4118,2.4172,2.4215,2.4258,2.4377,-0.7066,-0.5857,-0.5898,-0.4438,-0.222,-0.1974,-0.1234,0.0,0.0,0.0,0.0,0.0,0.0,0.0,0.0,0.0,0.0,0.0,0.0,0.0,0.0,0.0,0.0,0.0,0.0,0.0815,0.1396,0.2314,0.3447,0.5164,0.6658,0.8022,0.9743,1.1305,1.2696,1.4365,1.5435,1.6194,1.6976,1.7451,1.748,1.7494,1.7372,1.7243,1.7175,1.7046,1.6822,1.6625,1.6476,1.6334,1.6178,1.609,1.6083,1.6083,1.6083,1.6083,1.6083,1.6083,1.6083,1.6083,1.6083,1.6083,1.6083,1.6083,1.6083,1.6083,1.6083,1.6083,1.6083,1.6083,1.6083,1.6083,1.6083,1.6083,1.6083,1.6083,1.6083,1.6083,1.6083,1.6083,1.6083,1.6083,1.6083,1.6083,1.6083,1.6083,1.6083,1.6083,1.6083,1.6083,1.6083,1.6182,1.6474,1.6772,1.707,1.7367,1.8251,1.9125,2.0426,2.1399,2.2183,2.2883,2.3396,2.3778,2.4045,2.4177,2.4215,2.4194,2.4161,2.4194,2.4247,2.4344,2.443,2.4474,2.457,-0.7397,-0.5855,-0.5865,-0.4294,-0.222,-0.1974,-0.1234,0.0,0.0,0.0,0.0,0.0,0.0,0.0,0.0,0.0,0.0,0.0,0.0,0.0,0.0,0.0,0.0,0.0,0.0,0.0,0.0815,0.1507,0.242,0.3686,0.5058,0.6901,0.8747,1.0292,1.1929,1.3731,1.5106,1.6003,1.6839,1.7332,1.7574,1.7629,1.7528,1.7378,1.7256,1.7114,1.6944,1.6781,1.6632,1.6456,1.6246,1.6117,1.609,1.6083,1.6083,1.6083,1.6083,1.6083,1.6083,1.6083,1.6083,1.6083,1.6083,1.6083,1.6083,1.6083,1.6083,1.6083,1.6083,1.6083,1.6083,1.6083,1.6083,1.6083,1.6083,1.6083,1.6083,1.6083,1.6083,1.6083,1.6083,1.6083,1.6083,1.6083,1.6083,1.6083,1.6083,1.6083,1.6083,1.6083,1.6083,1.6083,1.6275,1.6573,1.6772,1.7169,1.7863,1.8845,2.006,2.1076,2.1875,2.2944,2.3496,2.3947,2.4237,2.4359,2.4387,2.4269,2.4247,2.4312,2.4409,2.4527,2.4541,2.4689,2.4608,-0.7572,-0.5794,-0.5814,-0.4255,-0.2197,-0.1954,-0.1224,0.0,0.0,0.0,0.0,0.0,0.0,0.0,0.0,0.0,0.0,0.0,0.0,0.0,0.0,0.0,0.0,0.0,0.0,0.0,0.0585,0.105,0.163,0.2906,0.4539,0.6044,0.7897,0.9722,1.1482,1.3171,1.4721,1.5848,1.6658,1.7373,1.7756,1.7779,1.7677,1.7507,1.7324,1.7148,1.7073,1.6856,1.672,1.6592,1.6408,1.6212,1.6103,1.6083,1.6083,1.6083,1.6083,1.6083,1.6083,1.6083,1.6083,1.6083,1.6083,1.6083,1.6083,1.6083,1.6083,1.6083,1.6083,1.6083,1.6083,1.6083,1.6083,1.6083,1.6083,1.6083,1.6083,1.6083,1.6083,1.6083,1.6083,1.6083,1.6083,1.6083,1.6083,1.6083,1.6083,1.6083,1.6083,1.6083,1.6083,1.6083,1.6083,1.6282,1.658,1.697,1.7665,1.8647,1.9717,2.0568,2.1341,2.2481,2.3728,2.405,2.4355,2.4573,2.4603,2.4474,2.442,2.4538,2.4667,2.467,2.4577,2.4567,2.4418,-0.7492,-0.5726,-0.5641,-0.4215,-0.2051,-0.1931,-0.1212,0.0,0.0,0.0,0.0,0.0,0.0,0.0,0.0,0.0,0.0,0.0,0.0,0.0,0.0,0.0,0.0,0.0,0.0,0.0,0.0471,0.0706,0.1412,0.2591,0.3875,0.541,0.7176,0.8879,1.0812,1.2645,1.4187,1.5322,1.6477,1.7333,1.786,1.7857,1.7819,1.7609,1.7446,1.7256,1.7154,1.6971,1.6809,1.6748,1.6625,1.6422,1.6225,1.6117,1.6096,1.609,1.6083,1.6083,1.6083,1.6083,1.6083,1.6083,1.6083,1.6083,1.6083,1.6083,1.6083,1.6083,1.6083,1.6083,1.6083,1.6083,1.6083,1.6083,1.6083,1.6083,1.6083,1.6083,1.6083,1.6083,1.6083,1.6083,1.6083,1.6083,1.6083,1.6083,1.6083,1.6083,1.6083,1.6083,1.6083,1.6083,1.6083,1.6083,1.6381,1.6772,1.7466,1.8259,1.9339,2.0119,2.0897,2.2088,2.3322,2.4025,2.4367,2.4609,2.4829,2.4721,2.4721,2.4818,2.4704,2.4599,2.4514,2.4438,2.4294,-0.7299,-0.5605,-0.5132,-0.3716,-0.205,-0.193,-0.1207,0.0,0.0,0.0,0.0,0.0,0.0,0.0,0.0,0.0,0.0,0.0,0.0,0.0,0.0,0.0,0.0,0.0,0.0,0.0,0.0236,0.0471,0.0943,0.1885,0.3063,0.4357,0.6121,0.7853,0.9674,1.1378,1.3318,1.4847,1.6032,1.7029,1.7562,1.7887,1.7928,1.7711,1.7582,1.7433,1.7249,1.7148,1.7005,1.6781,1.6624,1.6619,1.6463,1.6341,1.6232,1.613,1.6103,1.611,1.6083,1.6083,1.6083,1.6083,1.6083,1.6083,1.6083,1.6083,1.6083,1.6083,1.6083,1.6083,1.6083,1.6083,1.6083,1.6083,1.6083,1.6083,1.6083,1.6083,1.6083,1.6083,1.6083,1.6083,1.6083,1.6083,1.6083,1.6083,1.6083,1.6083,1.6083,1.6083,1.6083,1.6083,1.6083,1.6083,1.6182,1.6672,1.7169,1.7863,1.8853,1.9832,2.0611,2.1799,2.278,2.3418,2.4204,2.4748,2.4864,2.4779,2.48,2.4695,2.4652,2.4513,2.4273,2.4115,2.3924,-0.7244,-0.5535,-0.4612,-0.3325,-0.2025,-0.1549,-0.0836,0.0,0.0,0.0,0.0,0.0,0.0,0.0,0.0,0.0,0.0,0.0,0.0,0.0,0.0,0.0,0.0,0.0,0.0,0.0,0.0,0.0,0.0589,0.1414,0.2356,0.3534,0.5415,0.7401,0.9015,1.1108,1.2705,1.4271,1.5716,1.6825,1.7491,1.7881,1.8002,1.7901,1.7724,1.7575,1.7453,1.7243,1.7134,1.6998,1.691,1.6788,1.6673,1.6564,1.6435,1.6252,1.6198,1.6157,1.6103,1.6083,1.6083,1.6083,1.6083,1.6083,1.6083,1.6083,1.6083,1.6083,1.6083,1.6083,1.6083,1.6083,1.6083,1.6083,1.6083,1.6083,1.6083,1.6083,1.6083,1.6083,1.6083,1.6083,1.6083,1.6083,1.6083,1.6083,1.6083,1.6083,1.6083,1.6083,1.6083,1.6083,1.6083,1.6083,1.6182,1.6474,1.697,1.7566,1.8358,1.9339,2.0226,2.121,2.2093,2.2819,2.3645,2.4252,2.4552,2.4307,2.4425,2.4542,2.4294,2.4064,2.3934,2.3779,2.3473,-0.7085,-0.5475,-0.4108,-0.2945,-0.1885,-0.1178,-0.0591,0.0,0.0,0.0,0.0,0.0,0.0,0.0,0.0,0.0,0.0,0.0,0.0,0.0,0.0,0.0,0.0,0.0,0.0,0.0,0.0,0.0,0.0,0.106,0.2004,0.3063,0.5062,0.6829,0.8233,1.0216,1.2105,1.3834,1.5409,1.6616,1.7448,1.7948,1.8118,1.8077,1.7833,1.7677,1.7595,1.7433,1.7297,1.7202,1.71,1.6971,1.6863,1.6815,1.6673,1.6449,1.6374,1.6286,1.6218,1.6137,1.6151,1.6157,1.6103,1.6083,1.6083,1.6083,1.6083,1.6083,1.6083,1.6083,1.6083,1.6083,1.6083,1.6083,1.6083,1.6083,1.6083,1.6083,1.6083,1.6083,1.6083,1.609,1.6103,1.6083,1.6083,1.6083,1.6083,1.6083,1.6083,1.6083,1.6083,1.6083,1.6083,1.6083,1.6182,1.6374,1.6772,1.7268,1.7962,1.8845,1.9733,2.062,2.1317,2.1934,2.2378,2.2906,2.3355,2.3981,2.4243,2.4243,2.3904,2.372,2.3493,2.2993,2.2459,-0.67,-0.5473,-0.364,-0.2475,-0.1884,-0.1178,-0.0589,0.0,0.0,0.0,0.0,0.0,0.0,0.0,0.0,0.0,0.0,0.0,0.0,0.0,0.0,0.0,0.0,0.0,0.0,0.0,0.0,0.0,0.0,0.0707,0.1414,0.2358,0.3653,0.5062,0.7182,0.9175,1.0579,1.2452,1.4305,1.6116,1.739,1.8034,1.824,1.8091,1.7935,1.7785,1.769,1.7575,1.7507,1.7385,1.7249,1.7168,1.7121,1.7019,1.6876,1.6714,1.6585,1.6483,1.6435,1.6341,1.6279,1.6259,1.6191,1.6103,1.6123,1.613,1.613,1.6083,1.6096,1.6123,1.6137,1.611,1.609,1.6117,1.6151,1.613,1.6117,1.6205,1.6191,1.6171,1.6205,1.6157,1.6137,1.6103,1.6083,1.6083,1.6083,1.6083,1.6096,1.611,1.6171,1.6191,1.6205,1.6198,1.6205,1.6385,1.6671,1.7142,1.764,1.8336,1.9056,1.9776,2.0204,2.0797,2.1174,2.1882,2.2716,2.3336,2.3808,2.3661,2.3147,2.3083,2.3036,2.2397,2.1432,-0.6289,-0.5286,-0.3143,-0.2107,-0.1756,-0.0823,-0.0236,0.0,0.0,0.0,0.0,0.0,0.0,0.0,0.0,0.0,0.0,0.0,0.0,0.0,0.0,0.0,0.0,0.0,0.0,0.0,0.0,0.0,0.0,0.0591,0.1298,0.2014,0.3188,0.4827,0.6474,0.8468,1.0345,1.2452,1.4671,1.6511,1.7595,1.8167,1.8369,1.8226,1.807,1.7921,1.7792,1.7677,1.752,1.7528,1.7405,1.7324,1.7311,1.7256,1.7161,1.7019,1.6951,1.6788,1.6558,1.6476,1.6442,1.6422,1.6368,1.6347,1.6334,1.632,1.632,1.6334,1.6334,1.632,1.632,1.6334,1.6334,1.6327,1.6286,1.63,1.63,1.6327,1.6361,1.6341,1.6313,1.6286,1.6239,1.6178,1.6157,1.6144,1.6137,1.6123,1.6151,1.6185,1.6266,1.6368,1.6368,1.6368,1.6374,1.6476,1.6678,1.7069,1.7271,1.7877,1.8273,1.8861,1.9392,1.9608,1.9766,2.0668,2.1822,2.2292,2.2482,2.2376,2.2278,2.2223,2.2046,2.1275,2.0414,-0.576,-0.4989,-0.2766,-0.1743,-0.163,-0.0469,0.0,0.0,0.0,0.0,0.0,0.0,0.0,0.0,0.0,0.0,0.0,0.0,0.0,0.0,0.0,0.0,0.0,0.0,0.0,0.0,0.0,0.0,0.0,0.0476,0.1071,0.1907,0.2718,0.436,0.6239,0.8001,0.9876,1.2573,1.5376,1.689,1.7556,1.8139,1.837,1.8362,1.8226,1.8077,1.7928,1.784,1.7772,1.7677,1.7561,1.748,1.7467,1.7405,1.7344,1.7243,1.7209,1.71,1.6856,1.67,1.6605,1.6564,1.6524,1.6476,1.649,1.6517,1.6517,1.6483,1.649,1.6497,1.6517,1.6503,1.6483,1.6476,1.6483,1.651,1.6524,1.6503,1.6476,1.6435,1.6429,1.6463,1.6395,1.6293,1.6239,1.6212,1.6191,1.6185,1.6232,1.63,1.6368,1.6476,1.6469,1.6469,1.6476,1.6605,1.683,1.696,1.7165,1.745,1.7822,1.8206,1.8574,1.862,1.8681,1.9182,2.025,2.0586,2.1046,2.1269,2.1392,2.1225,2.0814,2.015,1.9623,-0.5016,-0.4386,-0.2628,-0.1849,-0.1745,-0.0466,0.0,0.0,0.0,0.0,0.0,0.0,0.0,0.0,0.0,0.0,0.0,0.0,0.0,0.0,0.0,0.0,0.0,0.0,0.0,0.0,0.0,0.0,0.0,0.0,0.0,0.1789,0.2252,0.3658,0.5653,0.7766,1.011,1.2807,1.5498,1.6786,1.733,1.7826,1.8424,1.8484,1.8369,1.8233,1.8091,1.803,1.7962,1.7853,1.7711,1.7636,1.7616,1.7541,1.7473,1.7419,1.7405,1.7331,1.7188,1.6958,1.6775,1.6707,1.6646,1.6585,1.6605,1.6551,1.653,1.6571,1.6612,1.6585,1.6564,1.653,1.6598,1.6612,1.6639,1.6639,1.6632,1.6605,1.6578,1.6537,1.6558,1.6619,1.6659,1.6578,1.6422,1.6388,1.6368,1.6361,1.6429,1.649,1.651,1.6558,1.6551,1.6551,1.6544,1.668,1.6852,1.6975,1.7071,1.7139,1.7398,1.7705,1.7858,1.7946,1.8093,1.8313,1.8652,1.9348,2.0065,2.05,2.0591,2.0231,1.9862,1.934,1.8902,-0.5008,-0.4379,-0.2599,-0.1822,-0.1721,-0.0464,0.0,0.0,0.0,0.0,0.0,0.0,0.0,0.0,0.0,0.0,0.0,0.0,0.0,0.0,0.0,0.0,0.0,0.0,0.0,0.0,0.0,0.0,0.0,0.0,0.0,0.1561,0.1906,0.3551,0.5547,0.8236,1.0934,1.2807,1.5148,1.643,1.7006,1.7549,1.8165,1.8525,1.8498,1.8375,1.824,1.8138,1.807,1.7989,1.786,1.7819,1.7792,1.7717,1.765,1.7582,1.7568,1.7521,1.7446,1.7249,1.7134,1.6998,1.6897,1.6802,1.6802,1.6802,1.6802,1.6809,1.6795,1.6781,1.6802,1.6809,1.6829,1.6809,1.6788,1.6775,1.6781,1.6768,1.6802,1.6809,1.6809,1.6836,1.6876,1.6897,1.672,1.6571,1.6551,1.6564,1.6659,1.672,1.6754,1.6788,1.6795,1.6802,1.6802,1.6802,1.6802,1.6906,1.701,1.7114,1.7224,1.7127,1.737,1.7432,1.7529,1.7801,1.8157,1.8596,1.9014,1.9496,1.9493,1.9325,1.8848,1.8567,1.8302,-0.4757,-0.3799,-0.2348,-0.18,-0.1592,-0.046,0.0,0.0,0.0,0.0,0.0,0.0,0.0,0.0,0.0,0.0,0.0,0.0,0.0,0.0,0.0,0.0,0.0,0.0,0.0,0.0,0.0,0.0,0.0,0.0,0.0,0.1328,0.192,0.3453,0.5899,0.9058,1.1641,1.3046,1.4676,1.6081,1.678,1.7465,1.8142,1.8504,1.8606,1.8525,1.8409,1.8301,1.8226,1.8152,1.807,1.8016,1.7989,1.7948,1.788,1.7806,1.7724,1.7656,1.7575,1.7446,1.7378,1.7236,1.7175,1.7121,1.7107,1.7107,1.7114,1.71,1.708,1.7046,1.7039,1.6985,1.6937,1.6904,1.6904,1.6904,1.6978,1.6998,1.706,1.71,1.71,1.7107,1.7121,1.7154,1.7093,1.6965,1.6971,1.6971,1.6998,1.7046,1.7046,1.708,1.7107,1.7114,1.7114,1.7093,1.7087,1.7107,1.7213,1.7213,1.722,1.71,1.71,1.7319,1.7424,1.7424,1.7657,1.801,1.8277,1.8422,1.8463,1.8523,1.8402,1.8097,1.8024,-0.4258,-0.2659,-0.1996,-0.1791,-0.1587,-0.0568,0.0,0.0,0.0,0.0,0.0,0.0,0.0,0.0,0.0,0.0,0.0,0.0,0.0,0.0,0.0,0.0,0.0,0.0,0.0,0.0,0.0,0.0,0.0,0.0,0.0,0.1088,0.192,0.3339,0.5779,0.8826,1.0938,1.2344,1.4093,1.5498,1.678,1.7478,1.7923,1.8612,1.8715,1.8633,1.8552,1.847,1.8389,1.8308,1.826,1.8226,1.8226,1.8131,1.8077,1.8057,1.7941,1.7874,1.784,1.7589,1.748,1.7419,1.7351,1.7331,1.7372,1.7385,1.7351,1.729,1.7256,1.7202,1.7148,1.7087,1.7053,1.7046,1.706,1.708,1.7154,1.7195,1.7236,1.7263,1.7344,1.7399,1.7405,1.7405,1.7412,1.7385,1.7399,1.7378,1.7324,1.729,1.7256,1.7263,1.7283,1.7283,1.7277,1.7344,1.7365,1.7392,1.7365,1.7317,1.7311,1.7297,1.7317,1.7372,1.7338,1.7377,1.7438,1.7513,1.7794,1.8095,1.7885,1.7799,1.7772,1.7813,1.7827,-0.424,-0.2529,-0.199,-0.1556,-0.1119,0.0,0.0,0.0,0.0,0.0,0.0,0.0,0.0,0.0,0.0,0.0,0.0,0.0,0.0,0.0,0.0,0.0,0.0,0.0,0.0,0.0,0.0,0.0,0.0,0.0,0.0,0.0968,0.239,0.4263,0.6483,0.8944,1.1055,1.2227,1.3747,1.5148,1.6663,1.7129,1.771,1.8762,1.8762,1.8728,1.8667,1.8599,1.8518,1.8457,1.8409,1.8355,1.8348,1.826,1.8247,1.824,1.8165,1.8172,1.8124,1.7975,1.7772,1.7643,1.75,1.746,1.7426,1.7419,1.7419,1.7426,1.7392,1.7351,1.7324,1.7311,1.729,1.7297,1.7304,1.7304,1.7344,1.7344,1.7365,1.7365,1.7419,1.7514,1.7548,1.7568,1.7582,1.7575,1.7561,1.7487,1.7426,1.7399,1.7372,1.7365,1.7378,1.7399,1.7426,1.7487,1.75,1.7487,1.7446,1.7392,1.7405,1.7467,1.7453,1.746,1.7439,1.7419,1.748,1.7541,1.7725,1.7772,1.769,1.7717,1.7765,1.7902,1.7923,-0.3997,-0.2289,-0.1973,-0.1323,-0.0555,-0.0113,0.0,0.0,0.0,0.0,0.0,0.0,0.0,0.0,0.0,0.0,0.0,0.0,0.0,0.0,0.0,0.0,0.0,0.0,0.0,0.0,0.0,0.0,0.0,0.0,0.0,0.1448,0.2731,0.4251,0.6358,0.8474,1.0352,1.1758,1.3163,1.4798,1.6198,1.7129,1.76,1.8414,1.8762,1.8755,1.8728,1.8674,1.8606,1.8579,1.8531,1.8464,1.8457,1.8423,1.8403,1.8389,1.8335,1.8321,1.826,1.8233,1.8043,1.7928,1.7697,1.7589,1.7575,1.7602,1.7602,1.7589,1.7528,1.7507,1.75,1.7494,1.7446,1.7439,1.7439,1.7433,1.7494,1.75,1.7534,1.7528,1.7555,1.7636,1.7684,1.7717,1.7738,1.7724,1.7704,1.7616,1.7548,1.7541,1.7528,1.7534,1.7555,1.7589,1.7609,1.7629,1.7623,1.7582,1.7555,1.7528,1.7589,1.7656,1.7602,1.7568,1.7602,1.7623,1.7623,1.767,1.7834,1.7868,1.7772,1.7806,1.7853,1.786,1.786,-0.3747,-0.1834,-0.1728,-0.1091,0.0,0.0,0.0,0.0,0.0,0.0,0.0,0.0,0.0,0.0,0.0,0.0,0.0,0.0,0.0,0.0,0.0,0.0,0.0,0.0,0.0,0.0,0.0,0.0,0.0,0.0,0.0,0.1689,0.2375,0.4014,0.577,0.7652,0.9531,1.129,1.2812,1.4682,1.6314,1.6896,1.76,1.8414,1.8762,1.8762,1.8749,1.8735,1.8728,1.8728,1.8728,1.8735,1.8701,1.8613,1.8565,1.8504,1.8416,1.8396,1.8382,1.8369,1.8321,1.8213,1.8023,1.7914,1.7846,1.7826,1.7806,1.7758,1.7704,1.767,1.765,1.7575,1.7494,1.7494,1.7494,1.7541,1.7629,1.7677,1.7724,1.7745,1.7779,1.7819,1.7806,1.7826,1.784,1.7806,1.7792,1.7779,1.7731,1.7745,1.7738,1.7751,1.7772,1.7812,1.7812,1.7758,1.7751,1.7711,1.7751,1.7751,1.7806,1.7806,1.7751,1.7738,1.7812,1.7826,1.7758,1.7772,1.7826,1.7846,1.7853,1.7853,1.7887,1.7867,1.786,-0.3385,-0.1698,-0.1719,-0.1083,0.0,0.0,0.0,0.0,0.0,0.0,0.0,0.0,0.0,0.0,0.0,0.0,0.0,0.0,0.0,0.0,0.0,0.0,0.0,0.0,0.0,0.0,0.0,0.0,0.0,0.0,0.0,0.1807,0.2137,0.3542,0.5417,0.7064,0.9058,1.1055,1.2578,1.4565,1.6198,1.6896,1.7717,1.8414,1.8762,1.8762,1.8762,1.8762,1.8762,1.8762,1.8762,1.8762,1.8749,1.8721,1.8694,1.8694,1.8654,1.864,1.8613,1.8531,1.847,1.845,1.8287,1.8145,1.807,1.8016,1.7982,1.7901,1.7826,1.7779,1.7758,1.7704,1.7656,1.7656,1.7656,1.769,1.7758,1.7772,1.7819,1.7874,1.7907,1.7941,1.7935,1.7921,1.7921,1.7887,1.7874,1.7894,1.788,1.788,1.786,1.786,1.786,1.786,1.786,1.7819,1.784,1.7846,1.786,1.786,1.7846,1.784,1.7853,1.786,1.786,1.786,1.7846,1.7874,1.7914,1.7928,1.7935,1.7921,1.7907,1.7928,1.7914,-0.3041,-0.1791,-0.149,-0.0858,0.0,0.0,0.0,0.0,0.0,0.0,0.0,0.0,0.0,0.0,0.0,0.0,0.0,0.0,0.0,0.0,0.0,0.0,0.0,0.0,0.0,0.0,0.0,0.0,0.0,0.0,0.0603,0.1807,0.19,0.3422,0.53,0.7064,0.8941,1.0817,1.269,1.4565,1.5965,1.6896,1.7717,1.853,1.8762,1.8762,1.8762,1.8762,1.8762,1.8762,1.8762,1.8762,1.8762,1.8762,1.8755,1.8749,1.8742,1.8728,1.8715,1.8674,1.8633,1.8599,1.8531,1.843,1.8267,1.8165,1.807,1.7982,1.7907,1.7853,1.786,1.786,1.7853,1.7846,1.7853,1.7853,1.7853,1.7853,1.7901,1.7955,1.8002,1.805,1.8057,1.8036,1.805,1.8084,1.8097,1.8104,1.803,1.7935,1.7894,1.786,1.786,1.786,1.7874,1.7901,1.7901,1.7894,1.786,1.786,1.7867,1.7874,1.7887,1.7874,1.786,1.7894,1.7955,1.7968,1.7996,1.8023,1.8077,1.8104,1.8118,1.8118,1.8077,-0.2708,-0.1678,-0.1156,-0.0638,-0.0216,0.0,0.0,-0.0111,0.0,0.0,0.0,0.0,0.0,0.0,0.0,0.0,0.0,0.0,0.0,0.0,0.0,0.0,0.0,0.0,0.0,0.0,0.0,0.0,0.0,0.0243,0.0844,0.1807,0.2137,0.3534,0.5537,0.7064,0.8941,1.1051,1.2695,1.4331,1.6081,1.7019,1.7484,1.8414,1.8762,1.8762,1.8762,1.8762,1.8762,1.8762,1.8762,1.8762,1.8762,1.8762,1.8762,1.8762,1.8762,1.8762,1.8762,1.8735,1.8742,1.8742,1.8749,1.8647,1.8484,1.8321,1.8219,1.8063,1.7982,1.7948,1.7941,1.7948,1.7955,1.7996,1.8023,1.8023,1.8023,1.803,1.805,1.8104,1.8152,1.8192,1.8199,1.8186,1.8172,1.8253,1.8274,1.826,1.8213,1.807,1.8023,1.7962,1.7982,1.8009,1.8002,1.8016,1.7968,1.7941,1.7935,1.7955,1.803,1.7989,1.7914,1.7968,1.803,1.8043,1.8077,1.8097,1.8138,1.8206,1.826,1.8314,1.8328,1.8321,1.8247,-0.2674,-0.1549,-0.1046,-0.1058,-0.1177,-0.0865,-0.0657,-0.0665,-0.0223,0.0,0.0,0.0,0.0,0.0,0.0,0.0,0.0,0.0,0.0,0.0,0.0,0.0,0.0,0.0,0.0,0.0,0.0,0.0,0.0,0.0485,0.1082,0.1913,0.2602,0.4123,0.5772,0.7299,0.9179,1.129,1.2578,1.4098,1.5731,1.6663,1.7361,1.8059,1.8407,1.8762,1.8762,1.8762,1.8762,1.8762,1.8762,1.8762,1.8762,1.8762,1.8762,1.8762,1.8762,1.8762,1.8762,1.8762,1.8762,1.8762,1.8755,1.8742,1.866,1.8511,1.8348,1.8186,1.807,1.805,1.8036,1.805,1.807,1.8131,1.8179,1.8186,1.8186,1.8206,1.8213,1.826,1.8308,1.8335,1.8342,1.8335,1.8321,1.8314,1.8308,1.8308,1.8335,1.8267,1.8274,1.8233,1.8213,1.8219,1.8179,1.8145,1.8111,1.8131,1.8152,1.8172,1.8192,1.8145,1.8104,1.8186,1.824,1.8219,1.8219,1.8253,1.8301,1.8382,1.843,1.8477,1.8518,1.8525,1.843,-0.2551,-0.1949,-0.1461,-0.1371,-0.1592,-0.1396,-0.1089,-0.0881,-0.0553,-0.0224,0.0,0.0,0.0,0.0,0.0,0.0,0.0,0.0,0.0,0.0,0.0,0.0,0.0,0.0,0.0,0.0,0.0,0.0,0.0,0.0605,0.1202,0.2027,0.3193,0.4592,0.6123,0.7769,0.9413,1.129,1.2578,1.3859,1.5376,1.6198,1.7129,1.7826,1.8407,1.8762,1.8762,1.8762,1.8762,1.8762,1.8762,1.8762,1.8762,1.8762,1.8762,1.8762,1.8762,1.8762,1.8762,1.8762,1.8762,1.8762,1.8762,1.8749,1.8749,1.8613,1.8538,1.8375,1.8233,1.8192,1.8192,1.8199,1.8206,1.8247,1.826,1.826,1.8301,1.8342,1.8369,1.8409,1.8477,1.8565,1.8572,1.8572,1.8559,1.8559,1.8525,1.8498,1.8498,1.8457,1.847,1.8464,1.8423,1.8348,1.8267,1.826,1.826,1.8301,1.8355,1.8308,1.828,1.8294,1.8314,1.8342,1.8355,1.8348,1.8362,1.8403,1.8484,1.8565,1.8606,1.8633,1.8674,1.8687,1.8606,-0.2537,-0.2457,-0.1979,-0.189,-0.1895,-0.1819,-0.1627,-0.1204,-0.0992,-0.0558,-0.0113,0.0,0.0,0.0,0.0,0.0,0.0,0.0,0.0,0.0,0.0,0.0,0.0,0.0,0.0,0.0,0.0,0.0,0.0,0.0724,0.1558,0.2143,0.3432,0.4945,0.6591,0.8004,0.9531,1.1173,1.2461,1.3397,1.4682,1.5848,1.6896,1.771,1.8407,1.8762,1.8762,1.8762,1.8762,1.8762,1.8762,1.8762,1.8762,1.8762,1.8762,1.8762,1.8762,1.8762,1.8762,1.8762,1.8762,1.8762,1.8762,1.8762,1.8762,1.8728,1.8654,1.8572,1.8423,1.8348,1.8348,1.8348,1.8355,1.8389,1.8389,1.8382,1.8437,1.8484,1.8518,1.8559,1.8633,1.8728,1.8742,1.8742,1.8749,1.8755,1.8762,1.8762,1.8735,1.866,1.8626,1.8606,1.8559,1.8477,1.8409,1.8403,1.8437,1.8464,1.8498,1.8423,1.8396,1.8457,1.8477,1.8437,1.845,1.8484,1.8518,1.8559,1.8647,1.8708,1.8708,1.8701,1.8715,1.8728,1.8742,-0.3032,-0.3041,-0.2581,-0.2601,-0.2921,-0.2546,-0.2372,-0.2076,-0.1315,-0.0775,-0.0562,0.0,0.0,0.0,0.0,0.0,0.0,0.0,0.0,0.0,0.0,0.0,0.0,0.0,0.0,0.0,0.0,0.0,0.0,0.1079,0.2024,0.26,0.4487,0.5888,0.7179,0.8592,0.9883,1.129,1.2461,1.3514,1.4448,1.5615,1.6663,1.7478,1.8181,1.8646,1.8762,1.8762,1.8762,1.8762,1.8762,1.8762,1.8762,1.8762,1.8762,1.8762,1.8762,1.8762,1.8762,1.8762,1.8762,1.8762,1.8762,1.8762,1.8762,1.8762,1.8708,1.8701,1.8586,1.8511,1.8498,1.8498,1.8504,1.8593,1.8626,1.8626,1.8654,1.866,1.8674,1.8687,1.8708,1.8749,1.8749,1.8755,1.8755,1.8762,1.8762,1.8762,1.8762,1.8762,1.8762,1.8721,1.8674,1.8701,1.8681,1.8626,1.864,1.8654,1.8647,1.8593,1.8593,1.8674,1.8674,1.8593,1.8613,1.8667,1.8701,1.8667,1.8701,1.8735,1.8749,1.8749,1.8762,1.8762,1.8762]}]]